Date StartTime U_cm/s V_cm/s W_cm/s Ustd_cm/s Vstd_cm/s Wstd_cm/s Uvar_(cm/s)^2 Vvar_(cm/s)^2 Wvar_(cm/s)^2 KE_(m/s)^2 TurbulentKE_(m/s)^2 HorizWindSpeed_cm/s FrictionSpeec_cm/s DragCoef SpeedOfSound_m/s SonicTemperature_C Pressure_mb 
12/07/2013  00:00:00       48.030       23.411      125.571       83.026      193.095       95.933     6893.389    37285.765     9203.108        3.599        2.669       53.432      128.328        5.768      330.814       -1.574      849.520
12/07/2013  00:01:00       98.451      -98.298       30.012       72.283       95.033       58.463     5224.871     9031.307     3417.906        1.896        0.884      139.123       64.790        0.217      330.823       -1.558      849.472
12/07/2013  00:02:00      130.459     -117.606       14.598       93.209      132.880       60.398     8687.909    17657.174     3647.946        3.052        1.500      175.644       78.558        0.200      330.816       -1.570      849.470
12/07/2013  00:03:00      141.079     -245.017      -35.860       95.227      128.262       72.313     9068.097    16451.047     5229.108        5.598        1.537      282.731       60.188        0.045      330.796       -1.605      849.454
12/07/2013  00:04:00       74.163      -77.193       28.486       87.652      108.547       78.458     7682.837    11782.405     6155.670        1.894        1.281      107.047       85.166        0.633      330.822       -1.560      849.486
12/07/2013  00:05:00       58.444      -96.050       17.793       56.937       82.718       51.902     3241.852     6842.261     2693.853        1.287        0.639      112.433       52.250        0.216      330.885       -1.456      849.476
12/07/2013  00:06:00        4.851      -89.810       24.042       43.757       45.447       34.393     1914.709     2065.414     1182.851        0.691        0.258       89.941       16.572        0.034      330.984       -1.294      849.487
12/07/2013  00:07:00       17.490      -63.794       19.115       56.078       73.804       37.818     3144.742     5447.038     1430.191        0.738        0.501       66.148       39.186        0.351      331.063       -1.164      849.504
12/07/2013  00:08:00      -16.816     -114.493      -22.390       68.509       48.767       32.776     4693.535     2378.263     1074.265        1.102        0.407      115.721       33.496        0.084      331.039       -1.204      849.499
12/07/2013  00:09:00      -34.430      -24.188       15.333       43.614       63.754       28.584     1902.139     4064.521      817.067        0.439        0.339       42.077       19.245        0.209      331.039       -1.204      849.518
12/07/2013  00:10:00      -60.110      -97.912       20.947       75.431       87.597       51.870     5689.813     7673.268     2690.496        1.484        0.803      114.891       46.493        0.164      330.983       -1.296      849.501
12/07/2013  00:11:00       35.178      -68.637       42.233       58.955      132.888       50.004     3475.668    17659.255     2500.419        1.568        1.182       77.127       72.125        0.874      330.944       -1.359      849.405
12/07/2013  00:12:00       29.029       -0.424       33.460       59.968       53.151       31.531     3596.156     2825.032      994.191        0.469        0.371       29.032       29.490        1.032      330.854       -1.506      849.309
12/07/2013  00:13:00      129.040     -213.904      -18.901       93.876      109.864       47.790     8812.679    12070.062     2283.887        4.296        1.158      249.812       51.198        0.042      330.873       -1.479      849.293
12/07/2013  00:14:00       17.999      -91.578        9.882       73.447       59.472       38.957     5394.422     3536.884     1517.612        0.963        0.522       93.330       20.498        0.048      330.955       -1.341      849.311
12/07/2013  00:15:00       69.071      -68.268       -4.812       99.634       96.212       44.993     9926.964     9256.745     2024.332        1.533        1.060       97.115       47.671        0.241      330.885       -1.456      849.323
12/07/2013  00:16:00       46.041      -15.050       46.308       75.353      111.402       59.048     5678.039    12410.465     3486.721        1.303        1.079       48.438       72.558        2.244      330.807       -1.584      849.320
12/07/2013  00:17:00       67.128      -74.472       13.389       61.899       94.515       42.597     3831.434     8933.141     1814.541        1.240        0.729      100.261       56.728        0.320      330.908       -1.419      849.322
12/07/2013  00:18:00       25.237      -71.499       11.947       88.814       73.111       51.882     7887.944     5345.219     2691.744        1.091        0.796       75.822       44.144        0.339      330.983       -1.297      849.310
12/07/2013  00:19:00       20.944       -6.664       45.659       45.348       63.085       50.765     2056.437     3979.655     2577.074        0.559        0.431       21.979       47.378        4.647      330.978       -1.303      849.302
12/07/2013  00:20:00      -20.072      -67.941      -15.561       45.261       59.938       28.418     2048.515     3592.580      807.581        0.585        0.322       70.843       25.108        0.126      330.994       -1.277      849.356
12/07/2013  00:21:00        0.058      -25.687        8.007       27.439       30.602       27.987      752.880      936.469      783.283        0.160        0.124       25.687       23.923        0.867      331.020       -1.235      849.355
12/07/2013  00:22:00       26.695      -46.166        8.886       68.514       54.288       39.574     4694.170     2947.215     1566.119        0.606        0.460       53.329       34.549        0.420      331.020       -1.233      849.347
12/07/2013  00:23:00       43.121      -44.241       19.040       63.192       70.523       47.543     3993.211     4973.442     2260.332        0.770        0.561       61.779       31.123        0.254      330.937       -1.370      849.364
12/07/2013  00:24:00       81.693     -150.982       -1.417       49.269       78.389       37.386     2427.428     6144.852     1397.695        1.972        0.498      171.666       36.439        0.045      331.056       -1.176      849.385
12/07/2013  00:25:00       72.861     -141.599       -3.874       62.705       72.854       44.015     3931.970     5307.749     1937.307        1.827        0.559      159.245       40.151        0.064      331.050       -1.188      849.363
12/07/2013  00:26:00        5.036      -10.265        7.901       62.528       54.946       32.884     3909.722     3019.102     1081.374        0.410        0.401       11.434       32.968        8.314      330.939       -1.367      849.367
12/07/2013  00:27:00      -74.261      -62.894        4.621       38.455       35.180       21.793     1478.823     1237.607      474.928        0.634        0.160       97.316       15.192        0.024      330.918       -1.402      849.370
12/07/2013  00:28:00      -97.659      -23.632        4.868       58.931       41.589       19.671     3472.840     1729.661      386.955        0.785        0.279      100.478       22.049        0.048      330.872       -1.476      849.373
12/07/2013  00:29:00       38.533       23.086       30.113       21.630       22.221       18.864      467.855      493.792      355.839        0.212        0.066       44.920       14.645        0.106      330.964       -1.325      849.348
12/07/2013  00:30:00      -26.763       13.681        1.744       67.160       28.697       17.985     4510.403      823.500      323.456        0.328        0.283       30.057       14.616        0.236      330.937       -1.371      849.343
12/07/2013  00:31:00     -102.710        3.004       -3.175       71.812       53.417       25.893     5156.973     2853.402      670.443        0.962        0.434      102.753       24.137        0.055      330.885       -1.455      849.332
12/07/2013  00:32:00     -107.751      -80.331        1.233       69.019       66.220       33.639     4763.617     4385.049     1131.593        1.417        0.514      134.400       41.146        0.094      330.899       -1.433      849.318
12/07/2013  00:33:00      -78.269      -59.710        8.570       63.426       42.745       27.537     4022.895     1827.131      758.293        0.819        0.330       98.444       22.362        0.052      330.903       -1.426      849.283
12/07/2013  00:34:00       -4.087        3.914       32.047       39.275       59.074       30.441     1542.547     3489.775      926.661        0.351        0.298        5.659       30.888       29.795      330.957       -1.338      849.232
12/07/2013  00:35:00       38.689       38.880       37.227       18.800       21.755       15.300      353.451      473.259      234.103        0.273        0.053       54.850       12.420        0.051      330.835       -1.538      849.213
12/07/2013  00:36:00       11.222       33.417       48.819       45.588       35.472       31.600     2078.281     1258.284      998.537        0.398        0.217       35.251       30.691        0.758      330.906       -1.419      849.174
12/07/2013  00:37:00       22.810       38.393       71.805       52.576       58.504       43.716     2764.206     3422.764     1911.109        0.762        0.405       44.657       41.969        0.883      330.862       -1.494      849.118
12/07/2013  00:38:00       -7.024      -22.061       52.639       27.435       42.320       21.087      752.693     1790.954      444.676        0.315        0.149       23.153       11.440        0.244      330.931       -1.380      849.142
12/07/2013  00:39:00       32.412      -59.954        3.030       38.803       37.559       32.618     1505.690     1410.689     1063.964        0.432        0.199       68.154       20.735        0.093      330.913       -1.410      849.194
12/07/2013  00:40:00      110.822     -112.940      -10.618       73.782       94.463       55.237     5443.807     8923.328     3051.147        2.128        0.871      158.231       61.905        0.153      330.989       -1.285      849.203
12/07/2013  00:41:00        6.631       22.979       71.501       39.142       59.308       35.410     1532.094     3517.467     1253.838        0.599        0.315       23.917       32.460        1.842      330.977       -1.305      849.164
12/07/2013  00:42:00       60.697      -39.235       65.322       65.477       74.780       55.401     4287.220     5591.983     3069.248        1.122        0.647       72.274       51.314        0.504      330.887       -1.451      849.073
12/07/2013  00:43:00       39.758      -27.272       58.852       63.307      141.251       80.255     4007.797    19951.789     6440.868        1.809        1.520       48.213       99.084        4.224      330.862       -1.494      849.083
12/07/2013  00:44:00       50.381      -97.979       14.109       81.463       94.946       51.886     6636.218     9014.693     2692.170        1.534        0.917      110.173       61.016        0.307      330.916       -1.407      849.143
12/07/2013  00:45:00        7.595      -13.037       58.418       39.095       60.209       36.937     1528.391     3625.171     1364.356        0.508        0.326       15.088       38.828        6.622      330.938       -1.369      849.138
12/07/2013  00:46:00       28.525      -20.157       40.414       35.938       65.916       35.042     1291.560     4344.898     1227.959        0.486        0.343       34.929       40.231        1.327      330.890       -1.447      849.180
12/07/2013  00:47:00      -39.865      -39.419       23.973       66.799       46.907       25.776     4462.047     2200.307      664.425        0.552        0.366       56.063       19.622        0.122      331.014       -1.244      849.236
12/07/2013  00:48:00        3.249      -16.888       32.326       53.519       57.655       29.545     2864.334     3324.116      872.920        0.420        0.353       17.198       32.473        3.565      331.010       -1.251      849.206
12/07/2013  00:49:00       23.619       -8.361       45.303       51.177       62.744       45.572     2619.106     3936.769     2076.805        0.565        0.432       25.055       42.222        2.840      331.014       -1.244      849.179
12/07/2013  00:50:00       27.265      -60.817       22.741       46.643       56.517       43.091     2175.579     3194.147     1856.835        0.609        0.361       66.649       31.927        0.229      331.012       -1.248      849.182
12/07/2013  00:51:00       82.101      -91.534       17.018       63.922       73.916       37.831     4086.068     5463.622     1431.189        1.319        0.549      122.959       45.817        0.139      330.901       -1.432      849.173
12/07/2013  00:52:00       43.104      -54.716       42.446       59.513      110.543       38.308     3541.786    12219.694     1467.507        1.194        0.861       69.655       60.167        0.746      331.001       -1.266      849.153
12/07/2013  00:53:00       -6.522       -1.009       63.742       29.865       92.150       66.909      891.947     8491.552     4476.755        0.898        0.693        6.599       73.722      124.801      330.908       -1.417      849.134
12/07/2013  00:54:00       -4.662      -51.146      -11.464       49.227       39.165       28.776     2423.277     1533.876      828.058        0.378        0.239       51.358       16.414        0.102      330.968       -1.320      849.144
12/07/2013  00:55:00        1.121       13.299       32.963       31.262       29.279       23.109      977.301      857.252      534.017        0.182        0.118       13.346       19.883        2.220      330.950       -1.349      849.136
12/07/2013  00:56:00       -1.239       -4.235       13.006       19.791       23.318       23.848      391.687      543.726      568.711        0.085        0.075        4.412       19.966       20.476      330.981       -1.298      849.150
12/07/2013  00:57:00       -7.063       69.695       92.152       20.935       43.248       30.425      438.282     1870.392      925.705        0.832        0.162       70.052       30.228        0.186      330.924       -1.391      849.110
12/07/2013  00:58:00      -11.593       47.502       73.530       29.733       40.754       38.198      884.054     1660.926     1459.069        0.590        0.200       48.896       33.267        0.463      330.894       -1.439      849.048
12/07/2013  00:59:00       18.525       97.773      101.786       45.560       49.145       47.942     2075.712     2415.249     2298.395        1.352        0.339       99.512       43.314        0.189      330.810       -1.579      848.977
12/07/2013  01:00:00       14.516      -37.436       14.685       27.883       89.266       43.917      777.489     7968.349     1928.685        0.625        0.534       40.152       55.734        1.927      330.889       -1.449      849.009
12/07/2013  01:01:00       -1.626      -79.484       -1.488       45.721       42.348       33.492     2090.408     1793.395     1121.706        0.566        0.250       79.501       17.782        0.050      330.990       -1.283      849.090
12/07/2013  01:02:00       18.721       47.727       86.640       60.510       96.331       99.883     3661.517     9279.727     9976.532        1.652        1.146       51.268       93.467        3.324      330.961       -1.331      849.043
12/07/2013  01:03:00       47.177        7.414       80.480       62.099      125.396       72.840     3856.277    15724.227     5305.619        1.682        1.244       47.756       81.992        2.948      330.830       -1.546      849.007
12/07/2013  01:04:00      159.963     -137.446      -22.720       64.406       82.869       40.754     4148.128     6867.190     1660.868        2.883        0.634      210.902       39.612        0.035      330.823       -1.559      849.094
12/07/2013  01:05:00      102.254      -56.066        9.538       84.450       98.817       66.535     7131.800     9764.803     4426.971        1.750        1.066      116.616       75.716        0.422      330.811       -1.579      849.118
12/07/2013  01:06:00       66.491      -82.367        1.623       43.743       39.759       32.008     1913.436     1580.754     1024.512        0.786        0.226      105.855       23.354        0.049      330.886       -1.453      849.097
12/07/2013  01:07:00       16.199       37.923       18.339       19.889       28.859       31.908      395.574      832.853     1018.103        0.214        0.112       41.238        7.175        0.030      330.848       -1.516      849.083
12/07/2013  01:08:00       14.450       39.081       -1.241       24.228       37.463       16.529      586.983     1403.468      273.212        0.200        0.113       41.666       19.462        0.218      330.781       -1.627      849.105
12/07/2013  01:09:00       20.403      -10.288       30.145       30.545       75.242       30.131      933.025     5661.300      907.896        0.447        0.375       22.850       15.429        0.456      330.892       -1.445      849.116
12/07/2013  01:10:00      -20.413       63.786       -4.193       27.213       41.957       23.774      740.553     1760.411      565.224        0.378        0.153       66.973       18.065        0.073      330.833       -1.541      849.130
12/07/2013  01:11:00      -33.144       79.568       -3.709       32.867       45.825       22.268     1080.256     2099.955      495.842        0.556        0.184       86.195       23.828        0.076      330.851       -1.511      849.162
12/07/2013  01:12:00      -38.811       64.640        0.972       16.461       25.257       21.429      270.962      637.908      459.193        0.353        0.068       75.397       16.135        0.046      330.807       -1.585      849.208
12/07/2013  01:13:00      -42.398       35.900       -2.970       16.276       28.393       17.897      264.921      806.152      320.311        0.224        0.070       55.555       14.228        0.066      330.773       -1.640      849.231
12/07/2013  01:14:00      -29.646        9.802       10.508       16.886       15.569       13.558      285.135      242.378      183.823        0.090        0.036       31.224        7.976        0.065      330.877       -1.468      849.252
12/07/2013  01:15:00      -19.156       10.500       15.564       14.797       11.992        9.679      218.949      143.807       93.691        0.059        0.023       21.844        5.428        0.062      330.907       -1.419      849.255
12/07/2013  01:16:00      -31.112       23.598        0.110       22.091       27.777       11.583      487.991      771.562      134.165        0.146        0.070       39.049        9.501        0.059      330.773       -1.640      849.251
12/07/2013  01:17:00      -75.299        8.068       -7.904       22.374       27.533        8.576      500.611      758.078       73.551        0.356        0.067       75.730        4.858        0.004      330.756       -1.668      849.265
12/07/2013  01:18:00      -86.830      -12.759       -6.580       28.580       23.191       18.087      816.837      537.804      327.141        0.471        0.084       87.762       15.351        0.031      330.793       -1.606      849.268
12/07/2013  01:19:00     -118.281       10.759      -13.319       25.589       18.506       11.588      654.812      342.479      134.281        0.771        0.057      118.770       10.906        0.008      330.745       -1.686      849.252
12/07/2013  01:20:00      -45.156       32.639        6.503       22.535       21.127       14.317      507.840      446.361      204.981        0.215        0.058       55.717       12.693        0.052      330.764       -1.656      849.227
12/07/2013  01:21:00      -26.156       47.309        1.235       28.175       30.913       16.488      793.854      955.592      271.848        0.247        0.101       54.058       11.175        0.043      330.858       -1.500      849.166
12/07/2013  01:22:00       40.113      140.096      -21.822       22.545       26.933       18.508      508.283      725.367      342.547        1.164        0.079      145.725       14.295        0.010      330.733       -1.706      849.135
12/07/2013  01:23:00       18.758       79.616      -13.436       40.140       45.306       27.040     1611.232     2052.603      731.139        0.563        0.220       81.796       23.416        0.082      330.700       -1.758      849.149
12/07/2013  01:24:00        8.891       63.967      -12.146       21.357       22.875       12.546      456.122      523.275      157.401        0.273        0.057       64.582       10.804        0.028      330.683       -1.786      849.191
12/07/2013  01:25:00     -112.495      -48.568       -4.168       24.218       25.861       15.949      586.500      668.814      254.357        0.827        0.075      122.532       11.890        0.009      330.721       -1.725      849.229
12/07/2013  01:26:00       -0.367      -23.632        5.664       29.818       24.054       17.990      889.126      578.608      323.623        0.119        0.090       23.634       15.307        0.419      330.876       -1.470      849.220
12/07/2013  01:27:00      -50.220       -7.169       -1.967       20.356       13.152       12.472      414.353      172.968      155.550        0.166        0.037       50.729        6.211        0.015      330.732       -1.708      849.175
12/07/2013  01:28:00      -41.644       11.115        0.713        8.797        7.655        6.612       77.393       58.605       43.717        0.102        0.009       43.102        3.159        0.005      330.733       -1.706      849.158
12/07/2013  01:29:00      -47.464       23.433       -3.218       14.187       14.722       13.447      201.266      216.728      180.824        0.171        0.030       52.933       12.398        0.055      330.713       -1.737      849.165
12/07/2013  01:30:00      -45.221       23.604        7.626       27.942       16.319       12.992      780.741      266.309      168.793        0.194        0.061       51.011       11.193        0.048      330.728       -1.714      849.180
12/07/2013  01:31:00      -90.973       24.625       -4.227       11.628       13.665       10.913      135.216      186.719      119.088        0.467        0.022       94.247        6.670        0.005      330.680       -1.790      849.160
12/07/2013  01:32:00      -79.336       22.806       -1.673       16.742       14.306       11.706      280.302      204.675      137.032        0.372        0.031       82.549        6.925        0.007      330.706       -1.749      849.143
12/07/2013  01:33:00      -88.894       44.899       -8.237       30.694       18.964       16.151      942.093      359.626      260.866        0.577        0.078       99.589        9.254        0.009      330.753       -1.672      849.142
12/07/2013  01:34:00      -85.668       27.338      -12.381       22.019       22.472       13.394      484.841      504.997      179.388        0.470        0.058       89.925        8.897        0.010      330.718       -1.730      849.171
12/07/2013  01:35:00      -40.411       10.587       -4.262       15.710       25.184       13.323      246.818      634.214      177.505        0.141        0.053       41.775       12.160        0.085      330.755       -1.670      849.163
12/07/2013  01:36:00      -48.142       33.903      -12.354       23.691       21.663        9.946      561.287      469.265       98.919        0.237        0.056       58.882        7.418        0.016      330.759       -1.662      849.135
12/07/2013  01:37:00      -69.611       63.003      -18.803       12.763       22.497       15.368      162.892      506.100      236.180        0.504        0.045       93.889       10.522        0.013      330.740       -1.692      849.141
12/07/2013  01:38:00      -34.112       57.876       -5.055       28.377       32.705       20.540      805.229     1069.597      421.878        0.342        0.115       67.180       17.804        0.070      330.782       -1.626      849.151
12/07/2013  01:39:00      -34.299       54.936       -7.557       29.069       39.594       13.509      845.023     1567.691      182.485        0.342        0.130       64.764       18.579        0.082      330.742       -1.691      849.168
12/07/2013  01:40:00      -43.920       51.564       -1.788       18.359       21.647       14.814      337.065      468.608      219.447        0.281        0.051       67.734        7.532        0.012      330.788       -1.615      849.200
12/07/2013  01:41:00        3.254       81.915       -4.685       16.946       32.732       17.181      287.183     1071.360      295.197        0.420        0.083       81.980       20.181        0.061      330.760       -1.661      849.216
12/07/2013  01:42:00       13.677       85.438      -10.203       17.657       32.327       18.036      311.754     1045.058      325.298        0.464        0.084       86.526       19.558        0.051      330.651       -1.839      849.214
12/07/2013  01:43:00       32.105       92.411      -19.375       28.027       39.449       16.441      785.518     1556.218      270.299        0.628        0.131       97.830       16.958        0.030      330.655       -1.833      849.197
12/07/2013  01:44:00       29.918       54.556       -4.868       28.584       29.490       14.980      817.054      869.642      224.398        0.290        0.096       62.221       12.597        0.041      330.624       -1.884      849.171
12/07/2013  01:45:00       42.023       46.695       -1.283       25.631       30.171       17.162      656.943      910.265      294.523        0.290        0.093       62.820       16.449        0.069      330.635       -1.867      849.151
12/07/2013  01:46:00       91.768       48.940        4.034       43.015       23.561       16.964     1850.270      555.112      287.783        0.676        0.135      104.002       16.408        0.025      330.599       -1.924      849.115
12/07/2013  01:47:00      108.569       55.587        3.986       26.409       23.872       20.804      697.430      569.853      432.791        0.830        0.085      121.972        9.879        0.007      330.602       -1.921      849.081
12/07/2013  01:48:00       70.855       44.858        8.909       27.598       22.965       22.415      761.658      527.413      502.410        0.445        0.090       83.861       15.582        0.035      330.603       -1.917      849.113
12/07/2013  01:49:00       47.378       30.571       12.703       18.597       15.013       17.630      345.836      225.396      310.819        0.211        0.044       56.385       11.026        0.038      330.587       -1.945      849.173
12/07/2013  01:50:00        6.703       32.418        1.387       19.470       23.802       11.786      379.081      566.514      138.900        0.109        0.054       33.103       11.041        0.111      330.598       -1.926      849.237
12/07/2013  01:51:00       12.660       68.714       -4.921       15.607       14.373       10.255      243.583      206.576      105.173        0.273        0.028       69.871        8.113        0.013      330.574       -1.966      849.261
12/07/2013  01:52:00       -5.251       60.016       -2.850       18.385       37.150       12.517      337.991     1380.104      156.666        0.276        0.094       60.245       15.498        0.066      330.671       -1.808      849.252
12/07/2013  01:53:00        6.096       61.195       -7.917       21.964       11.683        9.798      482.404      136.493       96.001        0.228        0.036       61.498        1.677        0.001      330.593       -1.933      849.237
12/07/2013  01:54:00      -56.569       48.458      -10.086       26.160       19.352       12.322      684.348      374.484      151.832        0.343        0.061       74.487       11.157        0.022      330.611       -1.905      849.240
12/07/2013  01:55:00      -69.697       77.983      -12.809       15.155       24.034       15.217      229.679      577.646      231.566        0.607        0.052      104.589       12.234        0.014      330.584       -1.948      849.219
12/07/2013  01:56:00      -16.128       99.414       -8.899       28.578       33.118       18.820      816.705     1096.771      354.181        0.624        0.113      100.714       15.603        0.024      330.711       -1.739      849.189
12/07/2013  01:57:00       -4.898       91.947      -13.581       12.801       27.328        5.818      163.870      746.798       33.847        0.480        0.047       92.078        3.801        0.002      330.614       -1.901      849.162
12/07/2013  01:58:00      -44.078       53.712       -4.226       23.397       34.935       19.816      547.405     1220.467      392.659        0.350        0.108       69.482       14.095        0.041      330.801       -1.595      849.160
12/07/2013  01:59:00      -28.699       78.054       -3.422       37.034       29.528       21.062     1371.487      871.894      443.623        0.481        0.134       83.163       19.175        0.053      330.773       -1.639      849.158
12/07/2013  02:00:00        3.674       75.601       -5.867       17.040       24.081       15.462      290.375      579.899      239.058        0.344        0.055       75.690       16.439        0.047      330.700       -1.760      849.134
12/07/2013  02:01:00       21.717      108.364      -13.243       11.661       20.197        7.953      135.970      407.901       63.246        0.650        0.030      110.518        6.946        0.004      330.644       -1.851      849.120
12/07/2013  02:02:00       13.024      107.734      -15.850       21.411       31.161        9.677      458.452      971.010       93.649        0.678        0.076      108.519        3.798        0.001      330.622       -1.888      849.126
12/07/2013  02:03:00       -5.640       81.165       -0.021       16.774       56.190       18.665      281.354     3157.331      348.374        0.520        0.189       81.360       25.848        0.101      330.696       -1.766      849.120
12/07/2013  02:04:00        0.859       14.614        0.549       19.031       19.488       11.864      362.195      379.790      140.750        0.055        0.044       14.639        8.025        0.301      330.605       -1.915      849.095
12/07/2013  02:05:00       -2.836       55.537        2.790       37.024       51.590       22.669     1370.773     2661.517      513.863        0.382        0.227       55.609       28.061        0.255      330.697       -1.764      849.097
12/07/2013  02:06:00       12.255      155.614      -18.974       20.420       26.184       12.193      416.971      685.596      148.680        1.299        0.063      156.096       11.042        0.005      330.535       -2.031      849.066
12/07/2013  02:07:00       15.192      156.243      -23.859       21.498       51.734       17.876      462.185     2676.393      319.536        1.433        0.173      156.979       24.031        0.023      330.589       -1.941      849.000
12/07/2013  02:08:00      -48.359       79.879      -10.991       45.849       62.305       20.344     2102.175     3881.910      413.894        0.762        0.320       93.377       24.939        0.071      330.791       -1.610      849.012
12/07/2013  02:09:00      -89.194       26.671      -16.195       29.914       43.223       18.371      894.852     1868.268      337.511        0.601        0.155       93.096       19.832        0.045      330.636       -1.863      849.078
12/07/2013  02:10:00      -32.257       36.986      -11.113       28.423       35.833       15.905      807.893     1284.030      252.959        0.244        0.117       49.076       17.470        0.127      330.709       -1.744      849.058
12/07/2013  02:11:00       33.697       47.787        7.062       21.906       32.242       16.803      479.882     1039.537      282.329        0.264        0.090       58.473       16.293        0.078      330.705       -1.751      849.034
12/07/2013  02:12:00       47.297       68.822       -4.895       17.748       24.855       18.690      314.990      617.776      349.318        0.414        0.064       83.507       17.855        0.046      330.682       -1.787      849.051
12/07/2013  02:13:00       50.531       40.334       -4.878       22.089       17.619       16.167      487.905      310.444      261.378        0.263        0.053       64.654        8.808        0.019      330.681       -1.790      849.089
12/07/2013  02:14:00       73.651       49.083        7.317       17.510       14.191       20.790      306.614      201.385      432.223        0.441        0.047       88.508        8.724        0.010      330.642       -1.853      849.090
12/07/2013  02:15:00       80.867       34.018       -1.059       34.359       20.661       16.946     1180.512      426.879      287.166        0.480        0.095       87.731        6.747        0.006      330.614       -1.901      849.046
12/07/2013  02:16:00       42.301       23.322       -4.453       20.223       25.315       19.348      408.983      640.850      374.337        0.189        0.071       48.304       12.688        0.069      330.634       -1.864      849.027
12/07/2013  02:17:00       21.062       94.783      -15.886       26.064       59.984       20.940      679.319     3598.060      438.497        0.720        0.236       97.095       30.053        0.096      330.653       -1.839      849.022
12/07/2013  02:18:00      -16.080       73.330      -16.466       34.166       48.037       15.259     1167.315     2307.546      232.842        0.481        0.185       75.072       21.495        0.082      330.707       -1.749      849.026
12/07/2013  02:19:00      -75.686       34.665       -7.962       39.530       38.715       21.446     1562.600     1498.821      459.932        0.526        0.176       83.247       17.311        0.043      330.912       -1.411      849.045
12/07/2013  02:20:00      -54.202       54.858      -12.764       19.001       26.533       18.447      361.038      703.987      340.303        0.376        0.070       77.119       10.367        0.018      330.907       -1.421      849.032
12/07/2013  02:21:00      -58.771       35.536      -15.559       19.859       21.537        8.857      394.399      463.855       78.440        0.295        0.047       68.679        9.465        0.019      330.837       -1.533      849.030
12/07/2013  02:22:00       -7.773       -7.178       -4.796       19.190       15.390        8.900      368.244      236.866       79.214        0.041        0.034       10.580        6.394        0.365      330.904       -1.425      849.004
12/07/2013  02:23:00      -51.246      -44.815        6.392       18.864       17.836       11.534      355.845      318.132      133.031        0.274        0.040       68.078        9.578        0.020      330.959       -1.335      849.043
12/07/2013  02:24:00      -51.409        5.674       -4.889       13.054       11.396       10.091      170.398      129.867      101.821        0.155        0.020       51.721        4.920        0.009      330.876       -1.469      849.046
12/07/2013  02:25:00      -47.475        3.200       -4.213       15.972       18.088       10.087      255.121      327.161      101.745        0.148        0.034       47.582       11.317        0.057      330.952       -1.346      849.019
12/07/2013  02:26:00      -13.610      -34.834        5.159       25.991       41.935       17.634      675.517     1758.530      310.961        0.208        0.137       37.398       11.883        0.101      331.070       -1.153      849.031
12/07/2013  02:27:00      -65.481      -96.698       15.313       57.595       60.038       29.248     3317.215     3604.513      855.475        1.082        0.389      116.783       30.339        0.067      330.964       -1.325      849.052
12/07/2013  02:28:00       41.343      -88.334       -9.317       38.608       35.153       27.782     1490.564     1235.713      771.846        0.655        0.175       97.530       16.625        0.029      331.020       -1.234      849.021
12/07/2013  02:29:00      -34.660      -65.259       -1.354       61.837       29.007       23.910     3823.771      841.427      571.687        0.535        0.262       73.892       18.420        0.062      330.950       -1.348      849.002
12/07/2013  02:30:00      -55.878      -64.701       -3.969       32.557       36.021       20.725     1059.928     1297.489      429.528        0.506        0.139       85.490       20.112        0.055      330.988       -1.287      849.005
12/07/2013  02:31:00      -78.258      -82.183        0.526       34.949       32.166       19.793     1221.398     1034.663      391.771        0.776        0.132      113.483       14.306        0.016      330.946       -1.354      849.025
12/07/2013  02:32:00      -82.917      -76.943       -0.541       43.867       36.239       24.152     1924.352     1313.279      583.328        0.831        0.191      113.117       22.295        0.039      330.960       -1.333      849.033
12/07/2013  02:33:00     -101.060     -100.441       -2.964       38.924       52.790       27.175     1515.080     2786.752      738.508        1.267        0.252      142.483       29.731        0.044      331.014       -1.244      849.042
12/07/2013  02:34:00      -98.938      -66.351       -3.430       39.199       20.409       14.023     1536.533      416.520      196.631        0.818        0.107      119.127        8.806        0.005      331.043       -1.198      849.028
12/07/2013  02:35:00      -98.732      -71.844       -2.082       49.900       54.636       23.613     2489.991     2985.060      557.566        1.047        0.302      122.105       18.376        0.023      331.025       -1.226      849.034
12/07/2013  02:36:00     -122.596     -125.858       10.098       52.721       73.022       29.645     2779.457     5332.259      878.833        1.998        0.450      175.698       32.027        0.033      330.973       -1.311      849.052
12/07/2013  02:37:00     -119.049     -106.672       -1.873       51.178       62.094       26.601     2619.148     3855.726      707.623        1.637        0.359      159.848       23.068        0.021      330.965       -1.324      849.056
12/07/2013  02:38:00     -101.634      -77.459        4.885       38.567       51.052       19.822     1487.400     2606.314      392.929        1.042        0.224      127.787       15.082        0.014      331.017       -1.239      849.036
12/07/2013  02:39:00       12.500     -149.397      -15.553       85.905       80.251       40.465     7379.610     6440.211     1637.386        1.908        0.773      149.919       43.334        0.084      331.233       -0.886      849.001
12/07/2013  02:40:00      -61.262      -71.760       11.193      125.061       64.060       43.050    15640.188     4103.702     1853.322        1.531        1.080       94.353       43.747        0.215      331.228       -0.892      848.956
12/07/2013  02:41:00     -114.547      -55.468        6.934       64.646       64.244       34.479     4179.097     4127.238     1188.792        1.287        0.475      127.270       28.532        0.050      331.027       -1.222      848.968
12/07/2013  02:42:00     -189.319      -72.769        8.921       71.234       64.496       32.142     5074.231     4159.740     1033.077        2.574        0.513      202.823       37.147        0.034      330.991       -1.284      848.991
12/07/2013  02:43:00     -159.657      -70.397       16.270      123.464       76.408       47.630    15243.462     5838.122     2268.659        2.703        1.168      174.488       64.670        0.137      331.142       -1.036      848.965
12/07/2013  02:44:00     -163.115      -82.973       -0.523      113.807       77.711       40.336    12951.997     6039.005     1627.026        2.705        1.031      183.005       52.418        0.082      331.124       -1.066      848.953
12/07/2013  02:45:00     -184.466      -46.753       -0.811       82.222       62.907       27.068     6760.490     3957.280      732.684        2.383        0.573      190.298       27.449        0.021      331.059       -1.171      848.947
12/07/2013  02:46:00     -157.171      -71.322       -2.767       62.559       69.861       28.258     3913.623     4880.536      798.525        1.969        0.480      172.597       29.988        0.030      331.047       -1.192      848.952
12/07/2013  02:47:00     -165.335      -52.811       10.032      101.583       63.225       37.773    10319.032     3997.456     1426.783        2.298        0.787      173.565       37.426        0.046      331.044       -1.197      848.938
12/07/2013  02:48:00     -264.701      -38.996      -12.132      105.056       76.263       35.773    11036.802     5816.057     1279.702        4.493        0.907      267.558       38.006        0.020      331.093       -1.116      848.954
12/07/2013  02:49:00     -175.906     -106.539        7.701      100.530      107.066       50.037    10106.200    11463.042     2503.665        3.321        1.204      205.654       50.447        0.060      331.185       -0.966      848.950
12/07/2013  02:50:00     -171.975      -76.573       18.710      157.296      110.910       58.133    24742.161    12301.033     3379.432        3.810        2.021      188.252       72.934        0.150      331.131       -1.054      848.931
12/07/2013  02:51:00     -212.358      -80.446        0.004       76.314      131.443       45.336     5823.816    17277.354     2055.341        3.836        1.258      227.084       45.961        0.041      331.160       -1.008      848.919
12/07/2013  02:52:00     -220.945      -52.762        0.642      121.098       72.810       52.284    14664.802     5301.305     2733.666        3.715        1.135      227.157       49.091        0.047      331.152       -1.021      848.935
12/07/2013  02:53:00     -195.171      -80.110        6.723       99.853       86.336       50.335     9970.581     7453.889     2533.646        3.225        0.998      210.972       46.792        0.049      331.117       -1.078      848.934
12/07/2013  02:54:00     -218.236      -60.633       -3.707      135.448       85.128       51.612    18346.146     7246.829     2663.845        3.978        1.413      226.503       61.356        0.073      331.102       -1.101      848.948
12/07/2013  02:55:00     -287.427     -130.796        4.593       83.532       75.956       43.412     6977.605     5769.383     1884.605        5.718        0.732      315.787       40.384        0.016      331.115       -1.082      848.959
12/07/2013  02:56:00     -296.990      -70.010      -12.585      121.422      108.129       59.944    14743.282    11691.823     3593.263        6.164        1.501      305.130       59.575        0.038      331.109       -1.090      848.979
12/07/2013  02:57:00     -235.765     -125.170      -12.087      108.312      109.750       51.523    11731.542    12045.052     2654.663        4.891        1.322      266.932       51.333        0.037      331.119       -1.073      848.948
12/07/2013  02:58:00     -212.314      -98.812        8.144      129.496      118.469       58.292    16769.229    14034.803     3397.970        4.455        1.710      234.181       65.638        0.079      331.119       -1.075      848.901
12/07/2013  02:59:00     -263.293      -67.556       -5.134       99.304       79.103       48.388     9861.261     6257.285     2341.351        4.618        0.923      271.821       52.587        0.037      331.074       -1.148      848.933
12/07/2013  03:00:00     -318.837      -34.505      -15.424      106.767       90.689       46.895    11399.141     8224.498     2199.139        6.245        1.091      320.699       49.594        0.024      331.100       -1.106      848.902
12/07/2013  03:01:00     -241.818        6.348       -8.512       90.341       92.543       48.970     8161.578     8564.198     2398.089        3.885        0.956      241.901       38.821        0.026      331.075       -1.147      848.876
12/07/2013  03:02:00     -277.910      -52.484       -5.564      105.005       89.026       59.328    11026.132     7925.711     3519.867        5.124        1.124      282.822       59.056        0.044      331.089       -1.125      848.901
12/07/2013  03:03:00     -277.687     -107.544       16.764      188.628      135.320       74.016    35580.344    18311.616     5478.311        7.415        2.969      297.785       84.673        0.081      331.140       -1.039      848.900
12/07/2013  03:04:00     -306.569     -126.296       13.158      151.504      126.670       70.961    22953.585    16045.193     5035.519        7.706        2.202      331.565       83.038        0.063      331.182       -0.972      848.888
12/07/2013  03:05:00     -298.080     -127.010       -1.121      144.623      105.958       55.565    20915.888    11227.022     3087.470        7.010        1.762      324.011       63.353        0.038      331.134       -1.050      848.910
12/07/2013  03:06:00     -297.979      -29.239       -5.308      116.065       97.846       56.895    13471.139     9573.787     3237.086        5.797        1.314      299.410       62.560        0.044      331.102       -1.102      848.931
12/07/2013  03:07:00     -275.356     -118.787        4.428      106.908      116.160       53.109    11429.298    13493.225     2820.518        5.884        1.387      299.886       48.796        0.026      331.108       -1.094      848.912
12/07/2013  03:08:00     -275.613      -81.381       -2.035      111.857      119.906       57.599    12512.051    14377.470     3317.633        5.639        1.510      287.377       46.482        0.026      331.125       -1.064      848.905
12/07/2013  03:09:00     -225.251     -110.220       13.923      175.892      113.930       71.986    30938.053    12980.001     5181.955        5.608        2.455      250.772       86.980        0.120      331.169       -0.993      848.898
12/07/2013  03:10:00     -344.955     -135.799       -2.292      101.709      119.381       53.224    10344.808    14251.940     2832.771        8.243        1.371      370.722       44.956        0.015      331.148       -1.028      848.895
12/07/2013  03:11:00     -236.791     -112.928       -6.070      106.019       68.916       40.372    11240.020     4749.432     1629.879        4.324        0.881      262.341       31.935        0.015      331.124       -1.066      848.914
12/07/2013  03:12:00     -208.552     -141.046       -5.052      114.471       91.919       51.240    13103.673     8449.131     2625.573        4.379        1.209      251.770       58.017        0.053      331.133       -1.050      848.926
12/07/2013  03:13:00     -158.447      -82.713        7.592      131.644      132.204       72.970    17330.221    17477.908     5324.629        3.606        2.007      178.737       74.109        0.172      331.138       -1.044      848.925
12/07/2013  03:14:00     -263.259     -182.724        5.473      145.299      103.885       59.816    21111.771    10792.162     3578.011        6.910        1.774      320.458       63.589        0.039      331.155       -1.017      848.925
12/07/2013  03:15:00     -219.634     -166.680       -4.949      106.755       81.823       55.008    11396.685     6694.971     3025.870        4.858        1.056      275.720       46.552        0.029      331.153       -1.018      848.929
12/07/2013  03:16:00     -227.488     -161.558        5.583      138.478      103.903       66.755    19176.286    10795.814     4456.281        5.615        1.721      279.019       69.900        0.063      331.174       -0.985      848.931
12/07/2013  03:17:00     -334.068     -170.268       -7.523      162.876      117.506       59.003    26528.553    13807.632     3481.405        9.222        2.191      374.957       64.087        0.029      331.177       -0.980      848.924
12/07/2013  03:18:00     -212.223      -92.064        0.576      132.382       80.226       46.224    17524.869     6436.221     2136.658        3.980        1.305      231.331       47.638        0.042      331.182       -0.972      848.934
12/07/2013  03:19:00     -234.297      -78.530       -1.470       96.418       82.925       52.644     9296.426     6876.550     2771.388        4.000        0.947      247.107       48.843        0.039      331.164       -1.001      848.961
12/07/2013  03:20:00     -198.755      -30.084        2.035       87.534       55.664       50.926     7662.141     3098.433     2593.425        2.688        0.668      201.019       47.111        0.055      331.127       -1.060      848.955
12/07/2013  03:21:00     -196.870      -81.142      -12.907       83.081       67.086       38.142     6902.449     4500.500     1454.814        2.918        0.643      212.937       38.449        0.033      331.113       -1.084      848.953
12/07/2013  03:22:00     -308.940     -210.466      -14.230      143.193       97.029       65.375    20504.318     9414.643     4273.944        8.706        1.710      373.818       74.906        0.040      331.097       -1.110      848.923
12/07/2013  03:23:00     -221.215     -171.565       -8.486      114.565      109.027       52.033    13125.153    11886.790     2707.425        5.308        1.386      279.947       57.016        0.041      331.072       -1.153      848.901
12/07/2013  03:24:00     -209.080     -185.480      -11.844      104.076      115.112       53.919    10831.849    13250.753     2907.308        5.262        1.349      279.494       37.916        0.018      331.041       -1.202      848.916
12/07/2013  03:25:00     -219.219      -84.326        7.076      107.591       95.593       56.616    11575.807     9138.080     3205.321        3.956        1.196      234.878       53.708        0.052      331.015       -1.245      848.926
12/07/2013  03:26:00     -132.777      -46.438       -6.206       85.809       78.500       41.297     7363.154     6162.324     1705.419        1.752        0.762      140.664       46.547        0.110      330.964       -1.326      848.903
12/07/2013  03:27:00     -129.820      -66.728        6.049       64.925       88.310       36.372     4215.294     7798.728     1322.956        1.734        0.667      145.965       29.027        0.040      330.978       -1.304      848.840
12/07/2013  03:28:00     -316.266      -56.735        2.251      257.926       96.524       60.991    66525.782     9316.796     3719.926        9.139        3.978      321.315       97.759        0.093      331.034       -1.214      848.824
12/07/2013  03:29:00     -220.502      -74.685        3.773      165.336       99.663       68.854    27336.127     9932.702     4740.830        4.810        2.100      232.807       80.654        0.120      330.988       -1.289      848.871
12/07/2013  03:30:00     -269.726      -39.646      -13.712       87.385      114.532       46.007     7636.140    13117.546     2116.668        4.869        1.144      272.624       42.441        0.024      330.964       -1.329      848.905
12/07/2013  03:31:00     -315.068       -8.853      -18.192       82.458       81.466       51.263     6799.373     6636.676     2627.916        5.787        0.803      315.192       48.729        0.024      330.943       -1.363      848.884
12/07/2013  03:32:00     -319.650      -78.202      -20.281      121.178      145.858       65.263    14684.000    21274.671     4259.308        7.445        2.011      329.077       63.624        0.037      330.999       -1.273      848.869
12/07/2013  03:33:00     -427.107      -13.519      -26.049      130.512      148.250       65.649    17033.337    21978.056     4309.760       11.329        2.166      427.320       63.584        0.022      331.042       -1.202      848.897
12/07/2013  03:34:00     -307.234      -38.413      -17.049      114.279       82.808       50.742    13059.670     6857.191     2574.771        5.932        1.125      309.626       48.775        0.025      330.901       -1.434      848.910
12/07/2013  03:35:00     -250.392      -15.372      -13.732       64.169       57.670       39.746     4117.685     3325.858     1579.750        3.607        0.451      250.863       40.811        0.026      330.850       -1.517      848.908
12/07/2013  03:36:00     -204.657      -69.898      -12.752       83.149       66.829       41.908     6913.688     4466.052     1756.310        3.003        0.657      216.264       38.043        0.031      330.829       -1.552      848.898
12/07/2013  03:37:00     -133.529      -42.848        9.973       62.862       59.123       37.259     3951.693     3495.566     1388.270        1.430        0.442      140.236       38.749        0.076      330.750       -1.678      848.924
12/07/2013  03:38:00     -106.104      -32.398        1.385       75.922       39.293       29.445     5764.105     1543.906      866.999        1.024        0.409      110.940       35.871        0.105      330.661       -1.824      848.931
12/07/2013  03:39:00     -136.602      -23.167       -7.150       46.872       31.905       20.854     2197.010     1017.921      434.872        1.145        0.182      138.553       17.291        0.016      330.662       -1.820      848.937
12/07/2013  03:40:00     -119.104      -36.948       -3.644       23.845       45.238       18.566      568.605     2046.502      344.698        0.926        0.148      124.703       17.670        0.020      330.649       -1.842      848.930
12/07/2013  03:41:00     -157.157       21.699       -3.801       69.252       63.028       35.051     4795.777     3972.569     1228.547        1.759        0.500      158.648       28.885        0.033      330.763       -1.658      848.914
12/07/2013  03:42:00     -194.205       -9.239       -9.106       82.877       58.598       38.443     6868.543     3433.765     1477.849        2.483        0.589      194.424       42.883        0.049      330.733       -1.707      848.901
12/07/2013  03:43:00     -140.872      -66.257       -5.091       52.011       37.076       31.684     2705.158     1374.595     1003.847        1.467        0.254      155.676       28.606        0.034      330.709       -1.746      848.870
12/07/2013  03:44:00     -177.999      -71.583       -4.296       77.481       65.994       35.703     6003.261     4355.214     1274.698        2.423        0.582      191.854       38.559        0.040      330.695       -1.770      848.886
12/07/2013  03:45:00     -245.920      -25.473       -1.422      128.250       89.807       45.701    16448.017     8065.221     2088.588        4.386        1.330      247.236       48.641        0.039      330.802       -1.594      848.878
12/07/2013  03:46:00     -270.762     -119.301      -18.244       85.321       63.180       42.333     7279.707     3991.721     1792.085        5.047        0.653      295.880       45.378        0.024      330.858       -1.502      848.858
12/07/2013  03:47:00     -118.466      -20.594       -5.917       57.600       54.113       31.544     3317.717     2928.249      994.993        1.087        0.362      120.243       35.209        0.086      330.655       -1.833      848.844
12/07/2013  03:48:00     -115.587      -27.518       -3.381       65.990       45.358       27.123     4354.676     2057.354      735.660        1.064        0.357      118.817       22.246        0.035      330.598       -1.926      848.835
12/07/2013  03:49:00     -181.941      -13.517      -11.374       76.456       38.762       34.780     5845.524     1502.495     1209.679        2.098        0.428      182.443       39.473        0.047      330.661       -1.826      848.837
12/07/2013  03:50:00     -179.997       -8.795       -6.146       84.567       55.777       43.737     7151.603     3111.104     1912.932        2.234        0.609      180.212       43.551        0.058      330.609       -1.911      848.834
12/07/2013  03:51:00     -206.847      -38.538       -1.283       70.913       58.416       39.974     5028.697     3412.378     1597.905        2.715        0.502      210.407       42.945        0.042      330.631       -1.877      848.844
12/07/2013  03:52:00     -218.623      -86.006        0.404      110.294       77.631       36.379    12164.675     6026.503     1323.459        3.735        0.976      234.932       40.726        0.030      330.659       -1.829      848.850
12/07/2013  03:53:00     -194.630      -99.637       -2.102       77.499       64.744       37.659     6006.137     4191.832     1418.172        2.971        0.581      218.651       34.121        0.024      330.683       -1.790      848.875
12/07/2013  03:54:00     -128.030      -56.546        1.231       74.881       70.470       38.171     5607.098     4965.962     1457.033        1.581        0.602      139.961       35.125        0.063      330.607       -1.913      848.898
12/07/2013  03:55:00     -119.626      -49.565      -10.070       49.953       53.590       31.497     2495.263     2871.842      992.040        1.161        0.318      129.488       25.108        0.038      330.588       -1.944      848.898
12/07/2013  03:56:00      -41.910      -19.735       20.054       75.339       61.668       33.572     5675.926     3802.957     1127.081        0.657        0.530       46.324       33.390        0.520      330.542       -2.017      848.862
12/07/2013  03:57:00     -141.784      -54.340        1.700       75.256       53.457       32.836     5663.477     2857.669     1078.218        1.633        0.480      151.840       35.728        0.055      330.454       -2.166      848.882
12/07/2013  03:58:00     -218.361      -25.460        6.581       92.268       55.681       41.576     8513.367     3100.361     1728.605        3.086        0.667      219.841       47.764        0.047      330.453       -2.167      848.889
12/07/2013  03:59:00     -188.619      -40.746        3.569       78.656       71.608       45.257     6186.770     5127.700     2048.217        2.530        0.668      192.970       43.891        0.052      330.486       -2.112      848.933
12/07/2013  04:00:00     -168.804      -39.101        0.181       83.949       71.456       35.554     7047.503     5105.936     1264.112        2.172        0.671      173.274       39.771        0.053      330.534       -2.032      848.948
12/07/2013  04:01:00     -166.898      -99.036        0.021       93.164       61.273       40.611     8679.447     3754.424     1649.226        2.587        0.704      194.070       35.073        0.033      330.543       -2.018      848.980
12/07/2013  04:02:00     -101.305      -12.583        7.114       40.075       41.520       26.878     1606.039     1723.878      722.421        0.726        0.203      102.083       15.742        0.024      330.513       -2.067      848.986
12/07/2013  04:03:00     -186.733      -29.567       -6.515       68.189       54.495       34.347     4649.731     2969.707     1179.711        2.229        0.440      189.060       37.353        0.039      330.464       -2.148      849.028
12/07/2013  04:04:00     -236.977      -62.101        3.000       82.689       95.270       40.857     6837.494     9076.394     1669.295        3.880        0.879      244.979       42.334        0.030      330.558       -1.996      849.051
12/07/2013  04:05:00     -217.054      -59.034       -4.614       77.605       57.425       36.098     6022.558     3297.574     1303.056        3.062        0.531      224.939       34.411        0.023      330.509       -2.076      849.039
12/07/2013  04:06:00     -174.376      -47.390       -4.804       43.023       43.360       26.171     1850.963     1880.085      684.931        1.855        0.221      180.701       17.419        0.009      330.462       -2.151      849.059
12/07/2013  04:07:00     -162.719      -60.455       -1.359       50.021       54.871       32.504     2502.105     3010.842     1056.522        1.835        0.328      173.587       28.437        0.027      330.412       -2.233      849.098
12/07/2013  04:08:00     -193.027      -54.005       -0.039       56.678       46.986       28.903     3212.441     2207.717      835.363        2.321        0.313      200.440       23.093        0.013      330.413       -2.233      849.118
12/07/2013  04:09:00     -168.881        1.199       -2.023       63.196       49.083       36.669     3993.690     2409.144     1344.581        1.814        0.387      168.885       34.530        0.042      330.369       -2.304      849.117
12/07/2013  04:10:00     -204.663      -60.814        0.552       89.296       96.057       48.452     7973.736     9226.980     2347.563        3.256        0.977      213.507       46.754        0.048      330.384       -2.280      849.128
12/07/2013  04:11:00     -267.360      -84.633       -3.334      102.583       64.558       47.852    10523.302     4167.780     2289.832        4.781        0.849      280.436       46.688        0.028      330.369       -2.306      849.125
12/07/2013  04:12:00     -212.378     -110.467       -0.378      102.700       92.646       43.484    10547.230     8583.295     1890.889        3.916        1.051      239.389       52.083        0.047      330.355       -2.329      849.130
12/07/2013  04:13:00     -230.665      -90.588        7.868      111.426       84.780       52.033    12415.716     7187.585     2707.480        4.189        1.116      247.816       46.519        0.035      330.352       -2.334      849.117
12/07/2013  04:14:00     -244.606      -47.418       -5.331      111.040      106.017       58.120    12329.800    11239.658     3377.955        4.452        1.347      249.160       63.588        0.065      330.388       -2.273      849.105
12/07/2013  04:15:00     -333.090     -141.434      -10.562      150.217      128.888       70.801    22565.154    16612.164     5012.801        8.762        2.210      361.874       79.553        0.048      330.469       -2.142      849.094
12/07/2013  04:16:00     -324.576     -100.671       -3.175      138.214      100.977       55.058    19103.088    10196.393     3031.431        7.391        1.617      339.829       61.487        0.033      330.507       -2.078      849.084
12/07/2013  04:17:00     -359.379      -78.413      -17.978       96.890      115.859       51.949     9387.668    13423.310     2698.724        8.056        1.275      367.834       49.816        0.018      330.481       -2.122      849.062
12/07/2013  04:18:00     -219.523      -63.130        3.749       83.305       76.307       44.109     6939.709     5822.728     1945.626        3.345        0.735      228.420       39.755        0.030      330.390       -2.271      849.040
12/07/2013  04:19:00     -172.526      -48.561       -9.758       95.599       64.690       42.324     9139.097     4184.766     1791.342        2.366        0.756      179.230       43.539        0.059      330.361       -2.317      849.009
12/07/2013  04:20:00     -230.182     -107.642        1.123      133.333       69.164       43.289    17777.787     4783.657     1873.942        4.450        1.222      254.108       47.352        0.035      330.392       -2.267      849.002
12/07/2013  04:21:00     -207.105      -69.395        1.983       88.379       73.408       41.048     7810.819     5388.702     1684.925        3.130        0.744      218.422       37.999        0.030      330.336       -2.357      848.991
12/07/2013  04:22:00     -286.013      -24.483      -17.806       89.020       80.844       50.818     7924.562     6535.833     2582.434        4.988        0.852      287.059       51.605        0.032      330.318       -2.390      848.971
12/07/2013  04:23:00     -317.014      -10.427      -23.016       94.507       65.535       47.773     8931.666     4294.795     2282.227        5.832        0.775      317.186       47.865        0.023      330.273       -2.463      848.977
12/07/2013  04:24:00     -261.065      -94.821       -3.832       81.667       68.488       37.044     6669.566     4690.550     1372.238        4.494        0.637      277.752       32.808        0.014      330.256       -2.493      848.988
12/07/2013  04:25:00     -281.106      -61.935        2.373      118.479       91.350       62.826    14037.322     8344.826     3947.098        5.459        1.316      287.849       63.785        0.049      330.290       -2.434      848.994
12/07/2013  04:26:00     -354.746      -76.493       -8.351      166.788      113.860       70.794    27818.109    12964.210     5011.770        8.877        2.290      362.899       67.843        0.035      330.386       -2.278      848.982
12/07/2013  04:27:00     -303.710      -41.172       -4.414      129.569       89.407       58.214    16788.124     7993.685     3388.813        6.106        1.409      306.488       66.643        0.047      330.346       -2.342      848.973
12/07/2013  04:28:00     -279.215      -52.901       -7.657      134.806       94.258       54.707    18172.582     8884.635     2992.905        5.543        1.503      284.182       61.930        0.047      330.342       -2.348      848.951
12/07/2013  04:29:00     -232.862      -76.552        0.646      101.947       95.518       53.572    10393.137     9123.717     2869.936        4.123        1.119      245.122       50.595        0.043      330.268       -2.472      848.948
12/07/2013  04:30:00     -254.321       17.716        7.006      145.604       92.065       54.536    21200.506     8475.936     2974.157        4.884        1.633      254.937       66.444        0.068      330.256       -2.491      848.975
12/07/2013  04:31:00     -274.007      -38.455      -11.038      128.709       81.903       50.217    16565.905     6708.084     2521.734        5.123        1.290      276.692       50.817        0.034      330.256       -2.492      848.997
12/07/2013  04:32:00     -220.248      -53.715       -5.450       86.265       71.141       43.450     7441.585     5061.069     1887.945        3.290        0.720      226.703       44.522        0.039      330.211       -2.565      849.029
12/07/2013  04:33:00     -238.877      -66.637      -12.677       56.859       57.776       38.549     3232.976     3338.022     1485.996        3.486        0.403      247.997       29.152        0.014      330.249       -2.503      849.047
12/07/2013  04:34:00     -261.516      -40.393      -12.475       82.957       71.353       38.198     6881.888     5091.252     1459.085        4.180        0.672      264.617       38.207        0.021      330.145       -2.674      849.063
12/07/2013  04:35:00     -216.626      -53.810       -2.127       92.126       75.587       44.339     8487.254     5713.412     1965.934        3.299        0.808      223.209       45.792        0.042      330.129       -2.699      849.066
12/07/2013  04:36:00     -208.363      -43.332       -8.935       59.058       48.939       33.770     3487.866     2394.999     1140.416        2.620        0.351      212.821       30.909        0.021      330.143       -2.675      849.080
12/07/2013  04:37:00     -231.468      -81.361        0.700       93.125       88.654       43.791     8672.330     7859.535     1917.616        3.932        0.922      245.351       40.253        0.027      330.163       -2.644      849.089
12/07/2013  04:38:00     -244.612      -57.264       -6.953       87.708       70.083       42.037     7692.695     4911.686     1767.078        3.876        0.719      251.226       43.228        0.030      330.147       -2.670      849.088
12/07/2013  04:39:00     -349.124        7.428      -22.440      115.908       80.025       50.479    13434.585     6404.072     2548.104        7.241        1.119      349.203       52.421        0.023      330.142       -2.678      849.086
12/07/2013  04:40:00     -301.330      -39.083      -17.863      112.278      106.994       49.202    12606.435    11447.822     2420.794        5.956        1.324      303.854       50.766        0.028      330.145       -2.671      849.070
12/07/2013  04:41:00     -248.358      -66.436      -11.587      111.492       96.209       54.432    12430.457     9256.244     2962.888        4.543        1.232      257.090       51.641        0.040      330.113       -2.725      849.015
12/07/2013  04:42:00     -288.038      -78.184       -2.505      132.056      104.357       57.649    17438.888    10890.477     3323.405        6.036        1.583      298.460       63.967        0.046      330.220       -2.550      849.039
12/07/2013  04:43:00     -256.429      -77.170      -14.689       83.253       86.783       43.347     6930.986     7531.360     1878.989        4.413        0.817      267.789       31.623        0.014      330.166       -2.637      849.076
12/07/2013  04:44:00     -337.796      -72.269      -22.811       87.625       56.996       41.270     7678.155     3248.597     1703.184        6.624        0.631      345.440       32.057        0.009      330.187       -2.605      849.099
12/07/2013  04:45:00     -317.498      -33.014      -31.107       72.788      101.070       43.198     5298.052    10215.224     1866.050        6.012        0.869      319.210       27.525        0.007      330.199       -2.585      849.152
12/07/2013  04:46:00     -237.992      -94.255       -6.969      115.433       78.353       51.218    13324.731     6139.145     2623.244        4.383        1.104      255.977       43.163        0.028      330.202       -2.581      849.234
12/07/2013  04:47:00     -234.937      -27.483      -10.639       91.788       80.397       44.932     8425.071     6463.599     2018.926        3.648        0.845      236.539       43.771        0.034      330.069       -2.799      849.272
12/07/2013  04:48:00     -250.681      -25.086      -15.216       96.310       72.233       46.882     9275.523     5217.562     2197.930        4.019        0.835      251.933       44.962        0.032      329.900       -3.074      849.279
12/07/2013  04:49:00     -267.805      -16.637      -17.214       93.581       71.373       39.921     8757.485     5094.034     1593.703        4.387        0.772      268.321       43.684        0.027      329.889       -3.094      849.298
12/07/2013  04:50:00     -245.754      -52.602       -4.160       77.710       73.980       45.761     6038.820     5473.045     2094.080        3.839        0.680      251.321       44.626        0.032      329.930       -3.025      849.324
12/07/2013  04:51:00     -191.173      -64.242        4.741       76.961       67.578       38.273     5922.985     4566.748     1464.814        2.632        0.598      201.679       36.658        0.033      329.996       -2.918      849.322
12/07/2013  04:52:00     -270.944      -66.539      -13.436       70.815       64.418       42.636     5014.761     4149.628     1817.862        4.450        0.549      278.995       40.208        0.021      330.053       -2.825      849.344
12/07/2013  04:53:00     -224.270      -59.759       -4.898       87.577       64.154       43.195     7669.668     4115.713     1865.794        3.377        0.683      232.096       43.269        0.035      329.987       -2.932      849.375
12/07/2013  04:54:00     -240.509      -70.994       -6.384       71.498       73.532       39.284     5112.032     5407.024     1543.258        3.749        0.603      250.768       36.196        0.021      330.013       -2.889      849.393
12/07/2013  04:55:00     -247.833      -46.606        2.319       86.467       74.965       43.038     7476.523     5619.771     1852.268        3.927        0.747      252.178       36.403        0.021      330.022       -2.875      849.423
12/07/2013  04:56:00     -239.614      -56.560       -0.715      100.739       69.231       40.930    10148.267     4792.915     1675.242        3.861        0.831      246.199       44.476        0.033      330.046       -2.835      849.459
12/07/2013  04:57:00     -255.620      -74.198       -2.157       99.548       74.398       42.697     9909.823     5535.037     1823.049        4.406        0.863      266.171       35.804        0.018      330.009       -2.896      849.519
12/07/2013  04:58:00     -384.356       -6.056      -33.631      104.012       75.965       49.837    10818.503     5770.747     2483.691        8.398        0.954      384.403       53.449        0.019      330.129       -2.700      849.535
12/07/2013  04:59:00     -397.677      -90.535      -21.215      127.094      125.404       55.183    16152.996    15726.264     3045.164       10.085        1.746      407.853       50.810        0.016      330.150       -2.665      849.601
12/07/2013  05:00:00     -282.669      -75.366        1.627      114.563       93.416       56.675    13124.763     8726.482     3212.085        5.532        1.253      292.544       53.271        0.033      330.078       -2.783      849.656
12/07/2013  05:01:00     -198.003      -21.469       -3.413      133.580      111.237       46.396    17843.624    12373.675     2152.623        3.602        1.618      199.164       45.479        0.052      330.107       -2.735      849.678
12/07/2013  05:02:00     -282.452      -33.088       -2.280      109.168       88.157       56.524    11917.596     7771.711     3195.011        5.188        1.144      284.383       57.554        0.041      330.142       -2.678      849.694
12/07/2013  05:03:00     -288.157      -43.041       -7.241      140.289       97.277       54.315    19680.999     9462.833     2950.081        5.851        1.605      291.353       49.843        0.029      330.210       -2.567      849.701
12/07/2013  05:04:00     -283.758      -68.039      -10.213      100.000       87.170       49.033     9999.992     7598.681     2404.261        5.262        1.000      291.801       47.258        0.026      330.237       -2.523      849.691
12/07/2013  05:05:00     -197.547      -79.506       11.246      170.219       98.878       58.720    28974.342     9776.893     3447.995        4.383        2.110      212.946       77.918        0.134      330.206       -2.572      849.682
12/07/2013  05:06:00     -353.426      -48.765       -4.362      128.049      116.443       63.111    16396.648    13559.065     3983.058        8.062        1.697      356.774       59.465        0.028      330.363       -2.315      849.674
12/07/2013  05:07:00     -370.892      -67.740      -15.203      150.987      101.966       60.252    22796.969    10397.160     3630.276        8.960        1.841      377.028       57.833        0.024      330.376       -2.295      849.661
12/07/2013  05:08:00     -359.407      -94.529      -16.701      181.623      121.889       66.567    32986.922    14857.035     4431.110        9.532        2.614      371.631       76.869        0.043      330.415       -2.230      849.655
12/07/2013  05:09:00     -298.120      -59.047      -10.035       87.827       97.056       50.782     7713.605     9419.848     2578.825        5.608        0.986      303.911       48.592        0.026      330.278       -2.457      849.685
12/07/2013  05:10:00     -284.371      -18.865      -22.470      116.304       73.649       49.260    13526.588     5424.229     2426.532        5.155        1.069      284.996       47.808        0.028      330.234       -2.527      849.718
12/07/2013  05:11:00     -306.481      -68.170      -19.167      109.201      103.349       51.955    11924.936    10681.103     2699.277        6.212        1.265      313.971       51.312        0.027      330.302       -2.415      849.733
12/07/2013  05:12:00     -365.750      -34.465       -5.399      152.723       90.043       65.767    23324.443     8107.699     4325.360        8.537        1.788      367.370       77.614        0.045      330.384       -2.279      849.760
12/07/2013  05:13:00     -312.761     -103.133      -14.876      100.222       82.411       47.632    10044.380     6791.552     2268.802        6.389        0.955      329.326       44.653        0.018      330.375       -2.294      849.768
12/07/2013  05:14:00     -290.857      -50.926       -4.333      145.583       80.570       48.241    21194.271     6491.520     2327.227        5.861        1.501      295.281       54.677        0.034      330.382       -2.284      849.751
12/07/2013  05:15:00     -340.975     -117.364      -15.973      125.374       99.807       55.948    15718.747     9961.389     3130.159        7.955        1.441      360.608       54.696        0.023      330.448       -2.176      849.729
12/07/2013  05:16:00     -343.199      -87.236        0.119      150.804      131.303       75.322    22741.869    17240.394     5673.426        8.552        2.283      354.112       78.553        0.049      330.473       -2.134      849.693
12/07/2013  05:17:00     -321.504     -134.725        9.591      148.637      135.629       75.125    22092.829    18395.313     5643.706        8.386        2.307      348.591       79.592        0.052      330.487       -2.110      849.672
12/07/2013  05:18:00     -468.826      -39.612      -33.142      136.698      121.711       64.671    18686.332    14813.478     4182.322       13.007        1.884      470.496       59.708        0.016      330.518       -2.061      849.658
12/07/2013  05:19:00     -149.114      -78.836        7.260      116.268      111.082       52.176    13518.268    12339.119     2722.385        2.854        1.429      168.671       63.012        0.140      330.455       -2.165      849.637
12/07/2013  05:20:00     -198.914       17.165       -6.556       89.423       60.999       43.169     7996.553     3720.873     1863.566        2.674        0.679      199.653       44.849        0.050      330.397       -2.259      849.645
12/07/2013  05:21:00     -156.499      -14.272        4.627      102.904       81.913       46.005    10589.208     6709.680     2116.505        2.206        0.971      157.148       53.900        0.118      330.390       -2.270      849.656
12/07/2013  05:22:00     -263.750      -65.980       -7.152      109.987       76.610       41.648    12097.106     5869.118     1734.552        4.683        0.985      271.877       43.318        0.025      330.422       -2.219      849.639
12/07/2013  05:23:00     -244.884      -43.723       -2.773      114.568       86.029       54.970    13125.811     7400.907     3021.743        4.271        1.177      248.757       60.882        0.060      330.400       -2.254      849.652
12/07/2013  05:24:00     -262.301      -18.026      -23.804       71.039       63.608       40.892     5046.521     4045.967     1672.124        4.023        0.538      262.920       36.276        0.019      330.394       -2.265      849.675
12/07/2013  05:25:00     -224.187      -24.202        8.241       96.817       76.860       50.672     9373.594     5907.486     2567.671        3.438        0.892      225.490       50.178        0.050      330.347       -2.341      849.695
12/07/2013  05:26:00     -281.917      -97.284      -10.883       92.680       72.455       42.684     8589.666     5249.701     1821.924        5.236        0.783      298.230       42.804        0.021      330.401       -2.252      849.703
12/07/2013  05:27:00     -233.152      -78.916       -0.954      136.074       73.945       55.981    18516.238     5467.905     3133.854        4.385        1.356      246.145       55.494        0.051      330.413       -2.231      849.705
12/07/2013  05:28:00      -93.665      -20.596        6.452       79.012       44.689       38.278     6242.827     1997.132     1465.237        0.947        0.485       95.903       25.841        0.073      330.357       -2.322      849.706
12/07/2013  05:29:00     -191.117      -95.872        2.743       72.436       62.010       43.201     5247.033     3845.231     1866.332        2.834        0.548      213.815       41.069        0.037      330.385       -2.280      849.711
12/07/2013  05:30:00     -128.425      -51.428        6.088       97.997       65.836       36.509     9603.368     4334.347     1332.901        1.722        0.764      138.340       40.401        0.085      330.346       -2.342      849.723
12/07/2013  05:31:00     -137.475      -30.985        3.118       88.863       65.859       39.045     7896.549     4337.446     1524.531        1.681        0.688      140.924       31.805        0.051      330.399       -2.253      849.734
12/07/2013  05:32:00     -164.753      -82.736       -7.773       68.169       52.257       39.028     4647.015     2730.793     1523.192        2.147        0.445      184.360       33.820        0.034      330.382       -2.282      849.742
12/07/2013  05:33:00     -204.915     -148.416       -7.182      100.189      103.850       54.830    10037.917    10784.824     3006.352        4.394        1.191      253.016       50.510        0.040      330.417       -2.226      849.738
12/07/2013  05:34:00     -222.486       -9.325       -4.943       77.270       85.134       41.584     5970.706     7247.857     1729.233        3.228        0.747      222.681       40.359        0.033      330.383       -2.281      849.721
12/07/2013  05:35:00     -188.665     -101.318      -33.938       72.050       53.521       30.956     5191.270     2864.514      958.263        2.801        0.451      214.149       30.021        0.020      330.408       -2.241      849.710
12/07/2013  05:36:00     -142.763      -14.487      -10.675       62.614       54.511       26.105     3920.511     2971.429      681.472        1.414        0.379      143.496       26.484        0.034      330.340       -2.350      849.701
12/07/2013  05:37:00     -232.649      -32.025      -16.832       97.510       72.467       44.202     9508.153     5251.478     1953.851        3.607        0.836      234.843       50.328        0.046      330.373       -2.299      849.703
12/07/2013  05:38:00     -221.210      -17.412      -20.727       57.980       48.908       26.690     3361.628     2392.035      712.358        2.806        0.323      221.894       21.943        0.010      330.286       -2.441      849.699
12/07/2013  05:39:00     -159.894       19.674      -12.533       39.886       42.276       28.181     1590.903     1787.241      794.167        1.514        0.209      161.100       22.618        0.020      330.357       -2.323      849.678
12/07/2013  05:40:00      -64.011       15.643       -1.037       50.314       26.961       21.741     2531.484      726.882      472.657        0.404        0.187       65.895       24.636        0.140      330.318       -2.386      849.681
12/07/2013  05:41:00      -83.670       43.330       -6.310       22.455       31.600       17.449      504.241      998.586      304.460        0.536        0.090       94.224       10.144        0.012      330.200       -2.579      849.704
12/07/2013  05:42:00      -95.314       55.146       -8.609       28.416       26.115       15.630      807.495      681.972      244.300        0.697        0.087      110.117       11.769        0.011      330.198       -2.582      849.721
12/07/2013  05:43:00      -73.180       32.703      -17.822       27.959       43.021       15.898      781.727     1850.787      252.744        0.481        0.144       80.155       18.163        0.051      330.147       -2.668      849.739
12/07/2013  05:44:00      -73.172       -1.667       -7.354       26.885       17.265       15.714      722.816      298.070      246.917        0.334        0.063       73.191        8.041        0.012      330.131       -2.693      849.748
12/07/2013  05:45:00      -45.730       -2.032      -11.385       27.694       27.068       16.347      766.977      732.702      267.216        0.200        0.088       45.775        9.546        0.043      330.046       -2.830      849.765
12/07/2013  05:46:00      -38.049       13.312       11.932       28.348       20.098       26.017      803.618      403.933      676.895        0.183        0.094       40.311       16.821        0.174      330.067       -2.796      849.794
12/07/2013  05:47:00     -100.061      -17.382       -9.742       30.703       38.122       22.520      942.645     1453.303      507.156        0.666        0.145      101.559       11.466        0.013      329.989       -2.925      849.816
12/07/2013  05:48:00      -33.107       -8.208        8.808       36.662       24.381       19.630     1344.094      594.429      385.354        0.178        0.116       34.110       18.970        0.309      330.000       -2.906      849.836
12/07/2013  05:49:00      -70.017       10.770      -14.032       36.423       50.711       21.160     1326.650     2571.621      447.756        0.478        0.217       70.840       10.376        0.021      329.973       -2.952      849.857
12/07/2013  05:50:00      -79.333       45.276      -10.776       36.802       29.201       16.963     1354.365      852.677      287.758        0.548        0.125       91.344        4.903        0.003      329.974       -2.950      849.878
12/07/2013  05:51:00      -57.471       47.790       -4.607       47.855       38.551       24.374     2290.125     1486.174      594.100        0.499        0.219       74.745       28.074        0.141      330.017       -2.879      849.864
12/07/2013  05:52:00      -81.500       99.397      -20.221       47.197       42.684       21.839     2227.527     1821.936      476.963        1.073        0.226      128.538       20.693        0.026      330.085       -2.768      849.859
12/07/2013  05:53:00      -78.548       65.702       -4.591       40.598       64.144       29.668     1648.171     4114.437      880.165        0.857        0.332      102.404       22.717        0.049      329.994       -2.917      849.876
12/07/2013  05:54:00      -65.487       48.970       -8.169       47.799       31.492       27.093     2284.747      991.762      734.005        0.538        0.201       81.771       27.778        0.115      330.059       -2.810      849.885
12/07/2013  05:55:00      -58.588       94.401      -10.482       30.302       40.212       26.835      918.196     1617.020      720.142        0.785        0.163      111.104       17.777        0.026      330.025       -2.866      849.915
12/07/2013  05:56:00     -146.106       23.109      -10.093       54.457       38.960       30.115     2965.605     1517.877      906.931        1.369        0.270      147.923       26.314        0.032      329.940       -3.006      849.951
12/07/2013  05:57:00     -142.070       -6.574       -9.846       27.275       57.317       22.505      743.901     3285.272      506.455        1.243        0.227      142.222        6.605        0.002      329.971       -2.954      850.000
12/07/2013  05:58:00     -129.488      -29.855      -11.994       37.353       43.929       24.805     1395.270     1929.784      615.264        1.087        0.197      132.885       24.434        0.034      329.873       -3.115      850.038
12/07/2013  05:59:00     -143.627       32.095      -19.503       47.802       48.494       26.714     2284.984     2351.694      713.642        1.369        0.268      147.169       26.514        0.032      329.905       -3.065      850.056
12/07/2013  06:00:00      -95.822      -45.694       -0.938       47.421       40.095       23.264     2248.795     1607.626      541.209        0.783        0.220      106.159       23.221        0.048      329.978       -2.943      850.066
12/07/2013  06:01:00      -40.343       -9.631        1.596       24.587       27.420       14.191      604.535      751.833      201.389        0.164        0.078       41.477       10.575        0.065      330.002       -2.902      850.066
12/07/2013  06:02:00      -82.690       -3.520      -11.634       26.365       19.671       16.389      695.092      386.950      268.598        0.417        0.068       82.765       10.445        0.016      329.947       -2.994      850.082
12/07/2013  06:03:00      -37.021      -19.828        5.823       47.112       41.821       22.501     2219.508     1749.002      506.273        0.314        0.224       41.997       29.865        0.506      329.997       -2.912      850.101
12/07/2013  06:04:00      -63.824      -30.653        0.336       27.870       29.238       14.357      776.720      854.846      206.137        0.343        0.092       70.803       13.535        0.037      329.989       -2.928      850.116
12/07/2013  06:05:00      -37.939      -21.755       -2.891       33.350       30.921       22.258     1112.254      956.083      495.422        0.224        0.128       43.734       20.735        0.225      330.029       -2.860      850.127
12/07/2013  06:06:00      -60.243       19.634       -0.525       55.967       33.433       24.231     3132.274     1117.784      587.137        0.443        0.242       63.361       32.143        0.257      330.030       -2.858      850.148
12/07/2013  06:07:00     -163.719       43.350      -21.749       58.559       35.780       23.898     3429.184     1280.239      571.135        1.722        0.264      169.361       26.038        0.024      329.908       -3.062      850.167
12/07/2013  06:08:00      -99.588        9.967       -6.646       40.204       30.378       19.323     1616.356      922.802      373.375        0.649        0.146      100.086       17.982        0.032      329.898       -3.078      850.188
12/07/2013  06:09:00      -61.726        0.374        0.115       39.989       41.496       22.236     1599.130     1721.879      494.461        0.381        0.191       61.727       21.002        0.116      329.917       -3.043      850.190
12/07/2013  06:10:00      -58.144       42.150       -8.349       26.357       41.899       17.486      694.689     1755.559      305.760        0.399        0.138       71.815       14.872        0.043      329.922       -3.035      850.184
12/07/2013  06:11:00      -74.686      107.291      -15.759       42.084       53.392       25.686     1771.025     2850.716      659.782        1.131        0.264      130.727       26.063        0.040      329.930       -3.021      850.184
12/07/2013  06:12:00      -72.449       82.419      -19.818       44.071       34.194       18.164     1942.220     1169.226      329.922        0.794        0.172      109.734       12.651        0.013      329.926       -3.028      850.216
12/07/2013  06:13:00      -17.960      161.576       -7.602       38.112       45.751       32.260     1452.541     2093.125     1040.734        1.554        0.229      162.572       16.726        0.011      329.936       -3.012      850.248
12/07/2013  06:14:00      -46.196      113.191       -1.002       38.591       82.273       27.218     1489.249     6768.903      740.794        1.197        0.450      122.254       29.249        0.057      330.005       -2.900      850.261
12/07/2013  06:15:00      -17.254      157.602      -21.602       23.945       28.934       17.812      573.352      837.174      317.261        1.366        0.086      158.543       10.296        0.004      329.822       -3.198      850.262
12/07/2013  06:16:00      -22.221      153.001      -15.440       33.093       37.617       21.677     1095.152     1415.011      469.899        1.356        0.149      154.606       17.841        0.013      329.845       -3.162      850.273
12/07/2013  06:17:00      -42.767       59.422        2.593       60.783       36.750       26.863     3694.627     1350.575      721.631        0.557        0.288       73.212       28.165        0.148      329.910       -3.055      850.302
12/07/2013  06:18:00      -81.509       84.853      -25.659       27.160       38.904       20.562      737.673     1513.530      422.796        0.859        0.134      117.659       17.518        0.022      329.831       -3.184      850.323
12/07/2013  06:19:00       -7.323      101.918      -10.632       20.169       65.217       21.005      406.784     4253.285      441.206        0.783        0.255      102.181       31.426        0.095      329.843       -3.163      850.313
12/07/2013  06:20:00       -7.020      199.785      -29.270       28.041       36.450       14.492      786.276     1328.630      210.012        2.157        0.116      199.908        9.080        0.002      329.739       -3.337      850.294
12/07/2013  06:21:00       31.238      151.542      -12.507       44.352       70.361       35.260     1967.138     4950.736     1243.294        1.613        0.408      154.728       41.445        0.072      329.750       -3.318      850.272
12/07/2013  06:22:00       22.166      138.768      -15.888       29.917       60.715       29.469      895.035     3686.355      868.428        1.272        0.272      140.527       34.159        0.059      329.722       -3.363      850.264
12/07/2013  06:23:00       13.566       71.505       -4.333       31.806       34.663       22.824     1011.630     1201.539      520.923        0.402        0.137       72.781       20.840        0.082      329.699       -3.400      850.314
12/07/2013  06:24:00       38.063       76.962       -1.069       40.867       39.541       24.676     1670.073     1563.515      608.906        0.561        0.192       85.860       17.787        0.043      329.668       -3.450      850.360
12/07/2013  06:25:00       64.719       48.079        2.551       54.171       37.757       32.830     2934.546     1425.566     1077.797        0.597        0.272       80.623       18.121        0.051      329.636       -3.501      850.372
12/07/2013  06:26:00       73.725       63.726        2.278       38.439       33.739       26.547     1477.521     1138.343      704.728        0.641        0.166       97.449       21.031        0.047      329.639       -3.498      850.373
12/07/2013  06:27:00       54.740       74.044        0.093       31.832       32.987       28.633     1013.280     1088.159      819.833        0.570        0.146       92.081       23.734        0.066      329.608       -3.548      850.368
12/07/2013  06:28:00       31.104       59.300       -3.031       24.305       35.396       24.705      590.732     1252.897      610.328        0.347        0.123       66.962       20.083        0.090      329.585       -3.588      850.385
12/07/2013  06:29:00      105.650       62.686        3.339       30.570       31.526       32.274      934.517      993.904     1041.583        0.904        0.149      122.847       22.870        0.035      329.606       -3.551      850.395
12/07/2013  06:30:00       51.835       52.944        3.168       45.806       37.352       25.669     2098.209     1395.192      658.885        0.483        0.208       74.094       24.971        0.114      329.588       -3.583      850.394
12/07/2013  06:31:00       24.661       44.363        5.874       22.988       20.573       17.770      528.449      423.253      315.781        0.194        0.063       50.757        9.753        0.037      329.593       -3.573      850.392
12/07/2013  06:32:00       26.700       33.309        0.973       35.063       39.949       19.776     1229.435     1595.919      391.094        0.252        0.161       42.690        9.210        0.047      329.598       -3.566      850.388
12/07/2013  06:33:00       32.773      100.270      -18.750       20.390       19.637       17.392      415.743      385.608      302.464        0.629        0.055      105.490       13.682        0.017      329.569       -3.615      850.380
12/07/2013  06:34:00       15.968      132.267      -23.154       22.634       47.046       15.043      512.279     2213.289      226.299        1.062        0.148      133.228       13.777        0.011      329.589       -3.585      850.404
12/07/2013  06:35:00        1.491       90.278       -5.098       47.005       52.753       26.925     2209.424     2782.924      724.945        0.695        0.286       90.290       26.407        0.086      329.730       -3.350      850.421
12/07/2013  06:36:00       23.787       92.779       -7.061       30.984       46.770       25.612      960.018     2187.412      655.990        0.651        0.190       95.780       22.875        0.057      329.597       -3.567      850.428
12/07/2013  06:37:00       46.145       96.081      -11.682       35.291       79.686       30.079     1245.433     6349.890      904.763        1.000        0.425      106.588       39.477        0.137      329.614       -3.539      850.443
12/07/2013  06:38:00      -10.485      183.012      -29.386       37.924       50.591       21.689     1438.239     2559.495      470.397        1.947        0.223      183.312       25.268        0.019      329.646       -3.487      850.492
12/07/2013  06:39:00      -20.126      206.834      -20.158       40.203       44.310       27.928     1616.307     1963.387      779.951        2.397        0.218      207.811       19.918        0.009      329.670       -3.448      850.519
12/07/2013  06:40:00       10.335      209.206      -20.503       47.769       71.161       34.394     2281.850     5063.818     1182.916        2.641        0.426      209.462       39.048        0.035      329.649       -3.484      850.518
12/07/2013  06:41:00      -56.460      170.073      -22.790       43.775       47.700       27.631     1916.251     2275.284      763.499        1.879        0.248      179.200       25.661        0.021      329.794       -3.246      850.531
12/07/2013  06:42:00      -35.177      206.204      -19.275       47.808       47.892       28.142     2285.629     2293.685      791.985        2.475        0.269      209.183       26.811        0.016      329.726       -3.357      850.534
12/07/2013  06:43:00      -31.337      223.693      -31.841       37.580       40.283       22.089     1412.246     1622.727      487.922        2.778        0.176      225.877       15.495        0.005      329.689       -3.419      850.531
12/07/2013  06:44:00      -64.002      146.161      -17.270       50.720       44.206       31.227     2572.513     1954.177      975.111        1.563        0.275      159.560       24.364        0.023      329.925       -3.029      850.566
12/07/2013  06:45:00      -54.097      139.025       -9.906       45.904       57.995       35.835     2107.167     3363.440     1284.165        1.455        0.338      149.179       28.482        0.036      329.807       -3.223      850.610
12/07/2013  06:46:00      -12.814       66.443        0.897       26.790       67.730       23.278      717.720     4587.322      541.861        0.521        0.292       67.667       27.320        0.163      329.815       -3.211      850.628
12/07/2013  06:47:00        8.247       47.175        0.757       26.010       49.692       22.143      676.537     2469.322      490.320        0.296        0.182       47.890       23.789        0.247      329.764       -3.295      850.635
12/07/2013  06:48:00       27.414       49.174       -6.500       24.523       34.024       24.429      601.363     1157.618      596.799        0.278        0.118       56.300       16.367        0.085      329.654       -3.474      850.599
12/07/2013  06:49:00        1.426       18.260       -2.823       29.982       28.723       19.935      898.907      825.020      397.385        0.123        0.106       18.315       19.877        1.178      329.648       -3.483      850.589
12/07/2013  06:50:00      -12.775       24.810       -2.599       45.699       30.237       24.481     2088.438      914.306      599.323        0.219        0.180       27.906       18.719        0.450      329.743       -3.327      850.613
12/07/2013  06:51:00      -64.891       11.234        5.414       70.378       26.042       21.694     4953.107      678.202      470.647        0.523        0.305       65.856       34.980        0.282      329.763       -3.295      850.635
12/07/2013  06:52:00      -88.377       40.995      -18.673       35.232       31.225       20.572     1241.279      975.019      423.227        0.624        0.132       97.422       23.182        0.057      329.646       -3.485      850.676
12/07/2013  06:53:00      -89.001      -37.333       -9.291       66.032       29.309       21.666     4360.272      859.023      469.423        0.754        0.284       96.514       21.712        0.051      329.747       -3.322      850.710
12/07/2013  06:54:00     -120.559      -20.275       -3.167       21.980       20.757       18.219      483.134      430.839      331.934        0.810        0.062      122.252       15.977        0.017      329.718       -3.368      850.731
12/07/2013  06:55:00      -88.257      -18.185       -8.043       40.004       33.352       20.786     1600.301     1112.388      432.073        0.566        0.157       90.111       22.781        0.064      329.703       -3.394      850.753
12/07/2013  06:56:00     -153.289       72.803      -19.339       56.527       36.499       24.241     3195.308     1332.168      587.627        1.714        0.256      169.700       27.301        0.026      329.718       -3.370      850.785
12/07/2013  06:57:00      -55.131      110.567       -8.032       53.526       50.377       29.332     2865.001     2537.861      860.355        1.079        0.313      123.549       24.975        0.041      329.782       -3.263      850.786
12/07/2013  06:58:00       39.987      -14.840       27.009       31.614       44.460       21.504      999.436     1976.673      462.404        0.299        0.172       42.652       12.624        0.088      329.925       -3.031      850.773
12/07/2013  06:59:00      -87.367       10.331       -9.159       42.195       29.774       17.591     1780.385      886.511      309.437        0.540        0.149       87.976       19.157        0.047      329.825       -3.195      850.796
12/07/2013  07:00:00     -173.981       15.016      -16.076       35.509       24.115       19.271     1260.873      581.525      371.368        1.648        0.111      174.628       16.671        0.009      329.685       -3.425      850.817
12/07/2013  07:01:00     -122.724       38.735      -20.434       31.500       24.040       22.009      992.220      577.902      484.389        0.952        0.103      128.692       14.399        0.013      329.725       -3.359      850.825
12/07/2013  07:02:00     -105.193       23.972      -11.964       32.406       27.405       17.791     1050.128      751.017      316.523        0.695        0.106      107.890       13.793        0.016      329.696       -3.407      850.808
12/07/2013  07:03:00      -15.003       23.844       18.655       47.234       22.449       31.611     2231.074      503.936      999.254        0.244        0.187       28.172       34.536        1.503      329.743       -3.329      850.776
12/07/2013  07:04:00      -52.184       52.780       -6.928       37.470       44.898       23.782     1403.986     2015.790      565.595        0.477        0.199       74.223       24.547        0.109      329.841       -3.169      850.782
12/07/2013  07:05:00      -56.417       39.912       -2.818       24.731       27.204       23.172      611.621      740.034      536.936        0.334        0.094       69.108        8.182        0.014      329.841       -3.167      850.807
12/07/2013  07:06:00     -106.629        9.629      -12.615       37.703       28.756       18.926     1421.493      826.908      358.194        0.711        0.130      107.063       14.095        0.017      329.770       -3.284      850.831
12/07/2013  07:07:00     -110.870      -15.039      -18.151       39.732       26.234       22.226     1578.661      688.211      494.016        0.780        0.138      111.885       17.787        0.025      329.772       -3.278      850.856
12/07/2013  07:08:00      -96.185       18.958      -10.114       30.242       41.114       19.843      914.599     1690.380      393.753        0.636        0.150       98.036       12.848        0.017      329.784       -3.261      850.879
12/07/2013  07:09:00      -90.791      -26.436       -3.921       39.408       33.748       20.905     1553.023     1138.909      437.006        0.604        0.156       94.561       22.073        0.054      329.827       -3.191      850.903
12/07/2013  07:10:00     -145.267        9.734      -23.104       43.267       28.500       17.540     1872.044      812.226      307.662        1.236        0.150      145.592       19.918        0.019      329.744       -3.327      850.901
12/07/2013  07:11:00     -103.497        2.876       -7.134       25.816       45.434       21.238      666.449     2064.242      451.067        0.698        0.159      103.537        9.226        0.008      329.700       -3.399      850.880
12/07/2013  07:12:00      -67.820       -5.442      -10.426       17.918       19.034        9.283      321.045      362.284       86.182        0.275        0.038       68.038        6.695        0.010      329.721       -3.364      850.867
12/07/2013  07:13:00      -96.997      -14.726       -7.345       30.734       19.118       19.903      944.553      365.499      396.137        0.569        0.085       98.108       17.441        0.032      329.793       -3.245      850.877
12/07/2013  07:14:00     -147.183      -38.582       -8.192       38.547       43.352       24.337     1485.896     1879.412      592.281        1.359        0.198      152.156       14.971        0.010      329.771       -3.284      850.905
12/07/2013  07:15:00     -182.186      -15.313      -21.340       40.951       32.579       21.514     1676.963     1061.421      462.863        1.854        0.160      182.828       19.051        0.011      329.703       -3.396      850.916
12/07/2013  07:16:00     -188.196      -18.935      -23.461       35.920       33.486       18.767     1290.240     1121.342      352.215        1.954        0.138      189.146        9.926        0.003      329.672       -3.446      850.919
12/07/2013  07:17:00     -185.330       -9.813      -16.538       40.733       24.612       20.769     1659.147      605.728      431.339        1.871        0.135      185.590       20.143        0.012      329.634       -3.505      850.903
12/07/2013  07:18:00     -113.994       26.905      -18.118       42.140       35.162       20.156     1775.741     1236.340      406.258        0.873        0.171      117.126        8.242        0.005      329.636       -3.502      850.901
12/07/2013  07:19:00      -59.765       38.163       -7.848       33.996       41.158       30.827     1155.704     1694.007      950.334        0.444        0.190       70.910       12.097        0.029      329.681       -3.428      850.903
12/07/2013  07:20:00     -103.872      -26.277      -20.279       45.766       44.563       31.108     2094.537     1985.904      967.717        0.847        0.252      107.144       14.387        0.018      329.728       -3.353      850.913
12/07/2013  07:21:00     -110.576      -23.888      -15.771       64.998       55.505       26.055     4224.688     3080.775      678.838        1.051        0.399      113.127       29.524        0.068      329.695       -3.407      850.938
12/07/2013  07:22:00      -57.668        5.932       -3.526       25.428       31.307       12.292      646.591      980.137      151.097        0.258        0.089       57.972        8.094        0.019      329.686       -3.423      850.928
12/07/2013  07:23:00     -143.659      -11.038      -25.070       43.239       41.662       20.428     1869.615     1735.686      417.303        1.270        0.201      144.082       12.239        0.007      329.649       -3.482      850.924
12/07/2013  07:24:00     -116.787      -57.648        0.749       72.782       65.710       35.210     5297.213     4317.741     1239.749        1.391        0.543      130.240       37.933        0.085      329.577       -3.599      850.932
12/07/2013  07:25:00     -186.088      -66.123       -4.288       67.289       49.137       36.676     4527.835     2414.432     1345.145        2.365        0.414      197.487       34.126        0.030      329.563       -3.625      850.949
12/07/2013  07:26:00     -155.086       11.045       -6.398       58.070       41.836       38.763     3372.078     1750.268     1502.604        1.542        0.331      155.478       31.608        0.041      329.524       -3.686      850.972
12/07/2013  07:27:00     -136.344       45.786      -10.724       48.300       67.887       22.900     2332.858     4608.655      524.421        1.413        0.373      143.827       22.297        0.024      329.465       -3.783      850.968
12/07/2013  07:28:00     -115.808        4.887      -11.807       47.117       59.858       28.518     2220.000     3582.931      813.263        1.009        0.331      115.911       17.657        0.023      329.497       -3.729      850.972
12/07/2013  07:29:00     -163.121       25.482      -20.524       92.630       70.495       44.866     8580.380     4969.613     2012.929        2.162        0.778      165.100       47.499        0.083      329.415       -3.866      850.993
12/07/2013  07:30:00     -273.114       90.783      -39.724       93.820       75.236       44.268     8802.129     5660.478     1959.673        5.041        0.821      287.807       51.887        0.033      329.336       -3.995      851.002
12/07/2013  07:31:00     -153.782       50.994      -23.996       60.611       51.165       33.395     3673.753     2617.855     1115.239        1.711        0.370      162.016       22.410        0.019      329.372       -3.937      850.998
12/07/2013  07:32:00     -126.984      -17.286      -15.178       45.615       61.436       31.856     2080.696     3774.325     1014.789        1.176        0.343      128.155       18.986        0.022      329.419       -3.857      851.016
12/07/2013  07:33:00     -133.994       36.104      -15.693       44.940       45.695       28.748     2019.603     2088.037      826.421        1.222        0.247      138.773       21.723        0.025      329.361       -3.955      851.057
12/07/2013  07:34:00     -117.558       42.445      -19.406       46.244       69.988       29.389     2138.491     4898.292      863.692        1.195        0.395      124.986       24.867        0.040      329.389       -3.909      851.069
12/07/2013  07:35:00     -127.746       98.450      -31.198       51.714       77.749       34.732     2674.383     6044.913     1206.295        1.845        0.496      161.281       25.579        0.025      329.352       -3.969      851.070
12/07/2013  07:36:00     -185.438      162.639      -44.850       77.066      103.352       42.674     5939.228    10681.648     1821.078        4.064        0.922      246.655       45.397        0.034      329.337       -3.994      851.093
12/07/2013  07:37:00      -92.453       64.609        1.982      113.273       80.020       46.626    12830.831     6403.278     2174.008        1.706        1.070      112.791       57.368        0.259      329.371       -3.938      851.124
12/07/2013  07:38:00     -204.490      167.984      -35.851       77.700       95.960       63.200     6037.268     9208.351     3994.218        4.528        0.962      264.641       67.212        0.065      329.364       -3.951      851.161
12/07/2013  07:39:00     -125.749      188.442      -20.959       86.718       99.088       60.939     7519.961     9818.439     3713.546        3.640        1.053      226.546       52.519        0.054      329.413       -3.871      851.175
12/07/2013  07:40:00     -162.360       33.887      -18.049       76.054      110.015       36.647     5784.181    12103.195     1343.008        2.353        0.962      165.859       23.204        0.020      329.373       -3.935      851.197
12/07/2013  07:41:00     -205.686      -29.776      -16.961       98.810       84.212       56.295     9763.321     7091.638     3169.170        3.175        1.001      207.830       50.479        0.059      329.352       -3.971      851.220
12/07/2013  07:42:00     -175.889      -32.197      -14.686       90.102       84.094       40.674     8118.348     7071.842     1654.372        2.451        0.842      178.812       21.249        0.014      329.328       -4.010      851.259
12/07/2013  07:43:00     -140.601      -19.528       -7.990       62.713       58.441       32.542     3932.978     3415.307     1058.984        1.431        0.420      141.950       37.299        0.069      329.338       -3.992      851.281
12/07/2013  07:44:00     -112.850       50.197      -13.164       77.160       97.145       51.618     5953.623     9437.179     2664.462        1.674        0.903      123.510       41.810        0.115      329.348       -3.975      851.325
12/07/2013  07:45:00     -108.768        4.383       11.859      107.910       74.361       51.816    11644.591     5529.563     2684.920        1.592        0.993      108.856       59.464        0.298      329.405       -3.881      851.345
12/07/2013  07:46:00     -123.753       -2.712       -4.528       82.818       78.595       50.833     6858.855     6177.189     2584.031        1.548        0.781      123.782       37.865        0.094      329.343       -3.984      851.345
12/07/2013  07:47:00     -174.738      197.138      -31.828      113.483      103.765       56.713    12878.447    10767.234     3216.310        4.863        1.343      263.432       57.905        0.048      329.329       -4.008      851.386
12/07/2013  07:48:00     -309.868      100.995      -45.625      145.861       77.959       45.311    21275.414     6077.620     2053.065        6.885        1.470      325.911       45.239        0.019      329.269       -4.105      851.414
12/07/2013  07:49:00     -279.304       19.169      -27.219       89.766      110.789       49.847     8057.902    12274.292     2484.740        5.096        1.141      279.961       46.594        0.028      329.247       -4.143      851.431
12/07/2013  07:50:00     -120.209      -30.629      -17.677       91.405       51.665       40.570     8354.873     2669.234     1645.886        1.418        0.633      124.050       25.083        0.041      329.306       -4.042      851.411
12/07/2013  07:51:00     -164.962       97.837      -34.943       95.857       68.988       43.341     9188.581     4759.395     1878.465        2.691        0.791      191.793       49.391        0.066      329.292       -4.066      851.434
12/07/2013  07:52:00     -219.076        2.201      -23.668       76.002       74.897       47.408     5776.295     5609.524     2247.482        3.109        0.682      219.087       34.596        0.025      329.271       -4.102      851.436
12/07/2013  07:53:00     -172.729       65.319      -26.614       98.161      121.813       71.977     9635.577    14838.339     5180.701        3.223        1.483      184.667       60.685        0.108      329.316       -4.030      851.456
12/07/2013  07:54:00      -96.292       13.041        1.346       74.235       84.071       43.537     5510.800     7067.863     1895.439        1.196        0.724       97.171       24.836        0.065      329.374       -3.932      851.475
12/07/2013  07:55:00     -166.745       58.911       -5.077      125.389       79.419       56.590    15722.418     6307.373     3202.484        2.826        1.262      176.846       64.320        0.132      329.385       -3.916      851.498
12/07/2013  07:56:00     -142.427      105.341       -8.807      148.605      102.356       79.179    22083.498    10476.676     6269.237        3.514        1.941      177.150       77.613        0.192      329.389       -3.907      851.460
12/07/2013  07:57:00     -181.183      -39.305      -12.198      132.381      129.034       66.501    17524.742    16649.859     4422.353        3.655        1.930      185.397       65.850        0.126      329.477       -3.766      851.444
12/07/2013  07:58:00     -389.318      -60.885      -33.431      124.281      103.944       60.250    15445.772    10804.457     3630.076        9.313        1.494      394.050       51.302        0.017      329.487       -3.749      851.536
12/07/2013  07:59:00     -186.822        7.738      -14.353       74.666       94.505       54.831     5575.080     8931.125     3006.418        2.634        0.876      186.982       33.354        0.032      329.481       -3.760      851.608
12/07/2013  08:00:00     -247.934      -96.806      -21.060       91.815       77.237       47.700     8430.007     5965.489     2275.329        4.398        0.834      266.163       33.281        0.016      329.468       -3.781      851.647
12/07/2013  08:01:00     -206.452      -10.586      -13.770       97.021       60.627       37.903     9413.064     3675.623     1436.609        2.872        0.726      206.724       29.107        0.020      329.538       -3.664      851.646
12/07/2013  08:02:00     -186.160       24.905       -7.962      109.345       60.938       36.096    11956.432     3713.458     1302.888        2.615        0.849      187.819       43.089        0.053      329.586       -3.588      851.648
12/07/2013  08:03:00     -440.486      -75.195      -13.413      149.046      134.259       75.919    22214.768    18025.613     5763.642       12.292        2.300      446.858       72.275        0.026      329.648       -3.486      851.676
12/07/2013  08:04:00     -282.427      -40.199      -19.540      106.270       91.616       54.228    11293.297     8393.456     2940.699        5.219        1.131      285.273       53.860        0.036      329.664       -3.461      851.705
12/07/2013  08:05:00     -189.748      -28.768       -7.323       87.937       92.919       42.568     7732.891     8633.938     1812.059        2.753        0.909      191.917       38.659        0.041      329.685       -3.426      851.750
12/07/2013  08:06:00     -384.750      -95.807       -1.200      150.951      115.190       63.389    22786.095    13268.663     4018.140        9.864        2.004      396.499       62.560        0.025      329.660       -3.467      851.781
12/07/2013  08:07:00     -235.441     -128.769       -9.232      139.917       94.316       58.397    19576.826     8895.479     3410.167        5.198        1.594      268.354       53.321        0.039      329.683       -3.430      851.783
12/07/2013  08:08:00     -172.613      -11.068        3.489      115.417       84.729       54.485    13321.190     7179.075     2968.647        2.669        1.173      172.968       54.653        0.100      329.702       -3.397      851.816
12/07/2013  08:09:00     -330.498      -51.171      -10.056      133.559      129.189       61.340    17838.054    16689.758     3762.562        7.511        1.915      334.436       65.051        0.038      329.628       -3.521      851.836
12/07/2013  08:10:00     -214.351      -38.971       -0.835       97.007       88.252       44.120     9410.451     7788.410     1946.563        3.330        0.957      217.865       45.307        0.043      329.639       -3.501      851.861
12/07/2013  08:11:00     -210.113       29.449       -8.736       86.789       79.310       43.079     7532.252     6290.101     1855.773        3.038        0.784      212.167       40.196        0.036      329.597       -3.568      851.892
12/07/2013  08:12:00     -195.153       -3.385      -17.575      136.515       75.036       36.202    18636.277     5630.401     1310.611        3.199        1.279      195.182       44.336        0.052      329.548       -3.648      851.911
12/07/2013  08:13:00     -330.826      -12.996      -31.197      109.187       85.939       53.635    11921.758     7385.453     2876.691        6.638        1.109      331.082       56.574        0.029      329.362       -3.954      851.902
12/07/2013  08:14:00     -146.945      -56.522       -9.081       84.759       75.797       48.337     7184.045     5745.229     2336.442        2.006        0.763      157.440       47.196        0.090      329.425       -3.850      851.906
12/07/2013  08:15:00     -107.909       21.592        2.830       58.659       71.916       41.968     3440.901     5171.948     1761.335        1.124        0.519      110.048       35.627        0.105      329.401       -3.887      851.919
12/07/2013  08:16:00     -164.092       37.562       -9.968       74.588       69.004       47.265     5563.439     4761.574     2233.966        2.050        0.628      168.336       42.273        0.063      329.271       -4.101      851.934
12/07/2013  08:17:00     -201.531      -27.761      -23.844       57.367       68.327       35.371     3290.917     4668.589     1251.115        2.558        0.461      203.434       24.093        0.014      329.281       -4.087      851.971
12/07/2013  08:18:00     -184.470      -38.069      -18.837       69.719       67.061       39.950     4860.710     4497.181     1595.964        2.339        0.548      188.357       25.345        0.018      329.329       -4.006      852.012
12/07/2013  08:19:00     -228.121      -37.513      -22.325      103.418       77.707       43.550    10695.341     6038.397     1896.630        3.628        0.932      231.185       48.338        0.044      329.229       -4.171      852.056
12/07/2013  08:20:00     -193.272      -43.919      -13.562      150.822       76.656       43.532    22747.290     5876.184     1894.993        3.499        1.526      198.199       61.243        0.095      329.275       -4.095      852.090
12/07/2013  08:21:00     -341.069        2.279      -35.366       82.511       66.407       49.921     6808.059     4409.862     2492.139        6.564        0.686      341.076       46.094        0.018      329.162       -4.283      852.126
12/07/2013  08:22:00     -164.931      -39.464        0.545       84.383       59.632       43.798     7120.563     3556.008     1918.286        2.067        0.630      169.586       46.550        0.075      329.240       -4.153      852.133
12/07/2013  08:23:00     -232.418      -24.385      -19.331       58.508       76.610       37.839     3423.143     5869.040     1431.814        3.285        0.536      233.694       27.408        0.014      329.217       -4.192      852.141
12/07/2013  08:24:00     -197.711      -35.755      -18.410       78.324       80.725       36.673     6134.703     6516.552     1344.941        2.735        0.700      200.918       20.113        0.010      329.267       -4.107      852.141
12/07/2013  08:25:00     -213.561      -60.999       -4.770      105.858       92.187       47.532    11205.959     8498.373     2259.264        3.565        1.098      222.102       41.231        0.034      329.246       -4.142      852.169
12/07/2013  08:26:00     -224.051      -15.669      -12.644       69.906       61.827       42.970     4886.910     3822.573     1846.454        3.058        0.528      224.598       35.545        0.025      329.226       -4.175      852.202
12/07/2013  08:27:00     -197.360      -47.535       -3.823       97.738       82.084       43.596     9552.640     6737.778     1900.625        2.970        0.910      203.004       48.988        0.058      329.287       -4.077      852.194
12/07/2013  08:28:00      -92.155      -50.570        7.145       80.706       60.314       46.507     6513.402     3637.753     2162.855        1.171        0.616      105.119       35.222        0.112      329.349       -3.972      852.176
12/07/2013  08:29:00     -280.488      -90.480      -19.759       70.024       69.076       42.376     4903.375     4771.431     1795.756        4.936        0.574      294.720       14.651        0.002      329.221       -4.186      852.222
12/07/2013  08:30:00     -163.977      -76.689        2.642       80.447       62.415       38.766     6471.778     3895.617     1502.826        2.232        0.594      181.023       35.658        0.039      329.281       -4.085      852.294
12/07/2013  08:31:00     -102.578      -74.926       16.098      107.066       92.796       64.208    11463.068     8611.038     4122.724        2.029        1.210      127.028       52.016        0.168      329.326       -4.010      852.318
12/07/2013  08:32:00     -141.927      -36.607        3.579      100.072       84.974       51.157    10014.378     7220.572     2617.053        2.067        0.993      146.571       47.091        0.103      329.282       -4.083      852.331
12/07/2013  08:33:00     -142.821       67.612       -6.761       67.090       52.263       38.370     4501.097     2731.370     1472.266        1.686        0.435      158.016       30.800        0.038      329.297       -4.059      852.354
12/07/2013  08:34:00     -142.294      -34.796       -2.874       89.911       81.424       41.406     8084.045     6629.848     1714.426        1.894        0.821      146.487       43.080        0.086      329.345       -3.980      852.382
12/07/2013  08:35:00     -282.797      -47.804       -0.145      140.810       93.008       56.128    19827.333     8650.443     3150.370        5.694        1.581      286.809       62.283        0.047      329.251       -4.136      852.423
12/07/2013  08:36:00     -305.696      -72.550       -5.807      123.737       92.350       45.156    15310.748     8528.599     2039.025        6.231        1.294      314.187       44.942        0.020      329.249       -4.140      852.430
12/07/2013  08:37:00     -293.937     -153.988      -22.901       68.138       64.350       44.839     4642.779     4140.925     2010.500        6.071        0.540      331.831       35.511        0.011      329.287       -4.076      852.435
12/07/2013  08:38:00     -280.766      -63.619      -22.468       86.587       90.355       56.228     7497.345     8163.994     3161.546        5.110        0.941      287.884       26.868        0.009      329.321       -4.020      852.460
12/07/2013  08:39:00     -313.365     -108.140      -29.465      104.548      121.507       63.248    10930.304    14763.853     4000.292        7.022        1.485      331.499       32.687        0.010      329.366       -3.947      852.514
12/07/2013  08:40:00     -448.116     -148.420      -26.736      140.711      108.428       66.134    19799.655    11756.596     4373.763       12.973        1.797      472.056       59.714        0.016      329.325       -4.013      852.578
12/07/2013  08:41:00     -315.899      -90.209      -13.593       92.637       92.744       56.381     8581.575     8601.366     3178.866        6.423        1.018      328.527       52.704        0.026      329.367       -3.947      852.609
12/07/2013  08:42:00     -277.749     -120.800       -0.306      149.645       99.422       63.432    22393.491     9884.650     4023.652        6.401        1.815      302.882       62.773        0.043      329.394       -3.903      852.612
12/07/2013  08:43:00     -371.678      -41.926      -24.877      105.568      102.956       66.496    11144.686    10599.975     4421.695        8.334        1.308      374.036       56.685        0.023      329.422       -3.857      852.633
12/07/2013  08:44:00     -403.737     -158.700      -17.170      179.099      166.581       71.902    32076.588    27749.205     5169.943       12.673        3.250      433.808       59.963        0.019      329.470       -3.778      852.645
12/07/2013  08:45:00     -433.850     -133.549      -16.115      215.875      169.052       64.124    46601.917    28578.585     4111.883       14.279        3.965      453.939       72.244        0.025      329.497       -3.734      852.660
12/07/2013  08:46:00     -391.312      -26.697      -23.311      139.603       86.098       66.679    19488.985     7412.925     4446.060        9.286        1.567      392.221       64.869        0.027      329.509       -3.714      852.705
12/07/2013  08:47:00     -427.346     -107.709      -44.043      146.864      127.824       69.140    21568.948    16338.921     4780.373       11.942        2.134      440.710       74.961        0.029      329.476       -3.768      852.722
12/07/2013  08:48:00     -331.578     -125.763      -15.843      146.021      110.482       67.887    21322.195    12206.371     4608.620        8.207        1.907      354.627       64.467        0.033      329.506       -3.718      852.766
12/07/2013  08:49:00     -451.909      -43.734      -24.289      154.324      108.937       68.907    23815.746    11867.374     4748.232       12.357        2.022      454.020       74.103        0.027      329.463       -3.790      852.779
12/07/2013  08:50:00     -473.870      -72.004      -31.733      147.631      104.110       66.897    21795.052    10838.947     4475.202       13.392        1.855      479.309       77.595        0.026      329.451       -3.810      852.779
12/07/2013  08:51:00     -324.273     -129.856      -23.754      131.562       97.043       60.744    17308.456     9417.377     3689.805        7.649        1.521      349.308       47.695        0.019      329.528       -3.684      852.823
12/07/2013  08:52:00     -431.519      -33.650      -37.123      108.840      119.456       60.030    11846.119    14269.796     3603.626       10.921        1.486      432.829       59.432        0.019      329.504       -3.722      852.854
12/07/2013  08:53:00     -391.998     -142.297      -25.378      121.069      133.760       68.432    14657.713    17891.816     4682.921       10.589        1.862      417.027       48.777        0.014      329.539       -3.664      852.847
12/07/2013  08:54:00     -474.899     -120.002      -21.846      179.871      138.012       71.280    32353.637    19047.324     5080.887       14.843        2.824      489.826       63.871        0.017      329.497       -3.734      852.888
12/07/2013  08:55:00     -493.645      -67.209      -46.129      138.748      120.719       65.184    19250.970    14572.989     4248.921       14.419        1.904      498.199       56.587        0.013      329.501       -3.728      852.923
12/07/2013  08:56:00     -402.022      -60.792      -14.592      154.902      134.504       69.945    23994.734    18091.443     4892.235       10.625        2.349      406.593       56.791        0.020      329.516       -3.702      852.919
12/07/2013  08:57:00     -464.455      -61.866      -33.399      159.799      127.199       75.457    25535.629    16179.531     5693.753       13.403        2.370      468.558       76.773        0.027      329.519       -3.698      852.924
12/07/2013  08:58:00     -443.758     -163.619       -9.837      190.264      161.324       82.719    36200.442    26025.329     6842.380       14.641        3.453      472.962       80.113        0.029      329.518       -3.700      852.924
12/07/2013  08:59:00     -373.691      -41.917       -2.577      168.836      111.479       73.850    28505.762    12427.553     5453.884        9.389        2.319      376.035       86.577        0.053      329.555       -3.639      852.950
12/07/2013  09:00:00     -428.992      -30.848      -33.646      163.273      127.310       58.966    26657.947    16207.745     3477.022       11.622        2.317      430.100       73.057        0.029      329.530       -3.679      852.954
12/07/2013  09:01:00     -252.079      -17.712      -10.710      154.483      103.740       57.773    23865.025    10762.075     3337.734        5.096        1.898      252.700       63.771        0.064      329.646       -3.490      852.948
12/07/2013  09:02:00     -250.609      -77.694      -10.815      100.768      101.244       48.028    10154.110    10250.323     2306.683        4.583        1.136      262.376       48.798        0.035      329.661       -3.466      852.972
12/07/2013  09:03:00     -204.547       25.059       -1.899       91.242       90.521       55.267     8325.178     8194.129     3054.480        3.102        0.979      206.076       55.245        0.072      329.696       -3.407      852.999
12/07/2013  09:04:00     -454.345       30.143      -31.493      145.200      114.580       59.980    21083.175    13128.663     3597.580       12.306        1.890      455.344       63.962        0.020      329.575       -3.605      853.007
12/07/2013  09:05:00     -399.889      -68.849      -17.888      135.679      104.682       51.489    18408.698    10958.307     2651.156        9.849        1.601      405.772       58.605        0.021      329.563       -3.625      853.007
12/07/2013  09:06:00     -301.781     -110.142       -2.102      161.951      114.165       67.065    26228.024    13033.606     4497.695        7.347        2.188      321.252       70.867        0.049      329.621       -3.530      853.024
12/07/2013  09:07:00     -392.741     -149.263      -11.138      114.300      107.031       59.356    13064.431    11455.552     3523.165       10.234        1.402      420.148       56.665        0.018      329.631       -3.515      853.041
12/07/2013  09:08:00     -397.631      -92.828      -21.972      108.366       91.104       61.335    11743.236     8299.947     3761.927        9.550        1.190      408.323       56.058        0.019      329.600       -3.566      853.057
12/07/2013  09:09:00     -280.216       11.027      -20.851      138.826      103.940       61.676    19272.736    10803.573     3803.966        5.647        1.694      280.433       61.637        0.048      329.695       -3.411      853.069
12/07/2013  09:10:00     -330.946      -66.398       -8.116      145.240      124.622       61.272    21094.554    15530.693     3754.214        7.718        2.019      337.541       68.561        0.041      329.701       -3.401      853.090
12/07/2013  09:11:00     -396.041     -145.984        3.992      135.781       96.964       53.179    18436.451     9401.959     2828.011       10.442        1.533      422.090       58.548        0.019      329.591       -3.581      853.085
12/07/2013  09:12:00     -268.724      -30.534      -36.051      103.779       81.676       46.164    10770.029     6671.032     2131.158        4.700        0.979      270.453       43.735        0.026      329.702       -3.400      853.108
12/07/2013  09:13:00     -257.372      -51.543      -18.818      111.642       94.220       53.066    12463.989     8877.471     2815.980        4.670        1.208      262.482       53.584        0.042      329.775       -3.278      853.125
12/07/2013  09:14:00     -398.565     -105.279      -20.361      135.149      106.543       66.588    18265.317    11351.479     4434.001       10.219        1.703      412.235       60.915        0.022      329.694       -3.411      853.139
12/07/2013  09:15:00     -469.331     -185.218      -22.890      126.989       95.331       62.241    16126.088     9087.979     3873.952       14.209        1.454      504.557       58.177        0.013      329.723       -3.363      853.168
12/07/2013  09:16:00     -178.639     -119.956       -2.568      207.928      145.688       80.304    43234.185    21225.109     6448.750        5.859        3.545      215.177       86.235        0.161      329.776       -3.276      853.176
12/07/2013  09:17:00      -51.085      -30.538       -0.682      106.440       77.114       50.279    11329.500     5946.521     2527.998        1.167        0.990       59.516       34.636        0.339      329.981       -2.938      853.214
12/07/2013  09:18:00     -127.077      -42.440        6.843      108.245      112.037       72.764    11717.014    12552.186     5294.665        2.377        1.478      133.976       75.802        0.320      329.926       -3.029      853.229
12/07/2013  09:19:00      -75.470      -20.803       23.748       70.592       73.139       40.573     4983.263     5349.297     1646.155        0.933        0.599       78.285       42.942        0.301      330.104       -2.736      853.245
12/07/2013  09:20:00     -144.118      -88.925       -2.220      136.913       71.104       56.349    18745.233     5055.806     3175.159        2.782        1.349      169.345       68.680        0.164      330.123       -2.708      853.270
12/07/2013  09:21:00     -394.307     -132.409      -17.953      131.045      152.393       70.084    17172.747    23223.685     4911.794       10.931        2.265      415.945       61.828        0.022      329.888       -3.094      853.296
12/07/2013  09:22:00     -641.319      -98.704      -45.572      214.779      138.148       87.490    46130.047    19084.807     7654.567       24.798        3.643      648.871       81.204        0.016      329.623       -3.527      853.290
12/07/2013  09:23:00     -485.805      -41.947      -36.602      186.494      195.576       64.018    34779.881    38249.807     4098.262       15.810        3.856      487.612       58.793        0.015      329.593       -3.576      853.313
12/07/2013  09:24:00     -486.576      -32.744      -31.359      279.366      165.830       76.488    78045.613    27499.464     5850.426       17.508        5.570      487.676       76.945        0.025      329.743       -3.331      853.352
12/07/2013  09:25:00     -580.697     -162.590       -6.835      209.001      134.216       90.235    43681.326    18014.027     8142.423       21.675        3.492      603.029       91.400        0.023      329.694       -3.410      853.352
12/07/2013  09:26:00     -535.547      -70.027      -23.804      258.755      177.844       90.728    66954.206    31628.481     8231.582       19.953        5.341      540.106      109.164        0.041      329.681       -3.433      853.383
12/07/2013  09:27:00     -426.604      -81.098      -21.040      211.546      172.225       85.893    44751.862    29661.404     7377.601       13.538        4.090      434.244       86.506        0.040      329.724       -3.362      853.410
12/07/2013  09:28:00     -373.384      -96.782      -20.125      165.764      130.549       67.299    27477.600    17042.979     4529.147        9.911        2.452      385.723       65.736        0.029      329.696       -3.408      853.413
12/07/2013  09:29:00     -309.208      -10.370      -11.746      146.102       99.273       64.619    21345.736     9855.140     4175.659        6.561        1.769      309.382       62.379        0.041      329.727       -3.355      853.412
12/07/2013  09:30:00     -255.681      -12.486        0.431      144.662      116.505       58.560    20927.190    13573.364     3429.249        5.172        1.896      255.985       65.165        0.065      329.789       -3.255      853.423
12/07/2013  09:31:00     -373.725      -88.918      -12.733      141.191       96.124       62.942    19934.788     9239.908     3961.711        9.043        1.657      384.157       59.462        0.024      329.762       -3.299      853.462
12/07/2013  09:32:00     -366.150      -27.055       -0.225      201.365      153.468       76.800    40547.906    23552.550     5898.212       10.238        3.500      367.148       91.496        0.062      329.734       -3.346      853.462
12/07/2013  09:33:00     -417.477      -29.193      -18.891      154.790      125.203       68.929    23960.076    15675.704     4751.254       10.993        2.219      418.497       61.255        0.021      329.653       -3.478      853.495
12/07/2013  09:34:00     -413.758       21.964      -18.672      120.860       99.655       67.980    14607.058     9931.162     4621.275       10.059        1.458      414.341       61.895        0.022      329.620       -3.532      853.491
12/07/2013  09:35:00     -281.889       44.233       21.745      172.025      127.381       98.564    29592.698    16225.829     9714.882        6.870        2.777      285.339       99.883        0.123      329.712       -3.381      853.480
12/07/2013  09:36:00     -242.604     -102.475      -13.467      149.882      124.677       72.212    22464.691    15544.386     5214.603        5.637        2.161      263.359       78.774        0.089      329.634       -3.509      853.491
12/07/2013  09:37:00     -156.634      -30.757        9.219      147.786       73.498       44.609    21840.635     5401.923     1989.949        2.739        1.462      159.625       49.119        0.095      329.716       -3.373      853.484
12/07/2013  09:38:00     -255.389      -46.745       -9.114      130.872      122.702       55.951    17127.384    15055.850     3130.554        5.140        1.766      259.632       61.690        0.056      329.696       -3.407      853.497
12/07/2013  09:39:00     -252.997      -74.258       11.955      153.297      131.596       69.690    23499.895    17317.570     4856.744        5.766        2.284      263.670       86.230        0.107      329.730       -3.352      853.506
12/07/2013  09:40:00     -322.544       49.573      -25.528      205.659       90.638       72.497    42295.638     8215.224     5255.850        8.144        2.788      326.332       97.984        0.090      329.692       -3.413      853.517
12/07/2013  09:41:00     -332.479      -52.542      -11.919      158.606      157.530       61.709    25155.789    24815.609     3807.967        8.360        2.689      336.605       69.447        0.043      329.631       -3.514      853.521
12/07/2013  09:42:00     -428.332      -48.914      -25.163      113.787      115.362       58.734    12947.370    13308.458     3449.741       10.809        1.485      431.116       57.350        0.018      329.565       -3.623      853.532
12/07/2013  09:43:00     -331.861       -8.619      -15.926      122.276       93.207       47.588    14951.416     8687.600     2264.616        6.818        1.295      331.973       50.042        0.023      329.569       -3.615      853.551
12/07/2013  09:44:00     -156.598      -37.768       -0.255      101.956      111.746       43.176    10395.105    12487.089     1864.155        2.534        1.237      161.088       52.786        0.107      329.728       -3.354      853.568
12/07/2013  09:45:00     -204.313      -59.003      -12.304      119.588       80.579       53.037    14301.270     6492.939     2812.924        3.449        1.180      212.662       46.591        0.048      329.701       -3.399      853.589
12/07/2013  09:46:00     -184.961     -115.499        7.015      109.042      100.376       67.533    11890.202    10075.407     4560.729        3.706        1.326      218.061       59.494        0.074      329.678       -3.439      853.603
12/07/2013  09:47:00     -238.770     -142.291       -4.527      160.043      115.024       58.808    25613.663    13230.588     3458.362        5.978        2.115      277.953       72.226        0.068      329.645       -3.491      853.608
12/07/2013  09:48:00     -217.626      -98.771        0.139      125.734      115.692       55.060    15808.995    13384.581     3031.560        4.466        1.611      238.992       61.975        0.067      329.686       -3.424      853.632
12/07/2013  09:49:00     -301.251      -63.669      -14.378       88.108       81.771       45.697     7763.098     6686.553     2088.235        5.577        0.827      307.905       43.153        0.020      329.693       -3.413      853.648
12/07/2013  09:50:00     -188.391      -74.133        5.167      123.390      128.477       59.988    15225.197    16506.448     3598.593        3.816        1.767      202.452       55.779        0.076      329.751       -3.317      853.669
12/07/2013  09:51:00     -260.356      -29.751      -11.601      131.308       89.123       62.412    17241.665     7942.827     3895.294        4.894        1.454      262.051       70.776        0.073      329.701       -3.402      853.688
12/07/2013  09:52:00     -177.188      -20.739       13.301      111.750      100.702       57.726    12488.118    10140.859     3332.316        2.898        1.298      178.397       57.922        0.105      329.796       -3.243      853.694
12/07/2013  09:53:00     -189.094       16.704       -2.266      127.280       68.017       50.477    16200.244     4626.340     2547.962        2.970        1.169      189.830       61.448        0.105      329.777       -3.276      853.729
12/07/2013  09:54:00     -298.169      -81.062      -15.769      164.219      116.189       57.163    26968.022    13499.922     3267.624        6.972        2.187      308.992       67.645        0.048      329.649       -3.484      853.743
12/07/2013  09:55:00     -260.846      -70.338      -14.863      115.190      106.138       53.572    13268.622    11265.350     2869.918        5.030        1.370      270.163       52.856        0.038      329.681       -3.434      853.750
12/07/2013  09:56:00     -158.706      -10.758        3.581      118.424       87.368       60.424    14024.318     7633.223     3651.036        2.531        1.265      159.070       64.192        0.163      329.736       -3.341      853.764
12/07/2013  09:57:00     -298.037      -18.207       -8.190      102.308       67.172       46.276    10466.939     4512.046     2141.504        5.317        0.856      298.593       44.914        0.023      329.674       -3.443      853.803
12/07/2013  09:58:00     -278.621        6.822      -17.354      108.572       82.010       49.418    11787.805     6725.722     2442.165        4.946        1.048      278.704       48.241        0.030      329.628       -3.519      853.824
12/07/2013  09:59:00     -173.096      -15.122       -3.086      100.136      109.120       47.257    10027.223    11907.080     2233.224        2.718        1.208      173.755       44.334        0.065      329.758       -3.306      853.837
12/07/2013  10:00:00     -238.244      -11.460       -5.553       96.922       99.764       55.186     9393.910     9952.927     3045.528        3.965        1.120      238.520       48.410        0.041      329.751       -3.318      853.865
12/07/2013  10:01:00     -273.065     -110.450      -13.127       73.743       71.389       49.296     5438.054     5096.371     2430.046        4.995        0.648      294.557       25.660        0.008      329.669       -3.452      853.880
12/07/2013  10:02:00     -143.811        6.465      -19.979      115.577       82.105       51.562    13358.019     6741.238     2658.600        2.194        1.138      143.957       63.398        0.194      329.724       -3.361      853.917
12/07/2013  10:03:00     -122.555       55.590      -20.793       91.677       94.345       48.845     8404.619     8900.900     2385.842        1.911        0.985      134.574       46.514        0.119      329.693       -3.411      853.927
12/07/2013  10:04:00     -169.787       23.335      -27.349       44.186       77.819       28.808     1952.433     6055.737      829.928        1.948        0.442      171.383       25.280        0.022      329.582       -3.592      853.951
12/07/2013  10:05:00      -93.822       -6.016       -6.213       52.562       57.959       48.495     2762.794     3359.245     2351.718        0.867        0.424       94.015       29.004        0.095      329.749       -3.317      853.940
12/07/2013  10:06:00      -98.839       42.078       -5.577       97.105       91.816       47.244     9429.387     8430.187     2232.042        1.583        1.005      107.423       52.914        0.243      329.675       -3.442      853.938
12/07/2013  10:07:00     -145.451      156.050       -6.561      133.283      101.257       78.779    17764.348    10252.923     6206.099        3.988        1.711      213.325       87.988        0.170      329.443       -3.822      853.919
12/07/2013  10:08:00     -170.762      144.283      -38.762       83.230      101.240       48.586     6927.194    10249.535     2360.618        3.550        0.977      223.556       51.299        0.053      329.421       -3.858      853.907
12/07/2013  10:09:00      -90.719       50.808        1.941       80.271       67.787       46.944     6443.414     4595.115     2203.774        1.203        0.662      103.978       50.801        0.239      329.618       -3.532      853.905
12/07/2013  10:10:00     -108.166      120.510      -17.828       64.994       90.881       47.936     4224.162     8259.409     2297.865        2.066        0.739      161.933       42.595        0.069      329.503       -3.720      853.915
12/07/2013  10:11:00     -140.203       61.759       -8.674       70.773      120.085       39.185     5008.807    14420.353     1535.468        2.225        1.048      153.202       30.958        0.041      329.585       -3.588      853.939
12/07/2013  10:12:00     -144.153       13.019       -3.456       80.646       61.116       44.332     6503.715     3735.186     1965.318        1.658        0.610      144.739       34.710        0.058      329.631       -3.512      853.944
12/07/2013  10:13:00     -136.147      -42.786       -7.175       81.069       63.366       39.201     6572.226     4015.310     1536.705        1.627        0.606      142.712       36.849        0.067      329.777       -3.273      853.930
12/07/2013  10:14:00     -299.028      -41.545      -33.085       82.670       89.077       39.782     6834.365     7934.658     1582.572        5.429        0.818      301.900       31.516        0.011      329.561       -3.628      853.940
12/07/2013  10:15:00     -255.351      -61.784       -7.050       72.889      123.484       43.847     5312.735    15248.361     1922.568        4.577        1.124      262.719       29.734        0.013      329.762       -3.300      853.938
12/07/2013  10:16:00     -186.378      -49.472      -15.928      109.256       88.889       57.493    11936.868     7901.223     3305.472        3.029        1.157      192.833       58.797        0.093      329.790       -3.254      853.941
12/07/2013  10:17:00     -255.039     -101.621      -12.759       92.059       81.773       45.579     8474.812     6686.881     2077.484        4.638        0.862      274.539       39.336        0.021      329.826       -3.195      853.944
12/07/2013  10:18:00     -257.639      -43.904        1.009      115.184       99.140       62.188    13267.442     9828.675     3867.291        4.763        1.348      261.353       59.420        0.052      329.886       -3.097      853.962
12/07/2013  10:19:00     -170.056       -1.266       -9.483      134.482      118.321       56.112    18085.401    13999.750     3148.529        3.212        1.762      170.061       46.472        0.075      330.069       -2.796      853.959
12/07/2013  10:20:00     -128.776      -60.191      -15.636      114.730       68.235       45.635    13162.934     4656.047     2082.533        2.017        0.995      142.148       49.115        0.119      329.999       -2.909      853.942
12/07/2013  10:21:00     -177.579      -37.002       -2.607       73.652       57.094       44.779     5424.671     3259.734     2005.180        2.180        0.534      181.393       48.965        0.073      329.953       -2.986      853.943
12/07/2013  10:22:00      -81.918      -10.973       -3.498       57.367       29.503       29.967     3291.006      870.442      898.034        0.595        0.253       82.650       25.694        0.097      330.130       -2.694      853.943
12/07/2013  10:23:00      -74.440       31.633       -4.024       53.269       64.395       30.960     2837.569     4146.724      958.517        0.725        0.397       80.882       16.184        0.040      330.218       -2.550      853.935
12/07/2013  10:24:00     -226.160      -48.331      -16.880       96.861       88.402       52.867     9382.046     7814.904     2794.870        3.688        1.000      231.266       42.926        0.034      329.943       -3.004      853.941
12/07/2013  10:25:00     -273.871       97.948      -48.735      107.817       85.166       58.108    11624.427     7253.270     3376.553        5.461        1.113      290.859       54.780        0.035      329.625       -3.524      853.938
12/07/2013  10:26:00     -318.057      128.184      -51.300      133.040       90.158       60.930    17699.742     8128.509     3712.428        7.488        1.477      342.916       56.154        0.027      329.465       -3.786      853.938
12/07/2013  10:27:00     -226.812      115.066      -41.904      140.080      116.318       85.314    19622.435    13529.814     7278.405        5.343        2.022      254.330       81.083        0.102      329.523       -3.690      853.922
12/07/2013  10:28:00     -116.870       26.757       -7.994       88.912       78.529       52.979     7905.387     6166.781     2806.751        1.566        0.844      119.894       42.159        0.124      329.625       -3.523      853.921
12/07/2013  10:29:00     -272.949       18.600      -26.474       95.054      151.849       53.273     9035.345    23058.157     2837.966        5.523        1.747      273.582       63.366        0.054      329.397       -3.898      853.921
12/07/2013  10:30:00     -217.803      157.165      -32.787      101.748       87.522       49.834    10352.681     7660.018     2483.464        4.685        1.025      268.587       42.977        0.026      329.354       -3.967      853.930
12/07/2013  10:31:00     -192.050      119.811      -25.508      120.005      199.241       86.931    14401.299    39697.026     7557.045        5.676        3.083      226.357       79.653        0.124      329.351       -3.972      853.920
12/07/2013  10:32:00     -186.435      146.180      -28.063       85.019       95.350       53.246     7228.147     9091.716     2835.145        3.803        0.958      236.911       41.711        0.031      329.306       -4.046      853.899
12/07/2013  10:33:00     -206.562      -34.611      -26.570      110.037      112.977       58.746    12108.158    12763.693     3451.105        3.644        1.416      209.442       32.814        0.025      329.323       -4.018      853.902
12/07/2013  10:34:00     -180.473        6.067      -26.429       68.156       77.026       56.619     4645.304     5932.973     3205.752        2.354        0.689      180.575       24.161        0.018      329.346       -3.981      853.905
12/07/2013  10:35:00     -247.126      121.201      -35.523      127.844      128.989       61.760    16344.121    16638.114     3814.289        5.690        1.840      275.247       55.813        0.041      329.291       -4.070      853.891
12/07/2013  10:36:00     -202.663       95.629      -49.794      137.041      120.497       64.366    18780.344    14519.487     4143.036        4.506        1.872      224.092       76.806        0.117      329.280       -4.087      853.878
12/07/2013  10:37:00     -322.461      117.201      -46.868      161.930      113.670       69.592    26221.266    12920.786     4843.078        8.194        2.199      343.099       44.635        0.017      329.227       -4.175      853.884
12/07/2013  10:38:00     -161.216       37.980        2.223      105.394       86.421       61.903    11107.961     7468.566     3831.996        2.492        1.120      165.630       60.879        0.135      329.364       -3.949      853.893
12/07/2013  10:39:00     -227.508       99.788      -28.181      111.652       85.075       51.848    12466.128     7237.788     2688.163        4.245        1.120      248.430       54.560        0.048      329.310       -4.038      853.895
12/07/2013  10:40:00     -222.604      103.834      -25.320       98.789       82.290       56.345     9759.351     6771.636     3174.788        4.034        0.985      245.630       53.203        0.047      329.350       -3.975      853.895
12/07/2013  10:41:00     -209.128       36.271      -18.441       93.238      119.684       63.166     8693.355    14324.211     3989.959        3.619        1.350      212.250       44.872        0.045      329.357       -3.960      853.894
12/07/2013  10:42:00     -234.367       66.545      -25.366      112.188      104.465       60.005    12586.117    10912.885     3600.640        4.354        1.355      243.632       53.718        0.049      329.324       -4.016      853.901
12/07/2013  10:43:00     -234.024      127.903      -32.561      100.768       95.776       51.474    10154.118     9173.019     2649.572        4.708        1.099      266.695       42.033        0.025      329.420       -3.860      853.925
12/07/2013  10:44:00     -210.679       28.594      -22.163       74.116       90.544       55.050     5493.123     8198.143     3030.520        3.120        0.836      212.610       41.001        0.037      329.438       -3.830      853.940
12/07/2013  10:45:00     -140.866      105.133       -9.321      116.986      119.595       62.688    13685.810    14302.921     3929.737        3.144        1.596      175.773       65.164        0.137      329.514       -3.704      853.948
12/07/2013  10:46:00      -88.763       51.190        1.141       67.731       82.835       42.914     4587.520     6861.676     1841.592        1.189        0.665      102.466       40.307        0.155      329.760       -3.300      853.951
12/07/2013  10:47:00     -134.385      -12.649      -16.106       98.315       66.294       46.986     9665.830     4394.928     2207.717        1.737        0.813      134.979       46.862        0.121      329.712       -3.379      853.962
12/07/2013  10:48:00      -81.143      106.419      -17.252       78.929       68.014       43.418     6229.837     4625.894     1885.135        1.547        0.637      133.826       42.067        0.099      329.753       -3.312      853.981
12/07/2013  10:49:00     -173.993       83.385      -19.548       81.269       82.352       51.195     6604.667     6781.930     2620.915        2.680        0.800      192.943       42.171        0.048      329.542       -3.660      853.974
12/07/2013  10:50:00     -121.958      136.627       -9.406       77.805       74.105       38.200     6053.597     5491.583     1459.225        2.331        0.650      183.141       31.460        0.030      329.615       -3.540      853.972
12/07/2013  10:51:00      -88.846      175.072      -16.136       60.175       62.739       37.166     3621.073     3936.215     1381.281        2.387        0.447      196.326       34.001        0.030      329.682       -3.431      853.964
12/07/2013  10:52:00     -136.107      166.300      -23.950       65.316       89.901       45.924     4266.172     8082.155     2108.985        3.060        0.723      214.897       30.599        0.020      329.600       -3.564      853.974
12/07/2013  10:53:00     -157.466       79.308      -20.038       86.775       94.575       53.056     7529.863     8944.452     2814.947        2.538        0.964      176.311       56.647        0.103      329.658       -3.469      853.993
12/07/2013  10:54:00     -149.518       69.931      -15.880       68.258      104.737       55.506     4659.203    10969.921     3080.948        2.310        0.936      165.064       48.645        0.087      329.695       -3.407      853.989
12/07/2013  10:55:00      -74.453       76.696       -7.911       67.442       83.308       38.925     4548.433     6940.208     1515.153        1.224        0.650      106.890       34.660        0.105      329.679       -3.434      853.986
12/07/2013  10:56:00     -154.449       47.732      -22.925      107.961       70.033       45.405    11655.512     4904.561     2061.612        2.264        0.931      161.657       50.198        0.096      329.614       -3.541      854.000
12/07/2013  10:57:00     -111.992       51.141      -17.955       68.987       66.481       38.050     4759.251     4419.702     1447.770        1.305        0.531      123.116       36.050        0.086      329.672       -3.444      854.020
12/07/2013  10:58:00      -80.771       73.298      -13.628       40.315       62.763       28.736     1625.261     3939.237      825.753        0.924        0.320      109.072       22.533        0.043      329.750       -3.316      854.037
12/07/2013  10:59:00      -91.218        1.872       -6.360       61.015       65.165       41.604     3722.771     4246.536     1730.926        0.903        0.485       91.238       37.720        0.171      329.764       -3.294      854.041
12/07/2013  11:00:00      -36.785       73.416       -7.637       40.031       71.336       25.881     1602.446     5088.871      669.850        0.708        0.368       82.116       15.161        0.034      329.919       -3.039      854.016
12/07/2013  11:01:00     -114.193      184.304      -15.055      102.032       86.602       51.046    10410.568     7499.992     2605.666        3.387        1.026      216.813       48.019        0.049      329.705       -3.393      853.980
12/07/2013  11:02:00      -91.613      196.811      -11.892       91.060       89.843       50.980     8291.982     8071.796     2598.928        3.311        0.948      217.089       55.523        0.065      329.628       -3.518      853.969
12/07/2013  11:03:00     -141.911      154.560      -35.537       60.235       67.014       38.271     3628.196     4490.824     1464.658        2.744        0.479      209.827       36.539        0.030      329.501       -3.727      853.954
12/07/2013  11:04:00      -54.524      132.338      -16.058       60.245       79.543       34.615     3629.498     6327.092     1198.179        1.595        0.558      143.130       31.419        0.048      329.619       -3.530      853.926
12/07/2013  11:05:00     -153.352       78.422      -20.116       75.791       97.758       46.120     5744.252     9556.661     2127.092        2.375        0.871      172.241       40.269        0.055      329.728       -3.355      853.921
12/07/2013  11:06:00      -87.296       10.466       10.775      101.287       56.023       49.532    10259.081     3138.618     2453.388        1.185        0.793       87.921       49.036        0.311      329.779       -3.270      853.909
12/07/2013  11:07:00     -103.767      150.659      -14.306       75.899      107.995       53.509     5760.689    11662.992     2863.253        2.697        1.014      182.937       43.403        0.056      329.729       -3.353      853.884
12/07/2013  11:08:00      -97.969       27.566       24.804       70.875       66.612       44.832     5023.294     4437.197     2009.908        1.122        0.574      101.774       41.754        0.168      329.847       -3.159      853.865
12/07/2013  11:09:00      -97.257       69.818      -19.399       79.577      122.903       40.236     6332.466    15105.118     1618.973        1.888        1.153      119.723       37.453        0.098      329.755       -3.308      853.848
12/07/2013  11:10:00     -134.546        9.383       -7.811      105.250       95.037       41.839    11077.603     9032.030     1750.501        2.005        1.093      134.873       27.316        0.041      329.716       -3.374      853.841
12/07/2013  11:11:00     -210.980       58.869      -22.237       83.860       84.751       54.662     7032.575     7182.669     2987.888        3.283        0.860      219.039       40.503        0.034      329.617       -3.537      853.836
12/07/2013  11:12:00     -112.345        4.780      -17.335       67.569       72.504       49.030     4565.613     5256.887     2403.972        1.258        0.611      112.446       30.431        0.073      329.732       -3.346      853.819
12/07/2013  11:13:00     -141.113       32.427      -20.430       92.655       81.231       57.489     8585.008     6598.486     3305.016        1.993        0.924      144.791       34.363        0.056      329.657       -3.470      853.831
12/07/2013  11:14:00     -172.549       73.337      -10.865      144.409       77.182       58.741    20853.966     5957.047     3450.453        3.276        1.513      187.487       66.630        0.126      329.659       -3.466      853.838
12/07/2013  11:15:00     -201.063       78.733      -29.357       95.659       80.961       49.086     9150.697     6554.648     2409.474        3.280        0.906      215.929       48.112        0.050      329.634       -3.508      853.872
12/07/2013  11:16:00     -158.694      -20.474      -17.374      126.899       97.605       69.608    16103.469     9526.825     4845.317        2.818        1.524      160.010       67.630        0.179      329.707       -3.389      853.878
12/07/2013  11:17:00     -106.194      -17.018        3.100       93.083      123.507       64.978     8664.500    15253.921     4222.086        1.985        1.407      107.549       51.220        0.227      329.709       -3.385      853.886
12/07/2013  11:18:00     -169.965        1.332      -29.931       76.350       75.126       41.054     5829.258     5643.926     1685.412        2.147        0.658      169.970       35.726        0.044      329.687       -3.420      853.900
12/07/2013  11:19:00     -208.627       61.524      -29.517      131.482      133.575       67.533    17287.474    17842.337     4560.666        4.393        1.985      217.510       71.540        0.108      329.702       -3.398      853.908
12/07/2013  11:20:00     -175.572       48.946      -12.694       81.318       82.841       53.842     6612.616     6862.550     2898.968        2.488        0.819      182.267       44.829        0.060      329.708       -3.387      853.919
12/07/2013  11:21:00     -252.435      102.868      -30.209      118.422       81.116       54.122    14023.838     6579.783     2929.174        4.937        1.177      272.590       48.983        0.032      329.671       -3.449      853.924
12/07/2013  11:22:00     -199.639       63.515      -19.130       97.480      121.058       60.211     9502.278    14655.044     3625.332        3.601        1.389      209.499       58.576        0.078      329.693       -3.412      853.915
12/07/2013  11:23:00     -218.617      110.052      -36.817      126.220      116.493       65.765    15931.446    13570.571     4324.977        4.754        1.691      244.754       63.156        0.067      329.722       -3.366      853.911
12/07/2013  11:24:00     -188.066       52.650      -20.466      112.050       91.397       56.423    12555.215     8353.471     3183.542        3.132        1.205      195.297       65.470        0.112      329.792       -3.251      853.911
12/07/2013  11:25:00     -192.615       53.106      -21.971       96.830      135.338       57.138     9376.128    18316.273     3264.780        3.567        1.548      199.802       65.394        0.107      329.794       -3.247      853.910
12/07/2013  11:26:00     -187.151      136.148      -43.671      114.552      121.060       53.124    13122.093    14655.527     2822.156        4.303        1.530      231.434       65.000        0.079      329.750       -3.319      853.899
12/07/2013  11:27:00     -237.305      135.394      -32.473      132.101      148.549       60.616    17450.643    22066.740     3674.338        5.944        2.160      273.213       59.221        0.047      329.730       -3.352      853.895
12/07/2013  11:28:00     -214.484       86.569      -22.142       82.957      107.842       57.897     6881.875    11629.993     3352.035        3.792        1.093      231.295       32.300        0.020      329.751       -3.317      853.896
12/07/2013  11:29:00     -234.709       77.065      -40.655      120.852      102.396       69.457    14605.294    10484.995     4824.280        4.629        1.496      247.037       72.788        0.087      329.780       -3.270      853.903
12/07/2013  11:30:00     -157.966      102.559      -38.738       67.518       83.639       54.713     4558.713     6995.489     2993.485        2.576        0.727      188.339       43.605        0.054      329.740       -3.334      853.923
12/07/2013  11:31:00     -187.640       90.020       -9.771      100.890      170.970       67.133    10178.770    29230.809     4506.884        4.365        2.196      208.117       70.701        0.115      329.795       -3.247      853.919
12/07/2013  11:32:00     -147.856      -17.050        8.353      141.007      114.463       69.673    19883.073    13101.827     4854.384        3.002        1.892      148.836       70.914        0.227      329.882       -3.101      853.922
12/07/2013  11:33:00     -178.839       15.711      -35.330      143.367      133.732       62.073    20554.050    17884.375     3852.997        3.788        2.115      179.527       63.858        0.127      329.750       -3.320      853.911
12/07/2013  11:34:00     -238.399      116.230      -36.795       92.034      122.661       53.725     8470.307    15045.626     2886.361        4.904        1.320      265.224       56.396        0.045      329.712       -3.383      853.896
12/07/2013  11:35:00     -139.015       67.600      -18.862       82.258       83.333       35.519     6766.449     6944.431     1261.590        1.961        0.749      154.580       30.712        0.039      329.731       -3.349      853.874
12/07/2013  11:36:00     -276.960       47.259      -30.951      112.288      102.336       52.556    12608.649    10472.710     2762.106        5.287        1.292      280.963       46.562        0.027      329.683       -3.429      853.866
12/07/2013  11:37:00     -147.028      113.611      -25.414      135.269      100.136       54.843    18297.816    10027.301     3007.755        3.325        1.567      185.808       68.531        0.136      329.794       -3.246      853.852
12/07/2013  11:38:00     -228.749      156.156      -23.641      112.241       97.653       54.132    12598.025     9536.099     2930.261        5.116        1.253      276.967       46.176        0.028      329.745       -3.329      853.850
12/07/2013  11:39:00     -219.145       88.063      -27.431      108.942       76.764       43.751    11868.346     5892.774     1914.178        3.810        0.984      236.177       31.757        0.018      329.719       -3.370      853.852
12/07/2013  11:40:00     -135.226      -15.546      -22.716       68.691       67.435       51.082     4718.417     4547.532     2609.419        1.546        0.594      136.116       30.703        0.051      329.813       -3.214      853.840
12/07/2013  11:41:00     -234.952       60.344      -47.556       60.422       98.110       52.470     3650.765     9625.666     2753.095        3.856        0.801      242.578       49.462        0.042      329.749       -3.322      853.857
12/07/2013  11:42:00     -168.605      -12.506      -17.107       92.035       96.670       51.817     8470.389     9345.094     2685.041        2.468        1.025      169.068       44.131        0.068      329.818       -3.208      853.850
12/07/2013  11:43:00     -165.469      -36.669       -1.502       69.315       87.216       42.531     4804.608     7606.615     1808.856        2.147        0.711      169.483       36.425        0.046      329.927       -3.029      853.844
12/07/2013  11:44:00     -159.794      -54.687       -8.748       65.904       47.934       29.019     4343.273     2297.651      842.077        1.804        0.374      168.893       27.770        0.027      329.937       -3.013      853.826
12/07/2013  11:45:00      -60.314      -10.690        8.476       56.948       34.625       38.226     3243.110     1198.906     1461.202        0.486        0.295       61.254       34.705        0.321      330.245       -2.506      853.794
12/07/2013  11:46:00     -137.605      -60.118        1.757       58.858       58.015       47.011     3464.245     3365.755     2210.063        1.579        0.452      150.164       36.807        0.060      330.096       -2.750      853.794
12/07/2013  11:47:00     -295.785      -22.936      -11.456       73.541      111.325       43.020     5408.292    12393.316     1850.749        5.390        0.983      296.673       32.938        0.012      329.863       -3.135      853.800
12/07/2013  11:48:00     -304.314      -22.719      -21.528       83.712       51.718       44.356     7007.637     2674.799     1967.451        5.262        0.582      305.161       38.590        0.016      329.791       -3.252      853.805
12/07/2013  11:49:00     -131.133      -19.996        4.504       71.615       56.996       32.010     5128.748     3248.546     1024.652        1.351        0.470      132.649       31.111        0.055      330.060       -2.810      853.810
12/07/2013  11:50:00     -111.672      -53.941       10.437       74.322       84.193       46.647     5523.794     7088.470     2175.982        1.514        0.739      124.017       45.112        0.132      330.109       -2.731      853.820
12/07/2013  11:51:00     -296.700     -104.362      -11.363      110.288       91.375       57.969    12163.477     8349.351     3360.438        6.146        1.194      314.520       55.434        0.031      329.870       -3.122      853.827
12/07/2013  11:52:00     -245.059     -134.627       -8.629       98.810       85.811       46.322     9763.489     7363.506     2145.684        4.876        0.964      279.604       44.324        0.025      329.806       -3.228      853.830
12/07/2013  11:53:00     -209.067     -110.229       -7.815      124.721       93.109       49.231    15555.281     8669.253     2423.728        4.128        1.332      236.346       54.833        0.054      329.718       -3.373      853.833
12/07/2013  11:54:00     -303.994     -171.944      -15.619      100.028       73.085       43.834    10005.601     5341.354     1921.442        6.974        0.863      349.253       25.010        0.005      329.697       -3.405      853.826
12/07/2013  11:55:00     -227.062     -185.681       -6.718      121.444      102.900       54.630    14748.700    10588.342     2984.419        5.719        1.416      293.317       51.360        0.031      329.751       -3.317      853.840
12/07/2013  11:56:00     -166.097     -101.464       -4.046       87.845       96.304       47.959     7716.814     9274.440     2300.063        2.859        0.965      194.637       50.503        0.067      329.740       -3.333      853.839
12/07/2013  11:57:00     -290.937     -135.123        1.728      106.424      108.032       54.836    11326.090    11670.839     3006.967        6.445        1.300      320.784       55.430        0.030      329.714       -3.378      853.839
12/07/2013  11:58:00     -196.160      -59.361       -1.714       81.945       76.330       45.440     6714.917     5826.230     2064.750        2.830        0.730      204.945       41.301        0.041      329.747       -3.324      853.863
12/07/2013  11:59:00     -113.303      -65.034        2.488       85.386       73.466       46.133     7290.830     5397.203     2128.212        1.594        0.741      130.640       44.808        0.118      329.922       -3.035      853.844
12/07/2013  12:00:00     -187.723      -83.815        0.676      106.225       88.068       55.999    11283.769     7755.916     3135.871        3.222        1.109      205.585       50.707        0.061      329.806       -3.227      853.838
12/07/2013  12:01:00     -222.196      -57.807      -15.953       90.198       79.692       41.775     8135.672     6350.813     1745.187        3.460        0.812      229.593       38.539        0.028      329.795       -3.247      853.846
12/07/2013  12:02:00     -116.900      -95.976        8.667       78.380       80.648       41.518     6143.459     6504.171     1723.707        1.866        0.719      151.252       39.301        0.068      329.884       -3.100      853.849
12/07/2013  12:03:00     -167.837     -124.154       -2.943      100.962       77.980       54.626    10193.269     6080.910     2984.005        3.142        0.963      208.767       51.586        0.061      329.815       -3.213      853.833
12/07/2013  12:04:00     -165.411     -135.992      -10.923       88.826       74.871       41.483     7889.992     5605.706     1720.873        3.059        0.761      214.137       40.852        0.036      329.860       -3.141      853.831
12/07/2013  12:05:00     -261.635     -222.264      -16.730      138.683      131.043       63.349    19232.990    17172.323     4013.138        7.927        2.021      343.298       70.876        0.043      329.862       -3.138      853.837
12/07/2013  12:06:00     -294.199     -182.995      -12.648      107.076      119.295       50.836    11465.166    14231.363     2584.266        7.423        1.414      346.468       44.915        0.017      329.653       -3.478      853.825
12/07/2013  12:07:00     -179.251      -78.631        4.723      100.756       89.217       45.415    10151.690     7959.627     2062.519        2.925        1.009      195.739       43.807        0.050      329.789       -3.254      853.833
12/07/2013  12:08:00     -190.479      -94.859       -7.417      103.469       95.455       45.842    10705.933     9111.657     2101.467        3.362        1.096      212.792       38.279        0.032      329.817       -3.209      853.836
12/07/2013  12:09:00     -236.465     -181.896       -8.663      128.877      122.175       60.505    16609.337    14926.852     3660.861        6.213        1.760      298.332       42.911        0.021      329.801       -3.236      853.826
12/07/2013  12:10:00     -323.613     -253.387      -12.518      127.674      123.259       67.984    16300.653    15192.677     4621.837       10.259        1.806      411.011       73.322        0.032      329.699       -3.403      853.831
12/07/2013  12:11:00     -268.414     -226.937       -6.347      134.595      115.436       64.656    18115.836    13325.483     4180.337        7.960        1.781      351.491       74.605        0.045      329.679       -3.436      853.828
12/07/2013  12:12:00     -251.647     -124.074       -4.054      131.752       84.339       53.276    17358.672     7113.094     2838.380        5.302        1.366      280.572       62.331        0.049      329.805       -3.231      853.822
12/07/2013  12:13:00     -224.501     -165.781       -5.083      144.535      101.026       65.032    20890.509    10206.330     4229.207        5.661        1.766      279.077       74.400        0.071      329.752       -3.315      853.829
12/07/2013  12:14:00     -206.903     -143.877        3.503      116.282       87.503       48.186    13521.391     7656.800     2321.854        4.351        1.175      252.011       55.245        0.048      329.718       -3.372      853.812
12/07/2013  12:15:00     -122.671      -63.237       -5.579      115.628       66.150       38.451    13369.817     4375.837     1478.474        1.915        0.961      138.011       29.203        0.045      329.857       -3.142      853.804
12/07/2013  12:16:00     -113.130      -96.701       -0.670       72.931       63.622       31.746     5318.944     4047.731     1007.794        1.626        0.519      148.827       20.796        0.020      329.968       -2.962      853.811
12/07/2013  12:17:00     -179.838     -171.316       -1.943      103.232       77.172       46.529    10656.873     5955.533     2164.923        4.023        0.939      248.376       42.916        0.030      329.981       -2.941      853.820
12/07/2013  12:18:00     -231.505     -129.267        0.030      106.684       65.849       43.582    11381.395     4336.045     1899.388        4.396        0.881      265.150       44.492        0.028      329.845       -3.164      853.809
12/07/2013  12:19:00     -103.699        9.289       -5.496       58.005       58.354       36.406     3364.545     3405.176     1325.379        0.948        0.405      104.114       20.423        0.038      329.878       -3.107      853.803
12/07/2013  12:20:00      -69.798        2.800        2.663       45.669       52.848       23.988     2085.626     2792.890      575.437        0.517        0.273       69.854       22.538        0.104      330.032       -2.855      853.787
12/07/2013  12:21:00      -92.784      -51.137        3.100       66.450       42.812       41.740     4415.548     1832.904     1742.260        0.961        0.400      105.943       40.575        0.147      330.047       -2.831      853.786
12/07/2013  12:22:00      -44.597      -28.041       -4.720       53.646       40.953       31.232     2877.944     1677.153      975.460        0.416        0.277       52.680       22.751        0.187      330.096       -2.750      853.769
12/07/2013  12:23:00     -118.748      -29.183       -3.981       50.551       36.272       21.091     2555.355     1315.678      444.818        0.964        0.216      122.281       12.833        0.011      329.892       -3.085      853.770
12/07/2013  12:24:00      -61.226      -91.612       28.628      123.203      128.525       57.229    15178.901    16518.641     3275.138        2.396        1.749      110.188       59.112        0.288      330.184       -2.608      853.759
12/07/2013  12:25:00     -140.394       12.663       -8.754       69.798       93.077       37.194     4871.813     8663.274     1383.373        1.743        0.746      140.964       34.645        0.060      330.135       -2.688      853.798
12/07/2013  12:26:00     -311.024       33.323      -31.507      110.910      109.340       54.347    12301.022    11955.227     2953.590        6.302        1.360      312.804       47.049        0.023      330.043       -2.841      853.873
12/07/2013  12:27:00     -257.536       75.813      -40.249      113.424      142.117       71.411    12865.041    20197.112     5099.539        5.592        1.908      268.463       70.452        0.069      329.775       -3.278      853.899
12/07/2013  12:28:00     -404.511      -67.406      -49.264      186.997      126.265       71.915    34967.814    15942.950     5171.798       11.333        2.804      410.089       77.015        0.035      329.664       -3.460      853.882
12/07/2013  12:29:00     -522.752      -68.033      -41.550      169.671      166.055       76.142    28788.138    27574.119     5797.632       17.088        3.108      527.160       67.875        0.017      329.459       -3.796      853.895
12/07/2013  12:30:00     -333.311      -86.768      -30.649      200.645      134.625       73.984    40258.297    18123.821     5473.570        9.170        3.193      344.419       81.274        0.056      329.507       -3.717      853.911
12/07/2013  12:31:00     -307.198      -58.464      -18.603      116.764       92.210       71.793    13633.853     8502.702     5154.262        6.271        1.365      312.712       52.724        0.028      329.346       -3.979      853.912
12/07/2013  12:32:00     -218.726       25.194      -22.730       89.247       95.327       54.319     7964.981     9087.183     2950.591        3.449        1.000      220.172       47.352        0.046      329.451       -3.807      853.903
12/07/2013  12:33:00      -26.796       -6.829       27.602       98.027       79.362       46.374     9609.365     6298.389     2150.576        0.979        0.903       27.652       50.940        3.394      329.742       -3.329      853.883
12/07/2013  12:34:00      -81.036       -4.557      -19.612       71.050       80.922       45.244     5048.068     6548.347     2047.012        1.031        0.682       81.164       25.873        0.102      329.577       -3.599      853.904
12/07/2013  12:35:00      -87.074       -4.027       -5.554       63.986       42.585       28.036     4094.189     1813.515      786.015        0.716        0.335       87.167       22.566        0.067      329.655       -3.471      853.921
12/07/2013  12:36:00     -148.849       11.368      -18.328       62.039       45.753       36.119     3848.877     2093.312     1304.593        1.493        0.362      149.282       15.777        0.011      329.534       -3.672      853.925
12/07/2013  12:37:00     -132.429      -31.623       -0.874       59.905       41.343       28.484     3588.601     1709.237      811.344        1.232        0.305      136.152       25.967        0.036      329.526       -3.683      853.923
12/07/2013  12:38:00      -36.103      -28.006       16.288       70.533       43.063       33.737     4974.861     1854.400     1138.171        0.516        0.398       45.692       25.427        0.310      329.726       -3.356      853.910
12/07/2013  12:39:00     -118.845       54.813      -24.768       42.535       45.016       26.963     1809.213     2026.410      726.990        1.115        0.228      130.876       22.915        0.031      329.575       -3.604      853.919
12/07/2013  12:40:00     -104.730       47.038      -17.056       60.710       56.410       31.826     3685.657     3182.112     1012.908        1.067        0.394      114.808       27.810        0.059      329.632       -3.509      853.907
12/07/2013  12:41:00     -112.731       89.126      -30.210       77.579       66.853       39.802     6018.522     4469.386     1584.213        1.682        0.604      143.707       33.433        0.054      329.591       -3.576      853.928
12/07/2013  12:42:00     -130.468      160.519      -22.395      110.814       80.387       47.438    12279.819     6462.007     2250.367        3.214        1.050      206.854       53.637        0.067      329.607       -3.554      853.929
12/07/2013  12:43:00     -220.711       39.363      -36.206       54.672       76.678       32.803     2989.022     5879.585     1076.025        3.076        0.497      224.193       17.478        0.006      329.495       -3.736      853.937
12/07/2013  12:44:00     -398.427     -108.283      -41.033      145.956      112.628       58.994    21303.139    12685.053     3480.288       10.480        1.873      412.879       50.678        0.015      329.571       -3.612      853.920
12/07/2013  12:45:00     -375.908      -52.482      -12.387      118.234       93.663       52.496    13979.261     8772.713     2755.868        8.486        1.275      379.554       56.643        0.022      329.580       -3.597      853.932
12/07/2013  12:46:00     -390.271      -40.874      -17.471      137.968      118.449       66.688    19035.044    14030.165     4447.232        9.589        1.876      392.405       62.055        0.025      329.635       -3.508      853.957
12/07/2013  12:47:00     -422.687     -141.746      -11.308      238.772      142.146       81.162    57012.113    20205.481     6587.301       14.133        4.190      445.821       97.613        0.048      329.665       -3.459      853.953
12/07/2013  12:48:00     -395.523       52.844      -21.107      169.633      160.389       71.909    28775.360    25724.471     5170.970       10.966        2.984      399.037       65.654        0.027      329.588       -3.585      853.997
12/07/2013  12:49:00     -304.206      -35.419      -18.606      146.415      107.046       60.943    21437.291    11458.870     3713.994        6.537        1.831      306.261       68.903        0.051      329.541       -3.661      854.007
12/07/2013  12:50:00     -274.965      -67.580      -12.701      126.905      130.855       55.178    16104.804    17123.087     3044.584        5.830        1.814      283.148       54.965        0.038      329.542       -3.660      854.002
12/07/2013  12:51:00     -290.656       -3.217       -6.347      196.445      133.002       69.437    38590.611    17689.574     4821.491        7.280        3.055      290.674       27.518        0.009      329.493       -3.739      853.987
12/07/2013  12:52:00     -335.412     -106.831       -5.488      141.591       88.097       58.953    20047.876     7761.137     3475.400        7.761        1.564      352.015       62.945        0.032      329.490       -3.746      853.984
12/07/2013  12:53:00     -455.666      -68.739      -36.598      162.841      120.074       55.537    26517.040    14417.649     3084.399       12.885        2.201      460.822       50.883        0.012      329.390       -3.909      853.996
12/07/2013  12:54:00     -360.051      -73.107      -25.365      114.284      136.110       61.117    13060.729    18526.004     3735.230        8.547        1.766      367.398       49.873        0.018      329.463       -3.790      854.023
12/07/2013  12:55:00     -419.892      -37.579      -21.815      116.266       77.384       55.848    13517.814     5988.350     3119.029       10.041        1.131      421.571       60.998        0.021      329.454       -3.804      854.051
12/07/2013  12:56:00     -373.822      -33.903      -13.939      146.869       99.297       49.951    21570.534     9859.888     2495.139        8.750        1.696      375.356       59.531        0.025      329.561       -3.629      854.091
12/07/2013  12:57:00     -378.431       15.209      -13.595      164.018      135.138       62.730    26901.884    18262.366     3934.992        9.635        2.455      378.737       57.813        0.023      329.577       -3.603      854.101
12/07/2013  12:58:00     -262.732        7.924      -12.887      184.089      102.613       61.745    33888.587    10529.456     3812.505        5.873        2.412      262.851       75.080        0.082      329.641       -3.495      854.102
12/07/2013  12:59:00     -334.954      -38.228      -10.867      159.759      102.233       64.227    25522.867    10451.569     4125.066        7.693        2.005      337.128       63.768        0.036      329.584       -3.592      854.084
12/07/2013  13:00:00     -203.488      -59.444       -5.754      108.725      100.593       48.039    11821.062    10119.028     2307.714        3.461        1.212      211.993       43.056        0.041      329.693       -3.411      854.093
12/07/2013  13:01:00     -257.492      -29.562      -17.249       90.160       79.076       45.463     8128.770     6253.040     2066.929        4.196        0.822      259.183       36.580        0.020      329.698       -3.404      854.105
12/07/2013  13:02:00     -404.356     -137.693      -10.264      120.707       94.076       56.517    14570.087     8850.360     3194.122       10.459        1.331      427.157       58.354        0.019      329.665       -3.460      854.125
12/07/2013  13:03:00     -234.899     -107.948        6.388      108.864       88.698       60.019    11851.392     7867.398     3602.247        4.509        1.166      258.515       58.468        0.051      329.791       -3.254      854.122
12/07/2013  13:04:00     -425.243     -168.634      -15.909      169.474      121.263       67.379    28721.482    14704.637     4539.886       12.873        2.398      457.460       75.042        0.027      329.783       -3.266      854.140
12/07/2013  13:05:00     -406.797      -62.959      -24.387      147.561      136.135       68.091    21774.121    18532.609     4636.339       10.748        2.247      411.640       68.600        0.028      329.878       -3.109      854.152
12/07/2013  13:06:00     -287.437      -14.970      -11.318      127.007       92.684       54.273    16130.694     8590.340     2945.542        5.531        1.383      287.827       60.862        0.045      329.971       -2.958      854.154
12/07/2013  13:07:00     -371.827     -220.598        4.606      205.208      161.506       84.473    42110.180    26084.307     7135.724       13.112        3.767      432.341       93.862        0.047      329.880       -3.107      854.113
12/07/2013  13:08:00     -274.628     -158.416      -14.639      181.428      126.203       74.225    32916.126    15927.121     5509.398        7.753        2.718      317.043       88.043        0.077      329.857       -3.144      854.123
12/07/2013  13:09:00     -346.909     -215.523      -31.138      200.060      143.559       83.158    40023.812    20609.278     6915.285       11.764        3.377      408.407       77.934        0.036      329.811       -3.218      854.081
12/07/2013  13:10:00      -99.756       22.965       14.987      120.608       89.205       65.883    14546.177     7957.455     4340.561        1.877        1.342      102.365       55.049        0.289      329.992       -2.922      854.104
12/07/2013  13:11:00     -159.260     -104.059        4.859      219.179      121.643       70.550    48039.389    14797.139     4977.264        5.200        3.391      190.242       78.392        0.170      329.983       -2.938      854.093
12/07/2013  13:12:00     -311.479      -27.006       -3.185      171.855      129.148       67.504    29533.995    16679.136     4556.828        7.425        2.538      312.647       73.428        0.055      329.894       -3.083      854.097
12/07/2013  13:13:00     -361.790     -246.687        7.542      211.785      192.284      111.536    44852.733    36973.255    12440.204       14.302        4.713      437.888      124.376        0.081      329.765       -3.294      854.067
12/07/2013  13:14:00     -253.316      -82.300        6.051      197.233      150.831       94.566    38900.909    22750.064     8942.648        7.077        3.530      266.350      108.492        0.166      329.857       -3.144      854.078
12/07/2013  13:15:00     -292.604      -26.246       12.135      146.737      140.205       77.881    21531.851    19657.415     6065.383        6.684        2.363      293.779       79.071        0.072      329.883       -3.102      854.092
12/07/2013  13:16:00     -422.202     -118.741      -34.385      154.709      162.556       79.209    23934.744    26424.388     6273.989       12.507        2.832      438.582       72.533        0.027      329.873       -3.117      854.124
12/07/2013  13:17:00     -378.897      -25.519      -18.033      180.768      149.819       70.087    32677.051    22445.878     4912.193       10.228        3.002      379.756       67.693        0.032      329.918       -3.043      854.141
12/07/2013  13:18:00     -370.945      -61.231      -16.573      167.447      152.973       78.120    28038.436    23400.648     6102.764        9.957        2.877      375.964       72.737        0.037      329.909       -3.061      854.161
12/07/2013  13:19:00     -153.179     -112.563       39.047      158.424      159.734       80.281    25098.300    25514.810     6444.979        4.735        2.853      190.090       78.386        0.170      330.076       -2.785      854.173
12/07/2013  13:20:00     -184.161     -160.774       11.359      168.466      145.703       73.329    28380.930    21229.488     5377.139        5.743        2.749      244.466       77.601        0.101      329.988       -2.930      854.165
12/07/2013  13:21:00     -376.033     -197.210      -17.745      220.686      158.384       88.942    48702.168    25085.445     7910.607       13.114        4.085      424.609      106.090        0.062      329.841       -3.170      854.137
12/07/2013  13:22:00     -279.592     -138.970       -3.651      175.534      142.316       84.805    30812.325    20253.894     7191.847        7.787        2.913      312.225       91.247        0.085      329.890       -3.091      854.135
12/07/2013  13:23:00     -272.687     -119.065      -14.970      210.866      150.798       93.075    44464.580    22740.115     8662.951        8.230        3.793      297.548      101.424        0.116      329.962       -2.972      854.125
12/07/2013  13:24:00     -358.765     -256.878      -11.180      208.707      187.788      108.427    43558.817    35264.365    11756.340       14.268        4.529      441.247      126.272        0.082      329.851       -3.154      854.112
12/07/2013  13:25:00     -306.108     -213.957        7.967      205.299      173.025      103.861    42147.671    29937.658    10787.045       11.119        4.144      373.469      107.902        0.083      329.882       -3.103      854.122
12/07/2013  13:26:00     -116.152      -89.683       25.578      159.840      133.574       77.467    25548.977    17842.022     6001.121        3.578        2.470      146.746       76.517        0.272      330.116       -2.719      854.132
12/07/2013  13:27:00     -503.520     -236.793      -31.414      224.935      165.627      103.650    50595.834    27432.269    10743.402       19.966        4.439      556.420      109.729        0.039      329.853       -3.152      854.126
12/07/2013  13:28:00     -355.851     -177.981      -12.550      177.098      187.166       88.289    31363.844    35031.261     7795.035       11.631        3.710      397.879       98.160        0.061      329.938       -3.010      854.157
12/07/2013  13:29:00     -182.153       -8.337       -5.683       96.081       91.148       54.597     9231.581     8307.929     2980.782        2.690        1.026      182.344       46.549        0.065      330.175       -2.623      854.167
12/07/2013  13:30:00     -328.996     -102.780       -4.821      156.384      113.950       62.459    24456.057    12984.686     3901.099        8.008        2.067      344.677       71.300        0.043      330.095       -2.756      854.202
12/07/2013  13:31:00     -360.173     -245.040      -14.653      164.910      158.230       79.584    27195.243    25036.830     6333.686       12.426        2.928      435.625       77.208        0.031      329.973       -2.954      854.231
12/07/2013  13:32:00     -290.476     -237.338      -15.104      170.703      161.110       88.490    29139.564    25956.363     7830.449       10.192        3.146      375.107       95.871        0.065      330.037       -2.849      854.239
12/07/2013  13:33:00     -291.126     -197.206       -4.373      177.708      138.673       78.749    31580.150    19230.116     6201.356        9.033        2.851      351.631       90.480        0.066      330.051       -2.827      854.245
12/07/2013  13:34:00     -296.324     -125.178       -3.807      111.028       85.520       60.341    12327.282     7313.588     3641.092        6.338        1.164      321.679       59.851        0.035      330.169       -2.634      854.282
12/07/2013  13:35:00     -251.979     -187.457        5.159      171.734      140.382       83.259    29492.464    19707.187     6932.114        7.738        2.807      314.059       86.823        0.076      330.121       -2.711      854.292
12/07/2013  13:36:00     -234.221     -144.153       -6.529      150.223      119.126       68.148    22566.899    14191.042     4644.208        5.853        2.070      275.027       73.524        0.071      330.184       -2.608      854.306
12/07/2013  13:37:00     -241.747      -73.784       -3.625      140.381       87.913       64.489    19706.931     7728.746     4158.828        4.774        1.580      252.756       66.502        0.069      330.127       -2.701      854.314
12/07/2013  13:38:00     -235.198      -65.347       -4.492      116.494       99.147       51.231    13570.918     9830.200     2624.651        4.281        1.301      244.107       53.858        0.049      330.257       -2.488      854.317
12/07/2013  13:39:00     -320.507     -100.459        3.834      162.079      144.905       81.328    26269.508    20997.402     6614.257        8.335        2.694      335.882       93.374        0.077      330.263       -2.478      854.345
12/07/2013  13:40:00     -419.102      -19.056      -42.115      152.752      110.537       64.911    23333.108    12218.332     4213.457       10.877        1.988      419.535       63.410        0.023      330.094       -2.758      854.325
12/07/2013  13:41:00     -317.618     -187.847       -5.077      157.200      138.084       70.683    24711.695    19067.065     4996.058        9.247        2.439      369.009       71.360        0.037      330.129       -2.698      854.335
12/07/2013  13:42:00     -290.080     -104.162      -16.263      109.775       98.893       51.037    12050.549     9779.856     2604.786        5.984        1.222      308.215       54.305        0.031      330.174       -2.626      854.336
12/07/2013  13:43:00     -344.077     -111.528      -12.302      150.052      113.527       56.079    22515.589    12888.276     3144.884        8.476        1.927      361.701       67.350        0.035      330.213       -2.560      854.333
12/07/2013  13:44:00     -321.012     -101.521      -11.636      172.558      110.772       70.030    29776.409    12270.380     4904.169        8.021        2.348      336.682       89.597        0.071      330.280       -2.452      854.333
12/07/2013  13:45:00     -259.902      -87.481       -3.246      158.168      130.640       66.409    25017.119    17066.689     4410.199        6.084        2.325      274.230       72.052        0.069      330.376       -2.295      854.328
12/07/2013  13:46:00     -133.877      -84.750       -2.116      133.727      107.771       63.802    17883.003    11614.578     4070.735        2.933        1.678      158.448       43.988        0.077      330.362       -2.314      854.364
12/07/2013  13:47:00     -124.172      -62.932        5.721       94.889       60.982       49.880     9003.945     3718.848     2487.998        1.731        0.761      139.209       35.659        0.066      330.567       -1.979      854.379
12/07/2013  13:48:00     -256.815      -65.386      -10.200      149.511       94.248       49.338    22353.664     8882.736     2434.280        5.200        1.684      265.008       56.232        0.045      330.322       -2.382      854.386
12/07/2013  13:49:00     -289.477      -30.399      -21.410      122.976      108.201       51.640    15123.095    11707.505     2666.663        5.733        1.475      291.068       36.597        0.016      330.235       -2.525      854.357
12/07/2013  13:50:00     -287.908     -158.424       -3.366      216.794       97.177       87.598    46999.625     9443.421     7673.456        8.605        3.206      328.617      115.377        0.123      330.169       -2.633      854.330
12/07/2013  13:51:00     -378.263     -245.491      -18.764      213.140      144.337       78.169    45428.825    20833.267     6110.415       13.802        3.619      450.942       96.484        0.046      330.047       -2.834      854.317
12/07/2013  13:52:00     -487.765     -213.951      -24.305      165.176      105.199       66.569    27283.244    11066.923     4431.392       16.352        2.139      532.625       64.125        0.014      330.026       -2.867      854.316
12/07/2013  13:53:00     -270.924     -170.365        2.145      181.185      144.709       67.056    32828.096    20940.727     4496.491        8.034        2.913      320.037       67.602        0.045      330.023       -2.872      854.336
12/07/2013  13:54:00     -428.911     -193.037      -19.801      125.393       94.595       55.384    15723.312     8948.131     3067.337       12.467        1.387      470.349       53.304        0.013      329.973       -2.955      854.340
12/07/2013  13:55:00     -308.790      -29.662      -15.944      115.120      130.436       57.473    13252.688    17013.565     3303.191        6.502        1.678      310.212       54.229        0.031      330.153       -2.661      854.361
12/07/2013  13:56:00     -125.880      -47.875       -6.432       59.472       94.040       44.246     3536.974     8843.576     1957.731        1.626        0.717      134.677       33.081        0.060      330.267       -2.471      854.396
12/07/2013  13:57:00     -342.604     -139.709       -9.059      164.954      196.686       72.796    27209.772    38685.330     5299.229       10.407        3.560      369.994       89.223        0.058      330.175       -2.622      854.401
12/07/2013  13:58:00     -291.078      -95.273      -14.582      171.405      153.081       93.761    29379.586    23433.744     8791.106        7.780        3.080      306.274       97.826        0.102      330.136       -2.686      854.397
12/07/2013  13:59:00     -231.619     -150.067       -5.622      218.839      139.567       90.075    47890.450    19479.053     8113.469        7.583        3.774      275.985      111.588        0.163      330.225       -2.541      854.409
12/07/2013  14:00:00     -396.979     -106.000      -32.556      172.392      133.474       73.727    29718.917    17815.317     5435.657       11.142        2.648      410.887       85.170        0.043      330.107       -2.736      854.448
12/07/2013  14:01:00     -329.776     -165.339       -3.302      163.982      151.537       80.298    26890.132    22963.350     6447.705        9.619        2.815      368.902       85.337        0.054      330.092       -2.760      854.431
12/07/2013  14:02:00     -393.841      -76.773      -17.753      165.471      154.067       87.531    27380.655    23736.782     7661.601       11.004        2.939      401.254       86.936        0.047      330.182       -2.614      854.469
12/07/2013  14:03:00     -442.643      -60.723      -22.948      178.289      172.246       75.952    31786.980    29668.805     5768.688       13.367        3.361      446.789       76.579        0.029      330.122       -2.711      854.455
12/07/2013  14:04:00     -387.547      -43.994      -23.296      178.446      139.801       72.305    31843.098    19544.245     5228.040       10.463        2.831      390.036       92.821        0.057      330.294       -2.429      854.445
12/07/2013  14:05:00     -387.157     -129.137       -8.754      171.456      119.036       60.331    29397.132    14169.480     3639.861       10.692        2.360      408.126       72.368        0.031      330.213       -2.562      854.478
12/07/2013  14:06:00     -480.279     -224.664      -14.620      185.651      162.067       72.049    34466.416    26265.559     5191.130       17.363        3.296      530.228       85.651        0.026      330.169       -2.634      854.485
12/07/2013  14:07:00     -278.964      -84.787      -26.295      222.554      163.204       80.727    49530.266    26635.646     6516.774        8.418        4.134      291.564       99.605        0.117      330.288       -2.438      854.476
12/07/2013  14:08:00     -310.222      -88.705        3.272      173.294      154.685       86.052    30030.737    23927.406     7404.872        8.273        3.068      322.655       81.583        0.064      330.219       -2.552      854.485
12/07/2013  14:09:00     -203.824       11.038      -10.011      130.665      123.691       59.769    17073.450    15299.413     3572.326        3.885        1.797      204.123       51.339        0.063      330.412       -2.235      854.515
12/07/2013  14:10:00     -229.493      -33.014      -21.282      153.410      119.175       70.981    23534.500    14202.656     5038.331        4.848        2.139      231.856       71.635        0.095      330.369       -2.305      854.528
12/07/2013  14:11:00     -405.380     -107.654       -3.757      213.056      141.326       83.643    45392.954    19972.993     6996.146       12.413        3.618      419.431       88.721        0.045      330.227       -2.540      854.558
12/07/2013  14:12:00     -622.528     -178.637      -11.002      190.167      199.860       87.193    36163.379    39943.961     7602.659       25.162        4.185      647.651       92.505        0.020      330.014       -2.888      854.549
12/07/2013  14:13:00     -505.825     -201.782       -6.359      260.224      144.773      103.876    67716.746    20959.110    10790.157       19.802        4.973      544.586      122.244        0.050      330.002       -2.907      854.604
12/07/2013  14:14:00     -220.455     -132.209      -16.751      155.409      171.513       78.207    24152.078    29416.842     6116.380        6.301        2.984      257.059       90.962        0.125      330.165       -2.640      854.635
12/07/2013  14:15:00     -121.316      -76.067        7.445      113.870      117.565       54.372    12966.312    13821.417     2956.285        2.515        1.487      143.191       57.867        0.163      330.423       -2.215      854.674
12/07/2013  14:16:00     -306.005      -73.342      -19.281      226.767      170.865       60.185    51423.171    29194.734     3622.202        9.180        4.212      314.671       83.713        0.071      330.217       -2.555      854.691
12/07/2013  14:17:00     -294.492      -39.382      -10.652      111.571      155.985       62.882    12448.058    24331.272     3954.129        6.455        2.037      297.114       56.699        0.036      330.218       -2.553      854.719
12/07/2013  14:18:00     -434.177      -29.557      -27.871      171.183      140.584       67.682    29303.646    19763.760     4580.888       12.189        2.682      435.182       70.727        0.026      330.131       -2.695      854.764
12/07/2013  14:19:00     -214.425     -131.396       16.318      188.352      168.585       83.866    35476.592    28421.012     7033.509        6.721        3.547      251.482      101.513        0.163      330.312       -2.397      854.745
12/07/2013  14:20:00     -254.505       67.083      -10.958       96.455       79.965       48.259     9303.625     6394.449     2328.891        4.371        0.901      263.197       38.657        0.022      330.382       -2.284      854.789
12/07/2013  14:21:00     -448.703      -65.400      -23.214      172.223      151.465       65.316    29660.866    22941.550     4266.185       13.150        2.843      453.444       75.417        0.028      330.162       -2.645      854.788
12/07/2013  14:22:00     -464.385       52.657      -37.904      132.853      116.419       60.039    17649.845    13553.402     3604.698       12.733        1.740      467.361       57.284        0.015      330.175       -2.624      854.782
12/07/2013  14:23:00     -316.611      -13.464      -24.064      121.661       82.678       56.517    14801.407     6835.703     3194.213        6.291        1.242      316.897       60.012        0.036      330.202       -2.578      854.810
12/07/2013  14:24:00     -293.053     -146.634      -22.855      145.186      109.954       60.216    21079.089    12089.840     3625.964        7.234        1.840      327.691       58.861        0.032      330.253       -2.496      854.820
12/07/2013  14:25:00     -204.158      -89.884       -8.981      109.834       91.557       41.242    12063.598     8382.689     1700.939        3.599        1.107      223.069       42.115        0.036      330.390       -2.269      854.862
12/07/2013  14:26:00     -233.057      -45.122      -15.564       81.043       63.476       31.281     6567.971     4029.152      978.481        3.408        0.579      237.385       16.333        0.005      330.451       -2.170      854.899
12/07/2013  14:27:00     -244.425        7.845      -30.836       81.244      109.276       49.516     6600.525    11941.307     2451.871        4.087        1.050      244.551       42.775        0.031      330.441       -2.188      854.919
12/07/2013  14:28:00     -263.758       -5.883      -28.021      144.150      129.883       62.019    20779.200    16869.464     3846.413        5.593        2.075      263.824       33.751        0.016      330.272       -2.467      854.913
12/07/2013  14:29:00     -302.184        8.404      -26.827      147.665       84.801       62.627    21804.812     7191.244     3922.132        6.251        1.646      302.301       76.391        0.064      330.262       -2.481      854.939
12/07/2013  14:30:00     -327.665       15.789      -16.929      111.405      116.937       52.397    12411.056    13674.252     2745.411        6.836        1.442      328.045       43.529        0.018      330.331       -2.369      854.955
12/07/2013  14:31:00     -418.942     -149.661      -17.617       98.719      107.886       57.477     9745.501    11639.380     3303.598       11.145        1.234      444.871       55.524        0.016      330.290       -2.435      854.971
12/07/2013  14:32:00     -236.798      -45.738      -28.850      114.032       80.049       43.036    13003.257     6407.871     1852.079        4.013        1.063      241.174       30.315        0.016      330.456       -2.161      854.991
12/07/2013  14:33:00     -216.466       31.517      -14.531      122.822      112.555       60.203    15085.344    12668.533     3624.346        3.971        1.569      218.749       53.200        0.059      330.505       -2.080      855.012
12/07/2013  14:34:00     -175.555      217.460      -15.472      114.105      169.287       64.267    13019.842    28658.174     4130.309        6.207        2.290      279.479       66.905        0.057      330.198       -2.586      855.075
12/07/2013  14:35:00     -222.183      239.046      -46.247       92.890      144.927       70.188     8628.566    21003.748     4926.397        7.160        1.728      326.356       44.266        0.018      329.971       -2.958      855.108
12/07/2013  14:36:00     -251.131      243.699      -52.450       93.560      143.861       65.867     8753.470    20696.098     4338.505        7.949        1.689      349.938       66.412        0.036      329.814       -3.216      855.133
12/07/2013  14:37:00     -241.547      166.615      -39.447      112.961      126.531       64.995    12760.268    16010.115     4224.304        6.032        1.650      293.437       60.810        0.043      329.696       -3.408      855.140
12/07/2013  14:38:00     -192.594      151.664      -30.932       98.639      177.798       64.469     9729.567    31611.958     4156.253        5.327        2.275      245.141       65.718        0.072      329.828       -3.190      855.155
12/07/2013  14:39:00     -209.002      177.822      -29.436      146.662      143.486       71.375    21509.702    20588.373     5094.456        6.167        2.360      274.413       89.272        0.106      329.891       -3.089      855.182
12/07/2013  14:40:00     -163.003      181.596      -33.893      100.344       90.127       55.505    10068.819     8122.844     3080.751        4.098        1.064      244.022       59.676        0.060      329.731       -3.350      855.203
12/07/2013  14:41:00     -140.983      177.157      -17.556       97.216      122.333       57.122     9451.019    14965.275     3262.977        3.962        1.384      226.408       47.256        0.044      329.809       -3.223      855.191
12/07/2013  14:42:00     -243.917      164.068      -49.429      153.854      140.800       78.320    23671.117    19824.617     6133.950        6.923        2.481      293.962       96.162        0.107      329.771       -3.283      855.191
12/07/2013  14:43:00     -371.166      291.423      -78.058      109.641      138.427       71.665    12021.078    19161.913     5135.820       13.254        1.816      471.902       72.788        0.024      329.469       -3.778      855.203
12/07/2013  14:44:00     -263.928      255.033      -55.499      108.820      163.298       63.486    11841.888    26666.374     4030.447        9.015        2.127      367.015       57.562        0.025      329.558       -3.633      855.213
12/07/2013  14:45:00      -62.112      340.982      -41.014       93.948      121.309       57.897     8826.248    14715.793     3352.084        7.435        1.345      346.593       56.796        0.027      329.508       -3.715      855.238
12/07/2013  14:46:00      -98.918      284.402      -42.817       93.540      142.323       54.492     8749.731    20255.832     2969.360        6.223        1.599      301.113       62.771        0.043      329.497       -3.733      855.226
12/07/2013  14:47:00      -88.464      385.866      -49.633      105.732      151.072       63.809    11179.225    22822.883     4071.558        9.862        1.904      395.877       71.433        0.033      329.366       -3.948      855.244
12/07/2013  14:48:00     -149.808      370.495      -41.013      105.508      157.856       65.382    11131.994    24918.657     4274.748       10.085        2.016      399.636       66.931        0.028      329.286       -4.078      855.272
12/07/2013  14:49:00      -70.452      546.899      -63.035       78.047      126.511       45.249     6091.363    16004.979     2047.439       16.608        1.207      551.418       51.859        0.009      329.020       -4.513      855.289
12/07/2013  14:50:00     -120.211      425.127      -49.457       97.773      144.918       51.149     9559.480    21001.314     2616.257       11.540        1.659      441.796       48.971        0.012      329.182       -4.249      855.310
12/07/2013  14:51:00     -228.309      327.652      -49.567      137.348      130.639       77.772    18864.457    17066.485     6048.415       10.195        2.099      399.350       83.365        0.044      329.278       -4.091      855.350
12/07/2013  14:52:00     -130.872      419.255      -49.599      100.741      100.174       54.840    10148.748    10034.832     3007.448       10.927        1.160      439.207       34.003        0.006      329.137       -4.322      855.370
12/07/2013  14:53:00     -122.103      360.286      -46.456      111.304      143.774       70.892    12388.506    20670.909     5025.656        9.247        1.904      380.415       71.157        0.035      329.243       -4.148      855.377
12/07/2013  14:54:00      -68.662      516.425      -63.041      122.649      131.305       57.999    15042.691    17240.877     3363.871       15.551        1.782      520.969       53.633        0.011      329.082       -4.412      855.385
12/07/2013  14:55:00     -126.945      461.825      -57.739      137.634      139.885       69.109    18943.171    19567.752     4775.992       13.800        2.164      478.955       74.663        0.024      328.986       -4.568      855.404
12/07/2013  14:56:00     -160.240      354.402      -50.983      111.585      127.616       64.991    12451.308    16285.771     4223.785        9.341        1.648      388.944       74.725        0.037      329.065       -4.439      855.451
12/07/2013  14:57:00       -9.947      459.788      -60.847       64.438      107.461       45.326     4152.271    11547.857     2054.449       11.648        0.888      459.896       41.666        0.008      329.005       -4.537      855.468
12/07/2013  14:58:00      -45.579      305.919      -37.779       62.253       99.307       41.135     3875.456     9861.794     1692.127        5.626        0.771      309.296       34.344        0.012      329.242       -4.148      855.493
12/07/2013  14:59:00     -102.700      258.563      -16.142       99.926      132.492       71.423     9985.197    17554.213     5101.191        5.515        1.632      278.213       76.898        0.076      329.288       -4.074      855.531
12/07/2013  15:00:00      -36.143      357.500      -45.888       85.950      127.660       64.167     7387.404    16297.195     4117.416        7.950        1.390      359.322       67.113        0.035      329.156       -4.290      855.543
12/07/2013  15:01:00      -50.778      413.696      -44.476       86.374      141.814       69.738     7460.550    20111.299     4863.357       10.406        1.622      416.801       71.659        0.030      329.084       -4.408      855.543
12/07/2013  15:02:00      -23.808      342.438      -38.854       86.444       88.183       44.995     7472.588     7776.254     2024.568        6.830        0.864      343.265       38.578        0.013      329.106       -4.372      855.558
12/07/2013  15:03:00      -47.705      375.703      -37.985       71.760      134.615       69.275     5149.534    18121.212     4799.092        8.647        1.403      378.720       78.117        0.043      329.133       -4.329      855.556
12/07/2013  15:04:00      -38.715      539.342      -70.541       71.341       99.685       47.851     5089.506     9937.024     2289.693       15.734        0.866      540.730       39.769        0.005      329.044       -4.473      855.571
12/07/2013  15:05:00      -46.727      468.796      -51.237       79.257      126.695       51.042     6281.649    16051.604     2605.308       12.475        1.247      471.119       54.612        0.013      329.084       -4.408      855.575
12/07/2013  15:06:00      -26.932      435.627      -46.797       99.666      201.321       74.187     9933.317    40530.020     5503.739       12.432        2.798      436.459       98.397        0.051      329.134       -4.325      855.592
12/07/2013  15:07:00     -156.662      472.125      -66.866      127.912      149.902       67.558    16361.518    22470.650     4564.043       14.765        2.170      497.438       61.494        0.015      329.030       -4.496      855.608
12/07/2013  15:08:00      -90.620      328.856      -57.860       97.106      147.532       61.280     9429.646    21765.547     3755.191        7.732        1.748      341.113       67.775        0.039      329.200       -4.218      855.636
12/07/2013  15:09:00     -128.901      338.900      -44.472      105.259      104.578       55.436    11079.558    10936.533     3073.189        7.926        1.254      362.586       41.529        0.013      329.211       -4.201      855.654
12/07/2013  15:10:00     -156.791      341.629      -48.380      102.728      120.973       62.770    10552.940    14634.348     3940.089        8.638        1.456      375.891       62.212        0.027      329.101       -4.381      855.680
12/07/2013  15:11:00     -151.837      339.387      -53.067      113.900      134.271       74.656    12973.203    18028.665     5573.486        8.881        1.829      371.804       69.408        0.035      329.151       -4.300      855.693
12/07/2013  15:12:00      -91.638      282.203      -45.038      140.481      108.864       60.510    19734.774    11851.309     3661.482        6.265        1.762      296.709       67.287        0.051      329.202       -4.216      855.677
12/07/2013  15:13:00       -0.871      233.196      -25.863       78.392      122.792       49.764     6145.371    15077.970     2476.438        3.937        1.185      233.198       57.149        0.060      329.271       -4.102      855.689
12/07/2013  15:14:00      -99.794      297.716      -47.783      123.890      202.895       68.114    15348.633    41166.259     4639.477        8.100        3.058      313.996       82.480        0.069      329.288       -4.075      855.736
12/07/2013  15:15:00      -95.787      305.038      -33.968       68.805      123.229       53.785     4734.131    15185.503     2892.828        6.309        1.141      319.724       47.681        0.022      329.271       -4.102      855.828
12/07/2013  15:16:00     -204.235      235.292      -40.765      129.170      143.441       69.938    16684.770    20575.451     4891.294        7.044        2.108      311.567       88.362        0.080      329.307       -4.044      855.868
12/07/2013  15:17:00     -134.910      163.599       -9.426      122.294      123.164       69.838    14955.762    15169.273     4877.339        4.002        1.750      212.050       68.265        0.104      329.291       -4.070      855.877
12/07/2013  15:18:00     -113.533      233.640      -37.421      141.278      152.072       68.877    19959.483    23125.980     4744.080        5.834        2.391      259.764       81.819        0.099      329.244       -4.144      855.875
12/07/2013  15:19:00     -130.540      215.027      -21.998      113.199      115.011       68.153    12813.926    13227.564     4644.837        4.722        1.534      251.549       66.770        0.070      329.355       -3.966      855.853
12/07/2013  15:20:00      -72.676      269.139      -35.545      102.720      133.155       61.937    10551.375    17730.167     3836.197        5.554        1.606      278.778       66.781        0.057      329.190       -4.235      855.872
12/07/2013  15:21:00      -70.917      263.512      -19.883      106.100      123.784       64.494    11257.285    15322.552     4159.413        5.280        1.537      272.888       65.437        0.058      329.197       -4.222      855.845
12/07/2013  15:22:00      -84.641      388.887      -49.488      119.648      130.039       71.515    14315.663    16910.057     5114.394        9.859        1.817      397.992       65.592        0.027      329.061       -4.446      855.862
12/07/2013  15:23:00      -81.153      333.741      -40.688      126.410      126.963       76.681    15979.401    16119.647     5879.955        7.879        1.899      343.465       66.681        0.038      329.102       -4.378      855.879
12/07/2013  15:24:00      -87.213      381.184      -50.381      108.744      178.912       62.590    11825.149    32009.524     3917.446       10.159        2.388      391.033       74.747        0.037      329.032       -4.492      855.910
12/07/2013  15:25:00     -107.740      341.292      -29.853      113.603      166.621       60.487    12905.657    27762.571     3658.640        8.664        2.216      357.894       72.481        0.041      329.070       -4.431      855.944
12/07/2013  15:26:00        7.778      318.766      -17.364      133.694      172.676       83.977    17874.104    29817.059     7052.065        7.835        2.737      318.861       99.971        0.098      328.999       -4.547      855.939
12/07/2013  15:27:00      -92.620      264.769      -29.832       91.821      103.540       61.756     8431.175    10720.579     3813.823        5.126        1.148      280.502       56.731        0.041      329.117       -4.356      855.914
12/07/2013  15:28:00      -68.614      469.263      -53.743       94.943      126.500       62.214     9014.218    16002.364     3870.635       12.834        1.444      474.252       63.709        0.018      329.043       -4.476      855.934
12/07/2013  15:29:00      -77.049      372.790      -32.887      106.497      164.599       63.952    11341.566    27092.762     4089.818        9.425        2.126      380.669       78.936        0.043      329.131       -4.330      855.948
12/07/2013  15:30:00      -70.911      400.518      -44.311       88.511      127.917       50.321     7834.129    16362.752     2532.250        9.706        1.336      406.747       45.472        0.012      329.009       -4.531      855.991
12/07/2013  15:31:00      -98.373      497.655      -65.652      127.560      155.462       65.338    16271.501    24168.409     4269.003       15.317        2.235      507.285       77.841        0.024      328.919       -4.676      856.027
12/07/2013  15:32:00      -85.540      609.292      -74.246      103.336      144.395       64.567    10678.283    20850.039     4168.945       20.987        1.785      615.267       63.262        0.011      328.801       -4.872      856.062
12/07/2013  15:33:00     -105.806      628.196      -74.101      102.271      174.703       68.504    10459.310    30521.191     4692.833       22.849        2.284      637.044       83.960        0.017      328.761       -4.936      856.108
12/07/2013  15:34:00     -122.696      536.813      -70.266      102.412      157.066       60.948    10488.247    24669.853     3714.615       17.351        1.944      550.656       65.925        0.014      328.744       -4.963      856.131
12/07/2013  15:35:00      -64.212      422.589      -61.426       88.561      111.712       50.009     7843.028    12479.585     2500.856       10.465        1.141      427.439       27.855        0.004      328.864       -4.769      856.144
12/07/2013  15:36:00      -65.038      453.565      -50.933       96.151      185.591       70.479     9245.043    34443.909     4967.292       13.059        2.433      458.204       84.292        0.034      328.855       -4.782      856.158
12/07/2013  15:37:00      -83.173      552.280      -67.641      100.963      144.666       58.216    10193.498    20928.131     3389.088       17.550        1.726      558.508       50.331        0.008      328.790       -4.888      856.158
12/07/2013  15:38:00      -45.317      478.622      -63.902       76.612      155.225       52.250     5869.324    24094.686     2730.023       13.395        1.635      480.762       55.543        0.013      328.798       -4.875      856.169
12/07/2013  15:39:00      -79.071      394.746      -40.946       77.115      116.519       62.496     5946.721    13576.629     3905.807        9.359        1.171      402.587       65.421        0.026      328.870       -4.758      856.186
12/07/2013  15:40:00     -137.330      348.929      -42.069      104.481      123.808       60.682    10916.178    15328.380     3682.276        8.615        1.496      374.981       66.238        0.031      328.847       -4.796      856.196
12/07/2013  15:41:00     -167.161      380.790      -48.534      131.517      153.234       70.212    17296.609    23480.634     4929.678       11.049        2.285      415.865       77.338        0.035      328.832       -4.819      856.211
12/07/2013  15:42:00     -170.886      394.282      -55.798      108.438      130.646       68.327    11758.836    17068.307     4668.541       11.063        1.675      429.722       54.381        0.016      328.763       -4.932      856.206
12/07/2013  15:43:00     -141.449      344.583      -32.570       97.998      119.825       69.726     9603.533    14358.014     4861.667        8.431        1.441      372.486       66.805        0.032      328.778       -4.909      856.218
12/07/2013  15:44:00     -178.741      339.347      -49.895       96.639      116.600       60.628     9339.093    13595.470     3675.744        8.810        1.331      383.542       56.701        0.022      328.785       -4.896      856.238
12/07/2013  15:45:00      -78.839      232.538      -31.841      132.265      120.092       52.782    17493.981    14422.194     2785.963        4.800        1.735      245.539       36.868        0.023      328.847       -4.795      856.256
12/07/2013  15:46:00      -64.352      360.174      -41.435       70.318      128.675       46.119     4944.599    16557.230     2126.985        7.960        1.181      365.878       55.844        0.023      328.748       -4.957      856.272
12/07/2013  15:47:00     -140.289      366.064      -56.780      123.872      149.947       68.591    15344.167    22484.163     4704.666        9.971        2.127      392.025       65.635        0.028      328.742       -4.966      856.325
12/07/2013  15:48:00     -113.379      327.363      -49.396       98.605      118.700       59.414     9722.941    14089.618     3530.031        7.490        1.367      346.441       55.392        0.026      328.698       -5.038      856.352
12/07/2013  15:49:00      -33.259      352.890      -42.508       91.577      115.611       59.862     8386.425    13365.943     3583.401        7.639        1.267      354.454       61.322        0.030      328.653       -5.112      856.349
12/07/2013  15:50:00      -85.839      527.981      -59.762       96.287      147.176       56.372     9271.112    21660.660     3177.749       16.190        1.705      534.913       60.754        0.013      328.502       -5.358      856.348
12/07/2013  15:51:00     -150.803      412.735      -48.346      107.544      171.605       73.611    11565.610    29448.403     5418.632       12.092        2.322      439.422       88.687        0.041      328.531       -5.309      856.378
12/07/2013  15:52:00     -151.722      351.236      -47.367      100.531      151.313       65.037    10106.463    22895.696     4229.857        9.292        1.862      382.604       69.379        0.033      328.551       -5.278      856.392
12/07/2013  15:53:00     -209.386      425.283      -63.903      103.199      128.040       58.575    10649.936    16394.128     3430.976       12.963        1.524      474.034       56.097        0.014      328.476       -5.401      856.404
12/07/2013  15:54:00     -192.201      459.044      -68.505      100.690      122.449       68.489    10138.403    14993.678     4690.774       14.108        1.491      497.657       62.854        0.016      328.471       -5.408      856.421
12/07/2013  15:55:00     -183.097      389.961      -57.207      101.726      159.458       70.037    10348.198    25427.010     4905.132       11.477        2.034      430.806       66.921        0.024      328.528       -5.315      856.449
12/07/2013  15:56:00     -132.624      322.044      -46.471       86.393      174.605       55.107     7463.790    30486.819     3036.799        8.222        2.049      348.283       65.288        0.035      328.551       -5.278      856.469
12/07/2013  15:57:00     -112.373      283.192      -35.288       87.350      130.262       53.989     7629.976    16968.146     2914.800        6.079        1.376      304.672       47.639        0.024      328.618       -5.169      856.491
12/07/2013  15:58:00     -139.948      342.555      -39.672       80.568      112.943       52.543     6491.235    12756.137     2760.774        8.025        1.100      370.040       52.931        0.020      328.512       -5.341      856.488
12/07/2013  15:59:00     -120.998      403.230      -42.765      105.013      131.835       63.579    11027.783    17380.345     4042.242       10.575        1.623      420.993       61.251        0.021      328.470       -5.410      856.489
12/07/2013  16:00:00     -170.472      373.651      -62.309       89.697      125.694       56.951     8045.573    15798.896     3243.431        9.982        1.354      410.701       46.053        0.013      328.424       -5.486      856.502
12/07/2013  16:01:00     -130.249      322.096      -33.062      122.391      118.389       70.111    14979.462    14015.976     4915.483        7.785        1.696      347.434       78.176        0.051      328.456       -5.434      856.534
12/07/2013  16:02:00     -104.808      248.169      -24.831       90.567      106.616       52.835     8202.292    11367.059     2791.547        4.777        1.118      269.392       53.097        0.039      328.510       -5.345      856.545
12/07/2013  16:03:00     -107.847      234.727      -31.169      120.228      106.765       55.785    14454.828    11398.682     3112.016        4.833        1.448      258.317       55.727        0.047      328.513       -5.339      856.551
12/07/2013  16:04:00     -166.099      198.951      -28.536       91.205      109.173       58.455     8318.368    11918.741     3416.943        4.581        1.183      259.172       59.888        0.053      328.499       -5.364      856.556
12/07/2013  16:05:00      -42.801      269.087      -35.903       61.717       66.543       38.293     3809.008     4427.907     1466.357        4.261        0.485      272.470       27.052        0.010      328.465       -5.420      856.543
12/07/2013  16:06:00      -62.046      242.055      -22.955       59.590       80.226       44.896     3551.024     6436.138     2015.606        3.748        0.600      249.881       44.847        0.032      328.546       -5.288      856.529
12/07/2013  16:07:00      -81.203      240.393      -35.342       81.263       96.643       47.165     6603.667     9339.928     2224.507        4.190        0.908      253.737       51.336        0.041      328.573       -5.242      856.533
12/07/2013  16:08:00     -101.610      205.642      -19.268       95.475      143.962       56.099     9115.478    20724.929     3147.091        4.298        1.649      229.376       49.598        0.047      328.599       -5.201      856.537
12/07/2013  16:09:00      -92.095      313.736      -27.447       88.256      135.436       54.907     7789.131    18342.800     3014.798        6.840        1.457      326.974       55.420        0.029      328.560       -5.265      856.529
12/07/2013  16:10:00     -120.156      178.102      -25.328       67.700       90.098       54.434     4583.357     8117.632     2963.102        3.123        0.783      214.844       44.172        0.042      328.631       -5.146      856.545
12/07/2013  16:11:00      -93.624      192.392      -18.970       67.952       97.196       46.502     4617.436     9447.074     2162.411        3.118        0.811      213.963       47.590        0.049      328.593       -5.208      856.550
12/07/2013  16:12:00     -112.397      105.753      -15.757       56.291       85.131       36.982     3168.650     7247.357     1367.666        1.792        0.589      154.327       28.426        0.034      328.685       -5.058      856.564
12/07/2013  16:13:00     -105.700      134.159      -12.220       68.231       84.044       50.291     4655.413     7063.417     2529.175        2.178        0.712      170.796       38.218        0.050      328.603       -5.191      856.604
12/07/2013  16:14:00      -79.360      194.316      -14.109       57.929      118.600       45.257     3355.805    14065.980     2048.229        3.186        0.974      209.897       45.193        0.046      328.581       -5.229      856.624
12/07/2013  16:15:00     -111.359      243.783      -30.273       75.824       96.835       53.297     5749.308     9377.009     2840.549        4.535        0.898      268.013       46.874        0.031      328.522       -5.326      856.636
12/07/2013  16:16:00     -129.523      154.031      -17.643       89.243       84.983       57.659     7964.231     7222.066     3324.555        2.966        0.926      201.250       47.558        0.056      328.596       -5.204      856.637
12/07/2013  16:17:00      -95.951      248.584      -24.137       57.917       96.157       49.063     3354.329     9246.257     2407.185        4.329        0.750      266.460       50.501        0.036      328.462       -5.422      856.636
12/07/2013  16:18:00     -131.273      294.128      -31.105       94.657      152.477       61.929     8959.984    23249.251     3835.184        7.037        1.802      322.093       70.510        0.048      328.439       -5.462      856.637
12/07/2013  16:19:00     -107.520      297.864      -31.067       93.970      140.529       60.934     8830.290    19748.272     3712.949        6.676        1.615      316.676       51.627        0.027      328.484       -5.386      856.656
12/07/2013  16:20:00     -106.828      209.045      -22.021       76.044       93.996       46.148     5782.718     8835.241     2129.622        3.617        0.837      234.760       42.573        0.033      328.517       -5.333      856.677
12/07/2013  16:21:00     -113.627      254.738      -33.515       64.220      105.319       59.602     4124.201    11092.016     3552.405        4.884        0.938      278.931       46.783        0.028      328.506       -5.350      856.703
12/07/2013  16:22:00      -93.184      281.426      -25.443       81.937      159.317       50.911     6713.737    25382.065     2591.964        6.160        1.734      296.452       39.804        0.018      328.512       -5.342      856.730
12/07/2013  16:23:00     -176.759      140.791      -32.592      100.551      149.311       52.575    10110.444    22293.919     2764.183        4.364        1.758      225.977       66.985        0.088      328.584       -5.225      856.767
12/07/2013  16:24:00     -191.503      196.915      -36.706       77.824       79.639       53.337     6056.603     6342.356     2844.806        4.602        0.762      274.680       40.546        0.022      328.432       -5.473      856.808
12/07/2013  16:25:00     -132.563      148.447      -17.429       56.886       64.137       41.818     3236.025     4113.561     1748.778        2.450        0.455      199.021       30.483        0.023      328.439       -5.461      856.831
12/07/2013  16:26:00     -110.837      290.799      -44.072       79.599      134.758       56.416     6336.034    18159.763     3182.743        6.323        1.384      311.206       65.751        0.045      328.415       -5.499      856.833
12/07/2013  16:27:00     -125.250      464.676      -45.482      131.000      145.749       77.442    17161.110    21242.682     5997.194       13.903        2.220      481.261       59.271        0.015      328.381       -5.555      856.837
12/07/2013  16:28:00     -108.656      425.151      -42.832       90.102      130.136       60.564     8118.398    16935.263     3667.979       11.155        1.436      438.816       62.191        0.020      328.342       -5.620      856.825
12/07/2013  16:29:00     -134.873      318.456      -48.573      101.636      177.240       53.073    10329.842    31414.133     2816.772        8.325        2.228      345.839       56.005        0.026      328.454       -5.437      856.847
12/07/2013  16:30:00      -83.714      242.846      -24.553      100.406      102.503       47.577    10081.326    10506.769     2263.606        4.471        1.143      256.870       48.001        0.035      328.507       -5.349      856.840
12/07/2013  16:31:00     -127.317      182.393      -15.090      100.219      116.540       60.719    10043.757    13581.630     3686.845        3.850        1.366      222.434       62.660        0.079      328.514       -5.338      856.869
12/07/2013  16:32:00     -148.603      282.144      -28.390       81.911      110.531       57.996     6709.424    12217.063     3363.486        6.239        1.114      318.886       50.618        0.025      328.483       -5.390      856.925
12/07/2013  16:33:00     -267.892      227.091      -53.609      114.539      188.006       66.317    13119.183    35346.128     4398.008        8.953        2.643      351.193       71.295        0.041      328.410       -5.508      856.963
12/07/2013  16:34:00     -214.445      128.137      -37.610       85.090       82.736       54.368     7240.315     6845.238     2955.875        4.043        0.852      249.811       51.595        0.043      328.432       -5.473      856.983
12/07/2013  16:35:00     -304.067       -6.357       -2.132      135.965      122.651       62.558    18486.348    15043.336     3913.479        6.496        1.872      304.133       64.798        0.045      328.137       -5.953      857.036
12/07/2013  16:36:00     -113.236       13.076       13.463      144.757      147.783       74.505    20954.684    21839.780     5551.059        3.075        2.417      113.989       69.456        0.371      328.170       -5.897      857.055
12/07/2013  16:37:00     -244.085      121.374      -41.193      132.247       91.872       48.491    17489.368     8440.460     2351.363        5.214        1.414      272.597       48.817        0.032      328.085       -6.038      857.076
12/07/2013  16:38:00     -238.259      145.738      -27.815       90.973       87.105       51.248     8276.174     7587.301     2626.350        4.863        0.924      279.297       43.647        0.024      328.100       -6.012      857.103
12/07/2013  16:39:00     -196.462      -45.446      -21.745      149.770      134.784       58.772    22430.966    18166.775     3454.129        4.258        2.203      201.650       47.184        0.055      328.139       -5.949      857.097
12/07/2013  16:40:00     -361.291      -92.373       -4.095      155.900      120.935       64.183    24304.949    14625.271     4119.413        9.106        2.152      372.913       64.703        0.030      328.209       -5.834      857.133
12/07/2013  16:41:00     -386.512     -101.694      -16.071      151.349      118.268       68.539    22906.478    13987.380     4697.539       10.078        2.080      399.666       74.304        0.035      328.212       -5.831      857.118
12/07/2013  16:42:00     -170.011      -52.702        9.660      173.672      110.737       61.548    30162.099    12262.659     3788.105        3.898        2.311      177.993       80.461        0.204      328.215       -5.824      857.096
12/07/2013  16:43:00     -116.805       -6.194      -13.218       91.380       72.344       48.277     8350.248     5233.641     2330.688        1.488        0.796      116.969       47.470        0.165      328.277       -5.723      857.115
12/07/2013  16:44:00     -150.511      -51.575       -1.933      100.529       84.936       44.772    10106.099     7214.190     2004.573        2.232        0.966      159.102       38.734        0.059      328.280       -5.718      857.160
12/07/2013  16:45:00     -214.921      -59.042      -14.129       92.974       69.505       56.454     8644.168     4830.989     3187.102        3.327        0.833      222.884       53.562        0.058      328.204       -5.843      857.164
12/07/2013  16:46:00     -136.337       -2.392       -4.411       93.580       56.599       41.947     8757.238     3203.438     1759.519        1.616        0.686      136.358       37.709        0.076      328.138       -5.950      857.186
12/07/2013  16:47:00     -101.321       79.635      -10.276       51.777       67.126       33.334     2680.850     4505.947     1111.170        1.250        0.415      128.871       28.029        0.047      328.125       -5.971      857.222
12/07/2013  16:48:00     -127.961       93.454      -29.731       44.886       74.895       32.466     2014.712     5609.228     1054.067        1.733        0.434      158.454       28.859        0.033      328.216       -5.822      857.219
12/07/2013  16:49:00     -199.090      -59.496      -18.816       65.944       38.717       31.400     4348.545     1498.988      985.937        2.518        0.342      207.790        8.954        0.002      328.185       -5.872      857.210
12/07/2013  16:50:00     -175.038      -31.781      -16.106       49.115       45.671       32.582     2412.241     2085.855     1061.606        1.873        0.278      177.900       14.120        0.006      328.250       -5.766      857.212
12/07/2013  16:51:00     -129.627       31.153      -25.571       51.371       57.628       39.134     2639.004     3321.033     1531.443        1.296        0.375      133.318       18.401        0.019      328.320       -5.653      857.227
12/07/2013  16:52:00     -154.651       56.327      -24.334       87.192       79.204       42.832     7602.475     6273.350     1834.599        2.169        0.786      164.590       47.125        0.082      328.246       -5.774      857.229
12/07/2013  16:53:00     -154.616       10.676      -14.269       79.612       45.654       44.527     6338.067     2084.329     1982.676        1.731        0.520      154.984       43.382        0.078      328.239       -5.785      857.235
12/07/2013  16:54:00     -203.054      -16.972      -17.991       61.762       68.217       43.465     3814.494     4653.525     1889.220        2.610        0.518      203.762       37.646        0.034      328.138       -5.950      857.255
12/07/2013  16:55:00     -162.128       93.292      -34.743       48.912       84.930       46.550     2392.420     7213.187     2166.860        2.398        0.589      187.053       31.585        0.029      328.159       -5.916      857.281
12/07/2013  16:56:00     -217.571       99.170      -38.333       90.789      122.155       67.184     8242.602    14921.964     4513.637        4.315        1.384      239.106       56.999        0.057      328.216       -5.824      857.313
12/07/2013  16:57:00     -192.140      151.204      -29.068      114.645      117.306       51.197    13143.452    13760.690     2621.084        4.507        1.476      244.501       64.525        0.070      328.188       -5.869      857.340
12/07/2013  16:58:00     -188.798      184.565      -28.672      118.954      143.343       60.676    14150.161    20547.093     3681.616        5.445        1.919      264.024       73.542        0.078      328.201       -5.849      857.333
12/07/2013  16:59:00     -263.159      362.716      -75.902       94.148      113.142       57.793     8863.816    12801.054     3339.997       11.579        1.250      448.124       53.202        0.014      328.158       -5.918      857.335
12/07/2013  17:00:00     -145.564      199.561      -26.469       69.313       94.486       48.585     4804.307     8927.528     2360.500        3.890        0.805      247.009       50.972        0.043      328.254       -5.762      857.330
12/07/2013  17:01:00     -137.843      252.856      -45.806       69.624       67.994       48.091     4847.488     4623.206     2312.769        4.841        0.589      287.988       40.961        0.020      328.180       -5.883      857.341
12/07/2013  17:02:00     -102.199      182.475      -25.369       34.326       61.459       31.181     1178.244     3777.173      972.274        2.516        0.296      209.145       21.760        0.011      328.246       -5.774      857.331
12/07/2013  17:03:00      -40.881      154.055      -12.524       74.342       82.881       43.803     5526.748     6869.302     1918.710        1.993        0.716      159.386       40.169        0.064      328.336       -5.626      857.345
12/07/2013  17:04:00     -103.537      308.603      -41.243       98.458       93.341       61.439     9694.055     8712.510     3774.765        6.491        1.109      325.509       52.981        0.026      328.250       -5.770      857.373
12/07/2013  17:05:00     -108.478      261.969      -23.720      105.274      114.450       52.714    11082.558    13098.889     2778.817        5.395        1.348      283.541       53.714        0.036      328.242       -5.783      857.385
12/07/2013  17:06:00     -142.689      327.013      -34.577      109.157      105.644       56.095    11915.195    11160.644     3146.646        7.735        1.311      356.788       54.770        0.024      328.214       -5.827      857.416
12/07/2013  17:07:00      -98.945      247.325      -35.925      101.972       94.395       43.961    10398.200     8910.340     1932.611        4.674        1.062      266.382       36.951        0.019      328.256       -5.759      857.429
12/07/2013  17:08:00      -82.577      221.566      -24.697       63.743       77.950       47.311     4063.132     6076.246     2238.308        3.445        0.619      236.454       43.484        0.034      328.364       -5.583      857.436
12/07/2013  17:09:00     -127.273      301.142      -38.565       89.069      118.797       61.293     7933.255    14112.656     3756.880        6.708        1.290      326.933       72.597        0.049      328.241       -5.782      857.463
12/07/2013  17:10:00     -156.453      283.772      -39.965       74.183      132.874       49.267     5503.075    17655.607     2427.225        6.609        1.279      324.043       54.253        0.028      328.258       -5.756      857.491
12/07/2013  17:11:00     -213.596      285.436      -65.712      114.478      102.247       56.712    13105.137    10454.373     3216.298        7.909        1.339      356.506       56.558        0.025      328.262       -5.750      857.518
12/07/2013  17:12:00     -122.528      186.665      -21.478       89.394       85.878       52.893     7991.332     7375.076     2797.640        3.424        0.908      223.286       55.841        0.063      328.368       -5.576      857.561
12/07/2013  17:13:00     -135.162      140.858      -31.884       64.104       77.049       41.019     4109.330     5936.480     1682.546        2.542        0.586      195.217       35.870        0.034      328.283       -5.712      857.588
12/07/2013  17:14:00     -119.391      179.104       -4.659       59.963       87.804       53.102     3595.585     7709.538     2819.828        3.024        0.706      215.249       31.618        0.022      328.277       -5.724      857.594
12/07/2013  17:15:00     -196.919       80.111      -38.440       79.491      137.683       51.920     6318.771    18956.611     2695.693        3.732        1.399      212.591       63.550        0.089      328.339       -5.623      857.590
12/07/2013  17:16:00     -115.655      105.139      -30.242       70.376      132.149       49.117     4952.716    17463.337     2412.499        2.508        1.241      156.302       45.770        0.086      328.354       -5.597      857.630
12/07/2013  17:17:00     -125.142       59.806      -11.734       56.442       91.774       40.835     3185.712     8422.409     1667.479        1.632        0.664      138.699       40.757        0.086      328.350       -5.604      857.665
12/07/2013  17:18:00     -137.308      165.210       -6.337      119.079      133.538       64.710    14179.898    17832.508     4187.380        4.119        1.810      214.820       66.319        0.095      328.322       -5.650      857.712
12/07/2013  17:19:00      -95.443      169.664      -22.474       68.269       93.700       48.055     4660.666     8779.671     2309.303        2.707        0.787      194.667       50.610        0.068      328.294       -5.697      857.766
12/07/2013  17:20:00     -224.325      246.156      -66.713       95.659       90.567       44.275     9150.609     8202.407     1960.262        6.734        0.966      333.038       49.014        0.022      328.238       -5.787      857.783
12/07/2013  17:21:00     -128.913      205.555      -35.373       68.406       73.631       39.856     4679.358     5421.474     1588.540        3.590        0.584      242.634       36.889        0.023      328.257       -5.758      857.780
12/07/2013  17:22:00     -182.290      262.323      -46.009      115.300       77.825       52.803    13294.156     6056.791     2788.168        6.315        1.107      319.442       45.393        0.020      328.296       -5.695      857.787
12/07/2013  17:23:00     -100.033      183.154      -24.062       55.135       83.375       40.575     3039.862     6951.368     1646.298        2.788        0.582      208.691       37.000        0.031      328.304       -5.680      857.797
12/07/2013  17:24:00     -146.466      231.081      -44.545      121.457      147.117       57.848    14751.863    21643.431     3346.425        5.828        1.987      273.588       77.926        0.081      328.318       -5.656      857.810
12/07/2013  17:25:00     -127.971      225.837      -45.092       82.566       61.040       46.686     6817.110     3725.931     2179.592        4.106        0.636      259.574       40.923        0.025      328.255       -5.761      857.840
12/07/2013  17:26:00     -156.379      275.994      -34.241       98.092      134.797       50.327     9621.957    18170.237     2532.769        6.606        1.516      317.218       59.772        0.036      328.287       -5.708      857.878
12/07/2013  17:27:00     -137.034      305.059      -40.720      122.293      127.621       71.739    14955.519    16287.187     5146.478        7.494        1.819      334.424       71.183        0.045      328.291       -5.703      857.931
12/07/2013  17:28:00     -154.193      265.418      -35.964       91.355       95.748       59.396     8345.809     9167.689     3527.915        5.827        1.052      306.957       45.517        0.022      328.306       -5.679      857.943
12/07/2013  17:29:00     -216.144      308.548      -58.884      125.372      135.891       60.161    15718.052    18466.450     3619.307        9.159        1.890      376.723       53.391        0.020      328.227       -5.806      858.006
12/07/2013  17:30:00     -166.720      249.185      -35.552      111.311      125.662       61.508    12390.246    15790.941     3783.282        6.155        1.598      299.815       74.737        0.062      328.240       -5.785      858.032
12/07/2013  17:31:00     -136.820      258.789      -42.566      109.825      103.302       60.111    12061.606    10671.336     3613.346        5.692        1.317      292.731       62.738        0.046      328.246       -5.775      858.053
12/07/2013  17:32:00     -140.019      214.290      -24.502      125.629      126.204       65.094    15782.633    15927.326     4237.251        5.103        1.797      255.979       65.157        0.065      328.297       -5.692      858.070
12/07/2013  17:33:00     -106.419      364.015      -45.489       87.047      124.284       51.628     7577.186    15446.542     2665.482        8.579        1.284      379.252       59.586        0.025      328.222       -5.813      858.090
12/07/2013  17:34:00     -120.661      159.633      -36.902       76.242       82.157       46.809     5812.832     6749.748     2191.081        2.808        0.738      200.104       40.082        0.040      328.359       -5.591      858.122
12/07/2013  17:35:00     -155.854      169.569      -26.885       89.932       93.771       61.674     8087.829     8792.908     3803.737        3.722        1.034      230.313       58.958        0.066      328.276       -5.726      858.168
12/07/2013  17:36:00     -184.868      236.114      -33.645      111.763       90.596       64.269    12490.973     8207.597     4130.441        5.794        1.241      299.877       56.294        0.035      328.228       -5.805      858.183
12/07/2013  17:37:00     -165.064      249.480      -41.354       79.951      108.726       56.171     6392.135    11821.362     3155.132        5.628        1.068      299.143       44.888        0.023      328.236       -5.793      858.180
12/07/2013  17:38:00      -97.660      133.850      -21.160       83.895      105.349       44.886     7038.336    11098.498     2014.718        2.402        1.008      165.690       38.150        0.053      328.287       -5.706      858.206
12/07/2013  17:39:00     -158.546      200.150      -33.338       86.414      129.523       58.012     7467.408    16776.204     3365.356        4.695        1.380      255.337       49.640        0.038      328.252       -5.766      858.210
12/07/2013  17:40:00     -116.692      169.303      -26.902       86.786       97.317       50.614     7531.795     9470.622     2561.732        3.128        0.978      205.623       58.964        0.082      328.316       -5.657      858.220
12/07/2013  17:41:00     -106.536      167.081      -17.439      107.482      101.056       55.039    11552.350    10212.240     3029.317        3.218        1.240      198.156       64.396        0.106      328.304       -5.679      858.230
12/07/2013  17:42:00     -102.114      301.852      -43.095       58.750       86.677       38.664     3451.617     7512.843     1494.928        5.793        0.623      318.656       35.523        0.012      328.203       -5.845      858.232
12/07/2013  17:43:00      -84.140      301.969      -23.991       86.489      146.269       61.212     7480.292    21394.691     3746.932        6.572        1.631      313.472       64.871        0.043      328.254       -5.762      858.236
12/07/2013  17:44:00      -94.212      226.917      -16.021       89.388      156.380       59.842     7990.148    24454.780     3581.108        4.832        1.801      245.698       52.593        0.046      328.275       -5.728      858.252
12/07/2013  17:45:00      -91.481      197.337      -20.078       61.551       76.938       37.328     3788.530     5919.409     1393.414        2.941        0.555      217.510       26.602        0.015      328.287       -5.708      858.259
12/07/2013  17:46:00      -94.093      211.336      -19.440       89.673      131.265       53.956     8041.249    17230.481     2911.217        4.103        1.409      231.336       36.366        0.025      328.269       -5.737      858.273
12/07/2013  17:47:00      -79.013      176.067        6.673       96.870      153.543       56.618     9383.707    23575.544     3205.636        3.672        1.808      192.984       54.853        0.081      328.322       -5.650      858.297
12/07/2013  17:48:00     -112.972      258.107      -29.057       79.141      122.311       61.149     6263.296    14960.063     3739.145        5.259        1.248      281.748       40.331        0.020      328.264       -5.746      858.325
12/07/2013  17:49:00     -130.403      204.981      -30.893      105.254       98.958       57.648    11078.306     9792.732     3323.265        4.208        1.210      242.944       42.471        0.031      328.256       -5.758      858.315
12/07/2013  17:50:00     -124.642      315.700      -50.438      124.730      113.603       61.696    15557.652    12905.647     3806.427        7.500        1.613      339.414       53.818        0.025      328.198       -5.853      858.315
12/07/2013  17:51:00     -172.835      299.566      -38.014       96.608      115.750       55.243     9333.073    13398.092     3051.765        7.341        1.289      345.850       31.389        0.008      328.198       -5.854      858.337
12/07/2013  17:52:00     -114.155      297.300      -28.108      105.729       95.873       62.796    11178.544     9191.542     3943.354        6.326        1.216      318.463       53.711        0.028      328.244       -5.778      858.372
12/07/2013  17:53:00     -145.978      217.548      -25.536      114.014      153.460       60.194    12999.170    23550.015     3623.262        5.472        2.009      261.986       57.317        0.048      328.219       -5.820      858.388
12/07/2013  17:54:00      -95.990      259.056      -32.815       75.790       95.974       40.760     5744.055     9210.920     1661.393        4.701        0.831      276.268       37.963        0.019      328.225       -5.810      858.400
12/07/2013  17:55:00     -140.480      240.328      -38.328      122.648      126.166       60.247    15042.519    15917.770     3629.682        5.677        1.729      278.374       70.078        0.063      328.242       -5.783      858.420
12/07/2013  17:56:00     -191.265      285.733      -63.075      130.355      117.175       48.144    16992.499    13730.024     2317.818        7.762        1.652      343.840       67.172        0.038      328.195       -5.857      858.420
12/07/2013  17:57:00     -105.889      171.713      -30.170       72.650      131.403       50.020     5278.030    17266.707     2501.978        3.332        1.252      201.737       56.501        0.078      328.284       -5.710      858.429
12/07/2013  17:58:00     -157.182      230.132      -30.834       90.914      110.916       61.428     8265.396    12302.404     3773.410        5.147        1.217      278.688       51.758        0.034      328.202       -5.846      858.442
12/07/2013  17:59:00      -92.343      233.801      -32.815       67.720      105.754       55.768     4586.041    11183.819     3110.094        4.157        0.944      251.377       51.280        0.042      328.249       -5.770      858.460
12/07/2013  18:00:00     -110.786      320.984      -34.029      104.338       93.332       47.524    10886.327     8710.791     2258.501        6.915        1.093      339.565       45.112        0.018      328.204       -5.843      858.478
12/07/2013  18:01:00      -47.124      318.261      -29.314       59.780      105.000       44.638     3573.682    11024.956     1992.585        6.048        0.830      321.731       51.873        0.026      328.212       -5.830      858.496
12/07/2013  18:02:00      -59.226      282.077      -21.354       77.702      161.046       54.920     6037.642    25935.821     3016.215        5.925        1.749      288.227       69.747        0.059      328.264       -5.744      858.508
12/07/2013  18:03:00      -78.351      248.127      -11.935      126.603      142.370       69.188    16028.306    20269.320     4786.988        5.446        2.054      260.203       75.053        0.083      328.255       -5.759      858.515
12/07/2013  18:04:00      -51.167      164.362      -10.969       92.661       74.446       55.893     8586.024     5542.281     3124.008        2.350        0.863      172.142       52.754        0.094      328.213       -5.828      858.523
12/07/2013  18:05:00      -58.195      231.093      -13.671       83.903      114.221       64.241     7039.797    13046.480     4126.918        4.059        1.211      238.308       64.847        0.074      328.226       -5.807      858.554
12/07/2013  18:06:00      -44.579      321.166      -39.369       80.717      136.953       54.752     6515.254    18756.068     2997.771        6.747        1.413      324.245       60.986        0.035      328.159       -5.916      858.569
12/07/2013  18:07:00      -66.763      339.557      -39.937      106.110      171.936       56.044    11259.317    29561.993     3140.931        8.265        2.198      346.059       72.140        0.043      328.192       -5.863      858.589
12/07/2013  18:08:00      -96.183      353.355      -47.208       87.065      107.432       37.520     7580.261    11541.697     1407.751        7.843        1.026      366.212       35.527        0.009      328.157       -5.920      858.616
12/07/2013  18:09:00     -171.792      223.853      -21.028      125.741      117.681       70.258    15810.880    13848.860     4936.239        5.732        1.730      282.175       55.667        0.039      328.223       -5.812      858.655
12/07/2013  18:10:00      -79.275      156.969      -13.128       83.539       95.525       45.997     6978.797     9124.957     2115.739        2.465        0.911      175.852       42.120        0.057      328.306       -5.676      858.709
12/07/2013  18:11:00      -95.276      183.543      -13.790      108.526      104.225       66.252    11777.793    10862.867     4389.386        3.499        1.352      206.798       61.840        0.089      328.248       -5.772      858.726
12/07/2013  18:12:00      -87.659      329.812      -33.160       72.590      128.803       51.101     5269.351    16590.220     2611.331        7.101        1.224      341.263       56.089        0.027      328.212       -5.831      858.746
12/07/2013  18:13:00     -131.624      378.818      -26.211      125.843      167.306       75.151    15836.383    27991.409     5647.632       10.549        2.474      401.034       85.720        0.046      328.186       -5.874      858.775
12/07/2013  18:14:00      -78.483      298.659      -34.848       78.940      137.119       57.085     6231.445    18801.566     3258.738        6.243        1.415      308.799       52.224        0.029      328.172       -5.895      858.810
12/07/2013  18:15:00      -85.720      345.720      -40.410       91.934      115.425       60.111     8451.906    13322.856     3613.387        7.694        1.269      356.189       51.884        0.021      328.185       -5.874      858.833
12/07/2013  18:16:00      -87.919      299.487      -45.701       92.669      108.835       52.741     8587.624    11845.041     2781.561        6.136        1.161      312.125       32.414        0.011      328.239       -5.787      858.869
12/07/2013  18:17:00      -78.210      345.094      -37.293       74.008      141.748       60.995     5477.220    20092.440     3720.387        7.794        1.465      353.845       65.530        0.034      328.182       -5.880      858.869
12/07/2013  18:18:00      -74.085      426.834      -43.319       99.224      165.553       60.823     9845.427    27407.677     3699.488       11.524        2.048      433.216       79.193        0.033      328.190       -5.865      858.881
12/07/2013  18:19:00      -81.550      335.782      -40.307       73.477      125.328       43.780     5398.931    15707.099     1916.688        7.202        1.151      345.543       50.823        0.022      328.221       -5.816      858.902
12/07/2013  18:20:00     -100.240      432.150      -47.617       78.831      138.693       54.492     6214.308    19235.828     2969.390       11.374        1.421      443.623       59.072        0.018      328.187       -5.872      858.926
12/07/2013  18:21:00      -62.398      243.913      -33.945       66.162      180.716       48.123     4377.451    32658.156     2315.802        5.194        1.968      251.768       43.937        0.030      328.268       -5.739      858.975
12/07/2013  18:22:00      -86.177      150.531      -18.039       82.546      107.253       47.618     6813.917    11503.247     2267.466        2.549        1.029      173.453       45.618        0.069      328.305       -5.678      859.012
12/07/2013  18:23:00      -88.096      183.754      -23.491       79.482      100.873       52.673     6317.337    10175.340     2774.463        3.067        0.963      203.781       50.747        0.062      328.292       -5.700      859.020
12/07/2013  18:24:00      -76.936       70.393       -9.813       46.704      100.512       36.487     2181.310    10102.647     1331.297        1.229        0.681      104.280       27.034        0.067      328.373       -5.565      859.031
12/07/2013  18:25:00      -45.440      112.303        1.330       69.473      129.009       43.927     4826.535    16643.269     1929.584        1.903        1.170      121.148       49.271        0.165      328.357       -5.593      859.056
12/07/2013  18:26:00      -96.432       97.955      -25.059       60.122       66.265       37.826     3614.689     4391.063     1430.826        1.448        0.472      137.456       29.390        0.046      328.328       -5.640      859.071
12/07/2013  18:27:00     -130.982       78.119       -8.751       70.090       68.449       47.877     4912.568     4685.238     2292.197        1.761        0.595      152.509       32.894        0.047      328.235       -5.792      859.091
12/07/2013  18:28:00     -148.773       89.715      -19.692       64.952       60.800       42.559     4218.762     3696.654     1811.292        2.015        0.486      173.731       31.459        0.033      328.253       -5.763      859.097
12/07/2013  18:29:00     -192.442      179.281      -40.178      148.034      134.453       72.737    21914.205    18077.731     5290.659        5.803        2.264      263.012       80.640        0.094      328.226       -5.808      859.088
12/07/2013  18:30:00     -123.706      169.699      -27.884       73.979       91.868       50.865     5472.961     8439.792     2587.240        3.069        0.825      210.002       48.899        0.054      328.227       -5.807      859.068
12/07/2013  18:31:00     -105.612      101.196      -23.551       81.860       99.787       46.313     6701.026     9957.350     2144.878        2.037        0.940      146.269       55.219        0.143      328.250       -5.767      859.059
12/07/2013  18:32:00      -74.420      147.982      -20.631       92.050       89.939       57.228     8473.131     8089.024     3275.057        2.385        0.992      165.641       52.730        0.101      328.304       -5.680      859.080
12/07/2013  18:33:00     -103.199      340.142      -31.550      121.967      181.676       79.304    14875.863    33006.324     6289.178        9.075        2.709      355.453       83.897        0.056      328.265       -5.745      859.092
12/07/2013  18:34:00     -182.626      330.323      -41.645      116.027      106.875       69.444    13462.285    11422.300     4822.442        8.695        1.485      377.446       59.335        0.025      328.176       -5.889      859.126
12/07/2013  18:35:00      -67.903      295.493      -32.303       81.298      185.950       66.883     6609.409    34577.315     4473.374        6.931        2.283      303.195       87.228        0.083      328.187       -5.872      859.151
12/07/2013  18:36:00      -86.411      359.815      -43.831      105.903      124.534       65.236    11215.546    15508.841     4255.719        8.491        1.549      370.045       65.814        0.032      328.163       -5.912      859.162
12/07/2013  18:37:00      -95.931      470.117      -56.474       74.468      154.286       58.885     5545.544    23804.171     3467.405       13.310        1.641      479.805       73.255        0.023      328.095       -6.022      859.174
12/07/2013  18:38:00      -93.776      357.561      -42.941       89.947      102.561       49.586     8090.428    10518.833     2458.820        7.977        1.053      369.654       50.090        0.018      328.101       -6.011      859.181
12/07/2013  18:39:00      -91.097      400.579      -42.713       72.799      209.631       51.619     5299.687    43944.952     2664.545       11.124        2.595      410.806       81.545        0.039      328.165       -5.907      859.181
12/07/2013  18:40:00     -113.299      346.277      -25.217      135.844      148.160       73.208    18453.712    21951.501     5359.472        8.956        2.288      364.341       81.646        0.050      328.148       -5.934      859.175
12/07/2013  18:41:00     -121.714      331.804      -49.436      120.588      161.197       61.549    14541.511    25984.393     3788.227        8.582        2.216      353.424       81.203        0.053      328.095       -6.021      859.176
12/07/2013  18:42:00     -129.084      264.142      -18.836      104.734      134.945       74.528    10969.281    18210.103     5554.349        6.075        1.737      293.996       77.822        0.070      328.155       -5.921      859.183
12/07/2013  18:43:00      -52.892      334.197      -38.555       65.510      112.471       42.835     4291.514    12649.806     1834.826        6.737        0.939      338.357       53.060        0.025      328.050       -6.093      859.184
12/07/2013  18:44:00      -98.805      185.866      -11.212      103.932       89.674       56.949    10801.936     8041.338     3243.236        3.326        1.104      210.496       50.115        0.057      328.191       -5.863      859.184
12/07/2013  18:45:00      -75.150      377.023      -28.800       94.612      123.301       60.731     8951.490    15203.123     3688.308        8.823        1.392      384.440       59.403        0.024      328.051       -6.093      859.202
12/07/2013  18:46:00      -85.249      182.919      -38.073       75.024       93.197       56.041     5628.613     8685.728     3140.603        2.981        0.873      201.809       34.792        0.030      328.148       -5.933      859.220
12/07/2013  18:47:00     -164.641      289.892      -45.191       95.060      128.994       51.474     9036.424    16639.573     2649.589        7.075        1.416      333.383       50.788        0.023      328.068       -6.065      859.249
12/07/2013  18:48:00      -57.393      178.432       -9.730       83.256       83.598       45.440     6931.550     6988.678     2064.821        2.560        0.799      187.435       36.037        0.037      328.102       -6.007      859.256
12/07/2013  18:49:00     -131.486      314.770      -45.521      111.371      131.328       59.299    12403.605    17247.038     3516.356        7.580        1.658      341.129       61.240        0.032      328.022       -6.138      859.247
12/07/2013  18:50:00      -65.115      281.186      -42.561      102.723      159.552       54.417    10551.972    25456.714     2961.233        6.204        1.948      288.627       47.651        0.027      328.066       -6.068      859.226
12/07/2013  18:51:00     -117.108      300.937      -30.830      108.248      120.381       65.998    11717.614    14491.516     4355.716        6.789        1.528      322.920       64.588        0.040      328.048       -6.098      859.251
12/07/2013  18:52:00      -75.277      331.871      -45.039       99.752      137.556       57.102     9950.397    18921.776     3260.614        7.498        1.607      340.301       50.011        0.022      328.032       -6.124      859.259
12/07/2013  18:53:00      -63.750      327.837      -30.575       77.353      156.318       52.718     5983.513    24435.356     2779.148        7.283        1.660      333.977       61.675        0.034      328.015       -6.151      859.273
12/07/2013  18:54:00      -28.629      363.578      -35.832       46.963       75.146       46.463     2205.569     5646.924     2158.852        7.215        0.501      364.704       39.628        0.012      327.954       -6.249      859.259
12/07/2013  18:55:00      -88.457      358.089      -40.194       72.279      119.109       50.787     5224.223    14186.836     2579.276        7.982        1.100      368.853       42.877        0.014      328.030       -6.125      859.252
12/07/2013  18:56:00     -119.542      434.715      -55.455      125.285      187.984       66.292    15696.247    35337.959     4394.590       13.087        2.771      450.852       71.658        0.025      327.981       -6.206      859.253
12/07/2013  18:57:00      -66.702      502.134      -48.055       74.933      175.328       63.143     5614.885    30739.919     3987.035       14.961        2.017      506.545       73.293        0.021      327.961       -6.239      859.236
12/07/2013  18:58:00      -92.887      325.813      -37.143       85.955      102.235       60.506     7388.214    10451.930     3660.973        6.883        1.075      338.795       53.620        0.025      328.049       -6.095      859.250
12/07/2013  18:59:00     -168.311      305.834      -50.556      139.540      107.544       60.429    19471.319    11565.706     3651.711        7.955        1.734      349.089       70.243        0.040      328.026       -6.132      859.251
12/07/2013  19:00:00      -67.639      372.981      -47.308       76.430      109.421       54.963     5841.500    11973.041     3020.914        8.338        1.042      379.064       48.771        0.017      327.962       -6.238      859.224
12/07/2013  19:01:00     -194.981      406.743      -68.987      102.892      120.586       65.295    10586.829    14541.099     4263.410       11.880        1.470      451.063       50.349        0.012      327.924       -6.301      859.210
12/07/2013  19:02:00      -71.260      336.750      -23.439      108.097      144.934       74.642    11684.949    21005.753     5571.426        7.864        1.913      344.207       69.709        0.041      327.980       -6.208      859.182
12/07/2013  19:03:00     -114.345      422.844      -55.976      125.552      137.921       70.584    15763.315    19022.283     4982.071       11.738        1.988      438.032       52.593        0.014      327.926       -6.297      859.182
12/07/2013  19:04:00      -68.610      347.530      -35.641       81.471      149.338       56.623     6637.544    22301.884     3206.206        7.944        1.607      354.238       69.757        0.039      327.957       -6.247      859.207
12/07/2013  19:05:00     -131.743      358.711      -51.105      114.920      191.634       73.014    13206.591    36723.581     5331.067       10.194        2.763      382.138       85.250        0.050      327.964       -6.234      859.231
12/07/2013  19:06:00     -101.163      391.007      -39.975      128.389      148.906       76.302    16483.640    22172.925     5821.989       10.459        2.224      403.882       85.291        0.045      327.964       -6.236      859.269
12/07/2013  19:07:00     -119.694      309.759      -40.131      112.314      133.033       61.687    12614.361    17697.685     3805.281        7.300        1.706      332.081       64.780        0.038      328.037       -6.116      859.301
12/07/2013  19:08:00     -155.631      310.565      -42.859      112.682      117.434       72.225    12697.220    13790.749     5216.478        7.710        1.585      347.378       64.070        0.034      327.930       -6.290      859.323
12/07/2013  19:09:00      -89.232      317.059      -27.918       82.471      155.774       64.950     6801.389    24265.660     4218.475        7.227        1.764      329.376       69.080        0.044      327.970       -6.223      859.336
12/07/2013  19:10:00     -166.316      352.443      -48.702       99.272      148.165       62.915     9854.946    21952.905     3958.324        9.500        1.788      389.715       67.238        0.030      327.907       -6.329      859.370
12/07/2013  19:11:00     -234.511      363.926      -60.648      116.097      120.188       71.642    13478.497    14445.198     5132.553       11.208        1.653      432.940       69.349        0.026      327.875       -6.380      859.406
12/07/2013  19:12:00     -125.466      357.281      -47.928       97.805      151.843       58.097     9565.876    23056.147     3375.294        9.084        1.800      378.671       60.342        0.025      327.925       -6.299      859.425
12/07/2013  19:13:00     -164.369      325.156      -36.388      121.631      139.882       73.427    14794.092    19566.978     5391.520        8.690        1.988      364.340       80.290        0.049      327.910       -6.324      859.427
12/07/2013  19:14:00     -187.531      338.577      -57.497      120.027      105.734       66.433    14406.394    11179.679     4413.283        9.155        1.500      387.043       74.591        0.037      327.910       -6.324      859.405
12/07/2013  19:15:00     -122.110      275.996      -24.068       86.808      115.816       53.593     7535.627    13413.378     2872.168        5.774        1.191      301.802       53.404        0.031      327.903       -6.336      859.369
12/07/2013  19:16:00     -161.063      356.107      -46.728      111.324      133.212       51.153    12393.005    17745.347     2616.590        9.384        1.638      390.837       52.205        0.018      327.887       -6.361      859.363
12/07/2013  19:17:00     -179.655      293.994      -47.536      131.364      117.648       61.709    17256.429    13841.119     3807.949        7.793        1.745      344.541       75.937        0.049      327.902       -6.337      859.348
12/07/2013  19:18:00     -138.304      256.322      -39.418       83.544       86.263       44.192     6979.646     7441.242     1952.959        5.138        0.819      291.254       41.775        0.021      327.906       -6.331      859.303
12/07/2013  19:19:00      -61.180      174.425        3.311       58.372       99.731       60.037     3407.347     9946.237     3604.417        2.556        0.848      184.844       58.452        0.100      328.060       -6.077      859.271
12/07/2013  19:20:00      -73.425      162.615      -11.620       84.718      129.017       56.229     7177.148    16645.360     3161.737        2.947        1.349      178.423       67.832        0.145      327.994       -6.185      859.279
12/07/2013  19:21:00      -92.720      309.418      -38.694       83.748      189.398       58.230     7013.734    35871.692     3390.768        7.605        2.314      323.012       63.963        0.039      327.890       -6.355      859.304
12/07/2013  19:22:00     -193.412      373.866      -45.617      115.723      144.233       76.007    13391.723    20803.299     5776.993       10.961        1.999      420.932       82.388        0.038      327.842       -6.435      859.330
12/07/2013  19:23:00     -160.380      307.260      -36.240      108.503      150.857       79.056    11772.795    22757.891     6249.880        8.110        2.039      346.598       84.250        0.059      327.858       -6.405      859.334
12/07/2013  19:24:00     -171.380      339.334      -42.136      108.673      130.330       66.499    11809.748    16985.956     4422.183        8.975        1.661      380.156       61.130        0.026      327.848       -6.426      859.316
12/07/2013  19:25:00     -161.592      227.074      -28.410       90.792      129.092       57.654     8243.260    16664.697     3324.040        5.335        1.412      278.702       58.830        0.045      327.866       -6.395      859.286
12/07/2013  19:26:00      -56.799      202.863       -2.959       71.128      110.429       55.981     5059.195    12194.522     3133.841        3.238        1.019      210.665       62.151        0.087      327.953       -6.251      859.264
12/07/2013  19:27:00     -133.168      364.584      -51.769      101.758      119.000       58.091    10354.648    14160.945     3374.522        9.061        1.395      388.144       54.926        0.020      327.831       -6.453      859.237
12/07/2013  19:28:00     -138.169      288.344      -48.496      101.558      193.604       75.366    10313.969    37482.686     5680.050        7.902        2.674      319.739       70.502        0.049      327.849       -6.421      859.233
12/07/2013  19:29:00     -220.258      400.604      -74.192      125.118      133.964       65.195    15654.540    17946.436     4250.328       12.617        1.893      457.162       74.088        0.026      327.757       -6.572      859.234
12/07/2013  19:30:00     -153.140      355.536      -47.563      129.083      108.954       71.476    16662.350    11871.020     5108.786        9.287        1.682      387.115       75.500        0.038      327.762       -6.563      859.247
12/07/2013  19:31:00     -164.557      396.647      -61.017       91.548      108.603       60.651     8381.069    11794.633     3678.530       10.599        1.193      429.428       50.562        0.014      327.754       -6.578      859.249
12/07/2013  19:32:00     -163.874      304.318      -52.980      124.481      129.511       60.547    15495.576    16773.106     3665.976        7.910        1.797      345.636       61.918        0.032      327.763       -6.563      859.235
12/07/2013  19:33:00     -179.362      427.770      -54.419      117.994      150.579       68.400    13922.605    22674.150     4678.612       12.969        2.064      463.851       64.136        0.019      327.760       -6.568      859.222
12/07/2013  19:34:00     -145.969      424.244      -59.919       98.851      167.567       64.257     9771.453    28078.606     4129.004       12.342        2.099      448.653       66.846        0.022      327.729       -6.619      859.231
12/07/2013  19:35:00     -208.746      253.652      -35.290      126.231      111.082       66.984    15934.331    12339.127     4486.820        7.095        1.638      328.503       72.551        0.049      327.771       -6.550      859.260
12/07/2013  19:36:00     -131.623      326.506      -26.455      104.964      134.277       66.856    11017.537    18030.204     4469.686        7.907        1.676      352.038       68.205        0.038      327.763       -6.562      859.282
12/07/2013  19:37:00     -197.587      253.133      -42.181      121.787      112.338       59.445    14832.063    12619.719     3533.651        6.793        1.549      321.118       63.445        0.039      327.806       -6.491      859.282
12/07/2013  19:38:00     -141.290      288.342      -36.395      116.261      151.778       65.154    13516.594    23036.559     4245.084        7.261        2.040      321.098       66.343        0.043      327.823       -6.463      859.275
12/07/2013  19:39:00     -162.602      296.246      -46.154      111.436      136.520       66.033    12418.013    18637.599     4360.422        7.587        1.771      337.937       69.741        0.043      327.798       -6.505      859.250
12/07/2013  19:40:00     -167.211      307.321      -52.008      123.436       93.401       60.196    15236.514     8723.811     3623.566        7.634        1.379      349.865       62.082        0.031      327.774       -6.546      859.225
12/07/2013  19:41:00     -108.293      274.400      -20.860      112.249      144.008       67.582    12599.782    20738.402     4567.392        6.267        1.895      294.996       71.231        0.058      327.822       -6.465      859.238
12/07/2013  19:42:00     -115.274      287.699      -29.488      104.283      137.695       59.700    10874.973    18959.916     3564.075        6.516        1.670      309.934       53.943        0.030      327.792       -6.515      859.250
12/07/2013  19:43:00     -149.315      357.334      -41.697      132.068      149.458       65.478    17441.836    22337.679     4287.429        9.789        2.203      387.276       64.239        0.028      327.757       -6.572      859.294
12/07/2013  19:44:00     -200.492      293.703      -57.996      107.835      120.925       62.593    11628.289    14622.857     3917.853        7.999        1.508      355.610       62.663        0.031      327.789       -6.520      859.350
12/07/2013  19:45:00     -163.119      386.360      -47.672      115.982      169.816       77.505    13451.900    28837.406     6007.091       11.322        2.415      419.383       87.954        0.044      327.780       -6.535      859.380
12/07/2013  19:46:00     -108.772      348.806      -48.103      116.385      121.407       70.457    13545.564    14739.592     4964.153        8.452        1.662      365.373       63.358        0.030      327.774       -6.544      859.353
12/07/2013  19:47:00      -72.754      320.596      -34.421       77.882      125.797       57.952     6065.611    15824.884     3358.473        6.725        1.262      328.747       52.123        0.025      327.766       -6.557      859.290
12/07/2013  19:48:00     -175.942      318.495      -56.126      139.702      133.458       80.327    19516.764    17811.104     6452.454        8.965        2.189      363.861       77.494        0.045      327.766       -6.556      859.244
12/07/2013  19:49:00     -106.698      405.718      -41.492       94.396      139.147       69.663     8910.637    19361.789     4852.921       10.541        1.656      419.514       71.508        0.029      327.742       -6.597      859.198
12/07/2013  19:50:00     -145.520      343.794      -27.738      119.328      120.170       64.731    14239.233    14440.874     4190.139        8.650        1.644      373.323       57.798        0.024      327.739       -6.602      859.160
12/07/2013  19:51:00     -101.796      408.519      -51.254      100.707      131.203       66.625    10141.853    17214.132     4438.943       10.583        1.590      421.011       54.900        0.017      327.719       -6.635      859.167
12/07/2013  19:52:00     -183.082      246.980      -48.556       94.394      113.418       58.911     8910.301    12863.639     3470.471        6.106        1.262      307.438       52.679        0.029      327.757       -6.572      859.215
12/07/2013  19:53:00     -137.949      229.155      -41.256      102.908      104.476       65.409    10589.985    10915.220     4278.309        4.951        1.289      267.473       68.884        0.066      327.764       -6.559      859.302
12/07/2013  19:54:00      -92.263      298.243      -30.233       65.311      124.482       49.135     4265.580    15495.683     2414.265        6.027        1.109      312.188       52.651        0.028      327.765       -6.559      859.388
12/07/2013  19:55:00     -111.345      194.441      -30.685       60.368       95.925       42.405     3644.270     9201.628     1798.220        3.289        0.732      224.064       38.693        0.030      327.837       -6.440      859.456
12/07/2013  19:56:00      -38.177      208.372      -14.862       63.209      139.318       59.193     3995.417    19409.524     3503.832        3.600        1.345      211.841       69.844        0.109      327.837       -6.440      859.471
12/07/2013  19:57:00     -100.330      297.439      -42.986      100.546      133.756       41.156    10109.432    17890.744     1693.839        6.503        1.485      313.905       40.920        0.017      327.790       -6.519      859.450
12/07/2013  19:58:00      -99.255      339.815      -33.538      120.836      126.925       65.792    14601.454    16109.830     4328.563        8.074        1.752      354.014       56.440        0.025      327.774       -6.544      859.439
12/07/2013  19:59:00      -80.158      290.002      -31.404       76.316       98.775       45.166     5824.078     9756.573     2039.977        5.456        0.881      300.876       47.724        0.025      327.780       -6.535      859.443
12/07/2013  20:00:00     -147.896      194.922      -34.772       80.646      106.710       48.445     6503.815    11387.048     2346.951        4.065        1.012      244.679       51.702        0.045      327.759       -6.568      859.445
12/07/2013  20:01:00      -64.718      292.706      -31.938      112.721      154.635       48.455    12705.946    23911.854     2347.900        6.492        1.948      299.775       56.121        0.035      327.791       -6.516      859.460
12/07/2013  20:02:00     -142.588      354.293      -42.533      109.107      129.358       64.471    11904.245    16733.568     4156.515        9.022        1.640      381.910       73.137        0.037      327.752       -6.582      859.488
12/07/2013  20:03:00      -82.292      224.620      -28.008       57.734      106.262       47.925     3333.231    11291.580     2296.823        3.746        0.846      239.220       47.232        0.039      327.812       -6.482      859.519
12/07/2013  20:04:00      -97.540      145.038      -21.356       59.840       98.484       37.366     3580.810     9699.143     1396.249        2.284        0.734      174.786       38.393        0.048      327.838       -6.438      859.557
12/07/2013  20:05:00      -89.262       91.725       -4.820       68.685       58.902       37.712     4717.695     3469.402     1422.213        1.300        0.480      127.989       33.141        0.067      327.865       -6.393      859.593
12/07/2013  20:06:00     -173.614      230.634      -42.573       88.557      121.160       40.267     7842.315    14679.626     1621.410        5.464        1.207      288.676       47.028        0.027      327.786       -6.524      859.646
12/07/2013  20:07:00     -185.847      177.545      -42.685       98.261       73.221       46.725     9655.159     5361.256     2183.205        4.254        0.860      257.024       36.891        0.021      327.783       -6.531      859.703
12/07/2013  20:08:00     -220.739      188.117      -41.597       98.522       76.789       50.952     9706.636     5896.489     2596.058        5.202        0.910      290.023       38.924        0.018      327.717       -6.638      859.763
12/07/2013  20:09:00     -127.965      183.876      -15.684       87.675      152.184       62.070     7686.890    23159.907     3852.691        4.256        1.735      224.021       70.231        0.098      327.738       -6.602      859.815
12/07/2013  20:10:00     -208.708      186.440      -43.094       74.743       84.858       48.534     5586.569     7200.929     2355.564        4.766        0.757      279.855       37.407        0.018      327.702       -6.661      859.851
12/07/2013  20:11:00     -160.081       88.091      -19.347       79.992      121.616       60.090     6398.751    14790.366     3610.795        2.928        1.240      182.718       52.295        0.082      327.699       -6.666      859.858
12/07/2013  20:12:00      -77.610       38.289       -7.409       61.016       53.616       34.877     3722.913     2874.669     1216.379        0.768        0.391       86.541       27.250        0.099      327.762       -6.560      859.856
12/07/2013  20:13:00     -120.212      181.151      -30.105       65.826       62.096       47.044     4333.017     3855.933     2213.141        2.929        0.520      217.409       42.525        0.038      327.738       -6.602      859.856
12/07/2013  20:14:00     -171.939       35.241      -13.631       88.548       69.212       41.184     7840.696     4790.236     1696.123        2.266        0.716      175.514       34.934        0.040      327.793       -6.511      859.885
12/07/2013  20:15:00     -209.808      117.436      -38.716       84.090      110.785       47.450     7071.187    12273.246     2251.475        4.045        1.080      240.438       50.257        0.044      327.713       -6.643      859.898
12/07/2013  20:16:00     -163.931      121.003      -26.813      117.917      127.509       68.457    13904.359    16258.573     4686.313        3.853        1.742      203.752       71.674        0.124      327.702       -6.661      859.900
12/07/2013  20:17:00     -204.132      100.974      -27.704       70.843       64.169       45.871     5018.745     4117.667     2104.154        3.193        0.562      227.741       38.674        0.029      327.654       -6.739      859.898
12/07/2013  20:18:00     -109.587       33.368       -3.642       61.495       52.923       42.936     3781.626     2800.837     1843.505        1.078        0.421      114.555       34.847        0.093      327.696       -6.668      859.898
12/07/2013  20:19:00     -120.091       50.376      -38.151       40.910       84.060       39.911     1673.628     7066.032     1592.848        1.437        0.517      130.229       22.356        0.029      327.699       -6.663      859.888
12/07/2013  20:20:00     -160.432      110.870      -26.019       96.220       78.843       47.771     9258.211     6216.214     2282.082        2.823        0.888      195.014       47.245        0.059      327.711       -6.646      859.940
12/07/2013  20:21:00     -148.259       64.374      -32.023       87.573       66.397       42.566     7668.990     4408.589     1811.823        2.052        0.694      161.631       29.434        0.033      327.686       -6.687      860.013
12/07/2013  20:22:00     -142.506       25.059      -20.663       90.902       73.063       41.964     8263.226     5338.146     1761.000        1.836        0.768      144.692       36.361        0.063      327.709       -6.648      860.044
12/07/2013  20:23:00     -219.242       41.994      -46.379      111.996      118.482       56.172    12543.017    14037.963     3155.307        4.085        1.487      223.227       53.005        0.056      327.635       -6.770      860.014
12/07/2013  20:24:00      -94.956      112.616      -11.404       88.472       85.959       46.104     7827.229     7388.970     2125.610        1.958        0.867      147.306       46.758        0.101      327.707       -6.652      859.979
12/07/2013  20:25:00     -118.507       73.016      -12.076       69.493      102.365       48.367     4829.208    10478.552     2339.405        1.858        0.882      139.195       37.539        0.073      327.741       -6.595      859.984
12/07/2013  20:26:00      -98.445      121.125       -4.380       85.433       86.911       48.517     7298.770     7553.578     2353.907        2.079        0.860      156.085       39.462        0.064      327.705       -6.656      860.011
12/07/2013  20:27:00      -69.586       43.389        1.976       61.458       95.875       34.209     3777.081     9192.006     1170.284        1.043        0.707       82.005       36.878        0.202      327.717       -6.632      860.032
12/07/2013  20:28:00     -216.374      119.846      -28.318      120.292       94.730       50.026    14470.055     8973.822     2502.608        4.396        1.297      247.347       62.959        0.065      327.651       -6.742      860.043
12/07/2013  20:29:00     -101.074      137.049      -10.554       58.887       74.031       43.934     3467.691     5480.658     1930.238        1.999        0.544      170.289       36.458        0.046      327.689       -6.680      860.040
12/07/2013  20:30:00     -183.725      107.761      -41.588       69.410       80.076       36.415     4817.706     6412.223     1326.064        2.982        0.628      212.996       31.075        0.021      327.660       -6.730      860.032
12/07/2013  20:31:00      -60.381       54.124       -7.326       99.717       99.429       60.371     9943.480     9886.062     3644.607        1.505        1.174       81.088       63.912        0.621      327.751       -6.580      860.057
12/07/2013  20:32:00     -139.856      128.615      -25.019       93.179       95.442       49.719     8682.282     9109.202     2471.976        2.849        1.013      190.004       59.040        0.097      327.647       -6.750      860.108
12/07/2013  20:33:00     -158.128      160.907      -15.842       83.425      122.416       57.485     6959.803    14985.642     3304.490        3.819        1.262      225.600       53.252        0.056      327.606       -6.818      860.150
12/07/2013  20:34:00     -194.256      163.876      -48.642       68.702       70.326       35.178     4719.944     4945.748     1237.520        3.893        0.545      254.147       30.934        0.015      327.594       -6.837      860.176
12/07/2013  20:35:00      -63.105       89.980       -3.577       65.673       55.436       37.861     4312.922     3073.204     1433.448        1.045        0.441      109.903       34.186        0.097      327.734       -6.604      860.195
12/07/2013  20:36:00     -132.521      140.858      -36.547       91.735       91.876       50.747     8415.374     8441.281     2575.261        2.908        0.972      193.398       48.482        0.063      327.632       -6.774      860.218
12/07/2013  20:37:00     -127.794      177.596      -36.347      107.346      100.730       49.386    11523.153    10146.444     2438.948        3.665        1.205      218.795       61.511        0.079      327.650       -6.745      860.238
12/07/2013  20:38:00      -63.746      161.026      -12.905       86.876      126.040       51.475     7547.447    15885.977     2649.716        2.812        1.304      173.184       67.890        0.154      327.675       -6.704      860.281
12/07/2013  20:39:00      -86.590      131.969      -17.121       75.006       92.619       44.418     5625.836     8578.221     1972.929        2.069        0.809      157.840       39.672        0.063      327.718       -6.634      860.320
12/07/2013  20:40:00      -81.972      199.496       -8.463       85.489       81.572       56.937     7308.385     6654.035     3241.869        3.189        0.860      215.680       52.098        0.058      327.687       -6.685      860.359
12/07/2013  20:41:00      -59.242      125.357        3.393       62.512       93.208       51.540     3907.739     8687.744     2656.324        1.724        0.763      138.651       60.914        0.193      327.710       -6.645      860.385
12/07/2013  20:42:00     -105.654      223.271      -29.531       57.981       61.256       48.901     3361.820     3752.311     2391.333        3.569        0.475      247.007       34.294        0.019      327.667       -6.719      860.445
12/07/2013  20:43:00      -51.488      116.893      -18.932       62.665       84.030       36.700     3926.914     7061.105     1346.855        1.450        0.617      127.730       44.461        0.121      327.718       -6.632      860.470
12/07/2013  20:44:00      -55.176       54.930      -17.876       71.435       48.032       33.466     5103.021     2307.116     1119.983        0.745        0.427       77.857       29.209        0.141      327.659       -6.729      860.482
12/07/2013  20:45:00       32.398      119.938       -8.266       63.388       90.621       40.149     4018.063     8212.078     1611.925        1.467        0.692      124.236       38.952        0.098      327.684       -6.689      860.475
12/07/2013  20:46:00       -5.956       83.089      -10.146       32.365       71.969       29.822     1047.471     5179.577      889.335        0.708        0.356       83.303       30.709        0.136      327.666       -6.717      860.485
12/07/2013  20:47:00      -31.559       13.998       31.200       82.945       46.234       27.221     6879.884     2137.615      741.005        0.596        0.488       34.525       33.308        0.931      327.693       -6.671      860.519
12/07/2013  20:48:00       18.952      103.602       -1.423       97.084       82.244       49.917     9425.323     6764.036     2491.682        1.488        0.934      105.321       29.165        0.077      327.663       -6.723      860.551
12/07/2013  20:49:00      -99.567       85.892      -27.600       84.118       44.169       34.713     7075.861     1950.926     1204.986        1.414        0.512      131.495       18.799        0.020      327.606       -6.814      860.603
12/07/2013  20:50:00        9.697       32.309      -11.573       33.254       31.005       22.725     1105.806      961.290      516.435        0.193        0.129       33.733        9.736        0.083      327.629       -6.777      860.632
12/07/2013  20:51:00       12.251       35.508       55.750       26.761       68.363       45.824      716.166     4673.545     2099.795        0.600        0.374       37.562       50.768        1.827      327.691       -6.677      860.602
12/07/2013  20:52:00      -11.813       43.401       57.133       16.601       33.997       36.546      275.579     1155.817     1335.607        0.403        0.138       44.980       25.311        0.317      327.646       -6.749      860.583
12/07/2013  20:53:00       22.101       -1.876       16.867       34.297       20.663       21.946     1176.281      426.967      481.645        0.143        0.104       22.180        8.816        0.158      327.681       -6.691      860.583
12/07/2013  20:54:00      -65.497       -0.685       -3.814       67.787       37.284       31.484     4595.074     1390.089      991.236        0.564        0.349       65.500       18.469        0.080      327.676       -6.700      860.575
12/07/2013  20:55:00       17.252        8.369        1.576       31.340       33.454       34.332      982.169     1119.193     1178.691        0.182        0.164       19.174       27.747        2.094      327.659       -6.727      860.569
12/07/2013  20:56:00      -74.824      151.396      -46.031      107.341       60.353       35.358    11522.081     3642.533     1250.176        2.352        0.821      168.876       44.385        0.069      327.574       -6.866      860.605
12/07/2013  20:57:00       31.906      152.835      -19.278       70.181      101.651       36.091     4925.442    10332.972     1302.567        2.065        0.828      156.130       33.343        0.046      327.564       -6.884      860.617
12/07/2013  20:58:00     -132.594      205.530      -24.837       90.922       85.378       60.854     8266.861     7289.487     3703.229        3.985        0.963      244.589       51.173        0.044      327.605       -6.819      860.602
12/07/2013  20:59:00      -43.210      128.083       -3.197       63.501       99.704       38.382     4032.325     9940.821     1473.186        1.686        0.772      135.175       33.163        0.060      327.629       -6.778      860.629
12/07/2013  21:00:00     -118.619      146.160      -26.140       40.538       64.383       34.160     1643.320     4145.225     1166.930        2.153        0.348      188.237       23.504        0.016      327.514       -6.965      860.613
12/07/2013  21:01:00      -31.050       52.630       -0.443       58.781       42.213       31.918     3455.184     1781.975     1018.753        0.499        0.313       61.107       29.304        0.230      327.647       -6.747      860.592
12/07/2013  21:02:00      -43.488       53.891       -2.533       39.289       45.820       31.688     1543.619     2099.461     1004.156        0.472        0.232       69.249       28.306        0.167      327.647       -6.747      860.567
12/07/2013  21:03:00      -69.132       32.164       -1.066       90.112       57.939       42.408     8120.220     3356.935     1798.459        0.954        0.664       76.248       48.588        0.406      327.600       -6.822      860.572
12/07/2013  21:04:00      -88.482      154.375      -16.994       48.629       51.300       32.357     2364.808     2631.698     1046.978        1.900        0.302      177.935       30.838        0.030      327.536       -6.928      860.581
12/07/2013  21:05:00     -123.063      148.458      -28.184       78.654       65.061       31.799     6186.441     4232.984     1011.179        2.470        0.572      192.832       29.547        0.023      327.598       -6.828      860.602
12/07/2013  21:06:00     -131.506       95.473      -20.207       78.666       61.170       36.946     6188.388     3741.801     1365.029        1.905        0.565      162.508       39.091        0.058      327.592       -6.838      860.613
12/07/2013  21:07:00      -45.422       42.440       -3.439       38.879       26.650       22.824     1511.610      710.249      520.913        0.331        0.137       62.164       24.308        0.153      327.599       -6.825      860.602
12/07/2013  21:08:00     -140.607       36.400      -12.157       55.734       53.029       29.129     3106.319     2812.073      848.508        1.400        0.338      145.242       30.216        0.043      327.574       -6.865      860.615
12/07/2013  21:09:00      -67.508       60.834      -12.622       38.719       34.692       23.744     1499.159     1203.509      563.757        0.584        0.163       90.874       21.445        0.056      327.587       -6.845      860.629
12/07/2013  21:10:00      -90.676       76.772      -19.994       52.104       80.475       30.855     2714.832     6476.153      952.014        1.233        0.507      118.812       36.252        0.093      327.551       -6.903      860.637
12/07/2013  21:11:00      -83.407       89.408      -14.686       79.227       57.433       39.161     6276.895     3298.590     1533.597        1.314        0.555      122.272       38.873        0.101      327.575       -6.865      860.625
12/07/2013  21:12:00      -13.667       49.148        2.703       38.666       48.683       23.235     1495.062     2370.011      539.853        0.351        0.220       51.013       12.332        0.058      327.698       -6.664      860.607
12/07/2013  21:13:00        9.923       95.787        3.238       30.000       91.794       37.247      899.995     8426.092     1387.312        1.000        0.536       96.300       48.168        0.250      327.575       -6.865      860.603
12/07/2013  21:14:00      -27.250      181.551       -7.496       48.801       57.078       33.668     2381.517     3257.905     1133.559        2.026        0.339      183.585       25.532        0.019      327.514       -6.964      860.592
12/07/2013  21:15:00      -13.236      178.647       -9.775       43.729       75.733       37.683     1912.257     5735.525     1419.989        2.062        0.453      179.136       40.255        0.050      327.539       -6.924      860.595
12/07/2013  21:16:00      -26.114      191.181      -29.007       44.691       57.196       28.527     1997.269     3271.344      813.773        2.208        0.304      192.957       18.270        0.009      327.569       -6.877      860.614
12/07/2013  21:17:00      -54.048       83.176       -1.322       43.077       48.177       29.000     1855.622     2320.995      840.991        0.743        0.251       99.194       19.282        0.038      327.623       -6.787      860.641
12/07/2013  21:18:00      -24.111      113.176       -9.081       31.515       93.625       33.982      993.198     8765.714     1154.793        1.219        0.546      115.716       45.974        0.158      327.573       -6.868      860.654
12/07/2013  21:19:00      -60.193       88.598      -13.436       49.780       54.222       35.423     2478.055     2940.019     1254.795        0.916        0.334      107.111       30.326        0.080      327.621       -6.789      860.668
12/07/2013  21:20:00       13.793       62.195        5.854       19.424       35.291       23.495      377.292     1245.459      552.010        0.313        0.109       63.706       11.927        0.035      327.550       -6.904      860.674
12/07/2013  21:21:00       10.805       49.638       -2.012       37.040       39.897       23.953     1371.933     1591.744      573.729        0.306        0.177       50.801       24.149        0.226      327.471       -7.033      860.667
12/07/2013  21:22:00      -16.309      101.144       -7.682       23.902       47.379       30.223      571.320     2244.787      913.415        0.714        0.186      102.450       29.296        0.082      327.451       -7.067      860.671
12/07/2013  21:23:00       26.544       83.144      -12.992       21.620       24.118       20.622      467.409      581.663      425.262        0.463        0.074       87.278       12.798        0.022      327.425       -7.109      860.664
12/07/2013  21:24:00       17.987       56.165       -7.013       27.146       54.868       18.143      736.917     3010.524      329.158        0.380        0.204       58.975       25.835        0.192      327.439       -7.087      860.655
12/07/2013  21:25:00       54.866       64.413       -6.384       41.851       34.167       22.825     1751.503     1167.401      520.980        0.532        0.172       84.613       18.736        0.049      327.411       -7.131      860.650
12/07/2013  21:26:00       35.899       93.879       -7.503       55.099       42.968       27.794     3035.887     1846.288      772.524        0.791        0.283      100.509       28.168        0.079      327.406       -7.140      860.670
12/07/2013  21:27:00       35.779       48.415        8.678       50.482       30.231       25.714     2548.482      913.925      661.234        0.391        0.206       60.201       16.593        0.076      327.486       -7.010      860.691
12/07/2013  21:28:00       76.123       88.599       -9.289       39.470       62.888       38.982     1557.851     3954.849     1519.579        1.038        0.352      116.810       32.656        0.078      327.411       -7.131      860.710
12/07/2013  21:29:00       79.869       68.203        6.172       38.294       35.276       29.037     1466.430     1244.398      843.136        0.731        0.178      105.027       20.970        0.040      327.373       -7.193      860.737
12/07/2013  21:30:00       75.322       52.428        2.787       29.373       31.268       26.312      862.771      977.657      692.327        0.548        0.127       91.772       22.479        0.060      327.389       -7.168      860.751
12/07/2013  21:31:00       70.661       63.259        1.762       29.712       33.493       22.281      882.789     1121.768      496.446        0.575        0.125       94.840       14.065        0.022      327.356       -7.221      860.743
12/07/2013  21:32:00       72.268       89.539       -2.976       53.278       38.485       36.174     2838.572     1481.101     1308.592        0.944        0.281      115.064       31.026        0.073      327.322       -7.275      860.746
12/07/2013  21:33:00       68.055       92.858        2.398       51.588       49.031       39.796     2661.322     2404.029     1583.683        0.995        0.332      115.126       29.382        0.065      327.317       -7.284      860.750
12/07/2013  21:34:00       90.962       67.361        7.119       43.379       39.362       37.005     1881.701     1549.369     1369.367        0.883        0.240      113.188       29.728        0.069      327.330       -7.262      860.749
12/07/2013  21:35:00       52.461       77.176        2.332       64.966       50.848       41.034     4220.535     2585.496     1683.810        0.860        0.424       93.319       27.978        0.090      327.274       -7.354      860.746
12/07/2013  21:36:00       78.473       92.577        1.768       52.759       60.043       52.582     2783.506     3605.177     2764.874        1.194        0.458      121.361       38.599        0.101      327.255       -7.384      860.743
12/07/2013  21:37:00       54.791       86.298        0.378       60.572       61.660       43.703     3668.971     3802.010     1909.924        0.991        0.469      102.223       31.214        0.093      327.252       -7.390      860.735
12/07/2013  21:38:00       52.109      108.311      -10.545       42.327       66.859       29.925     1791.543     4470.086      895.495        1.086        0.358      120.194       31.684        0.069      327.232       -7.421      860.740
12/07/2013  21:39:00       62.059      130.446       -8.444       52.162       67.411       48.651     2720.840     4544.201     2366.873        1.528        0.482      144.456       49.066        0.115      327.214       -7.453      860.751
12/07/2013  21:40:00       65.073      144.836      -10.259       52.512       72.157       52.765     2757.555     5206.566     2784.099        1.803        0.537      158.783       44.902        0.080      327.195       -7.484      860.762
12/07/2013  21:41:00       76.509      157.995      -17.392       48.921       66.748       40.076     2393.303     4455.296     1606.105        1.978        0.423      175.545       38.004        0.047      327.195       -7.483      860.784
12/07/2013  21:42:00       62.868      131.361      -14.173       49.137       66.225       43.676     2414.438     4385.727     1907.596        1.506        0.435      145.630       41.255        0.080      327.197       -7.479      860.819
12/07/2013  21:43:00       62.466      104.004        4.208       46.401       57.951       38.759     2153.022     3358.290     1502.236        1.087        0.351      121.322       37.140        0.094      327.178       -7.510      860.857
12/07/2013  21:44:00       56.914       59.027        7.295       55.207       52.527       35.554     3047.842     2759.136     1264.110        0.692        0.354       81.997       30.786        0.141      327.180       -7.508      860.883
12/07/2013  21:45:00       76.279       91.055        6.763       52.566       52.170       38.894     2763.161     2721.680     1512.781        1.058        0.350      118.784       37.272        0.098      327.135       -7.579      860.903
12/07/2013  21:46:00       57.493      106.294       -2.392       49.351       57.604       40.886     2435.484     3318.216     1671.691        1.102        0.371      120.846       39.458        0.107      327.109       -7.621      860.914
12/07/2013  21:47:00       58.080       90.089        3.772       60.014       62.475       45.330     3601.685     3903.088     2054.805        1.053        0.478      107.188       31.512        0.086      327.105       -7.629      860.918
12/07/2013  21:48:00       91.020       56.964       18.299       41.885       37.497       35.976     1754.379     1406.017     1294.288        0.816        0.223      107.376       25.128        0.055      327.127       -7.592      860.930
12/07/2013  21:49:00       16.388       38.169        8.580       47.037       37.750       27.652     2212.454     1425.069      764.652        0.310        0.220       41.538       15.194        0.134      327.109       -7.620      860.958
12/07/2013  21:50:00       72.654       99.766      -12.298       46.663       40.952       29.410     2177.453     1677.093      864.971        1.005        0.236      123.418       21.560        0.031      327.089       -7.652      860.974
12/07/2013  21:51:00       55.670       71.444       -1.408       39.048       54.506       30.782     1524.760     2970.924      947.559        0.682        0.272       90.573       34.056        0.141      327.158       -7.543      860.995
12/07/2013  21:52:00       66.878       48.915        8.056       35.340       20.155       25.563     1248.914      406.213      653.471        0.462        0.115       82.857       12.406        0.022      327.114       -7.614      861.028
12/07/2013  21:53:00       76.349       35.964        3.669       37.720       28.273       21.964     1422.778      799.385      482.434        0.492        0.135       84.396       15.637        0.034      327.117       -7.608      861.062
12/07/2013  21:54:00       69.267       42.429       -1.190       45.345       23.857       22.322     2056.156      569.141      498.280        0.486        0.156       81.229       13.750        0.029      327.118       -7.607      861.087
12/07/2013  21:55:00       82.737       50.967       15.012       31.284       23.189       21.920      978.689      537.734      480.485        0.583        0.100       97.176       16.910        0.030      327.087       -7.655      861.091
12/07/2013  21:56:00      116.278       73.525       13.935       47.661       47.081       37.538     2271.523     2216.647     1409.101        1.251        0.295      137.573       23.147        0.028      327.103       -7.630      861.088
12/07/2013  21:57:00      127.955      107.487       12.366       47.878       37.536       34.440     2292.312     1408.957     1186.083        1.648        0.244      167.111       23.992        0.021      327.091       -7.650      861.107
12/07/2013  21:58:00      121.019       80.665       12.487       50.958       43.570       36.551     2596.759     1898.372     1335.972        1.357        0.292      145.439       28.881        0.039      327.046       -7.723      861.129
12/07/2013  21:59:00       50.288       72.793        1.643       46.964       48.445       36.699     2205.611     2346.894     1346.844        0.686        0.295       88.474       28.433        0.103      327.016       -7.771      861.155
12/07/2013  22:00:00       98.876       80.920       12.757       71.916       55.667       49.356     5171.963     3098.761     2436.005        1.359        0.535      127.767       36.685        0.082      327.034       -7.744      861.174
12/07/2013  22:01:00      100.786       76.735        2.304       66.959       45.458       37.247     4483.561     2066.419     1387.321        1.199        0.397      126.673       18.395        0.021      327.026       -7.757      861.198
12/07/2013  22:02:00       88.746      106.759      -13.752       61.579       61.300       45.047     3791.938     3757.734     2029.271        1.452        0.479      138.828       34.964        0.063      327.045       -7.725      861.227
12/07/2013  22:03:00       93.583       62.343       17.720       66.924       42.458       36.405     4478.832     1802.643     1325.302        1.028        0.380      112.447       19.223        0.029      327.048       -7.720      861.241
12/07/2013  22:04:00      166.350      106.588       23.977       77.629       56.357       49.740     6026.296     3176.132     2474.114        2.564        0.584      197.569       16.093        0.007      327.025       -7.760      861.248
12/07/2013  22:05:00      155.659      133.227       -5.640       73.226       58.902       49.630     5362.003     3469.494     2463.163        2.665        0.565      204.888       42.670        0.043      327.026       -7.757      861.250
12/07/2013  22:06:00      101.879       68.556       12.067       63.604       58.451       44.375     4045.416     3416.469     1969.176        1.233        0.472      122.798       29.838        0.059      326.991       -7.814      861.258
12/07/2013  22:07:00      130.968      102.869       10.170       65.876       60.406       45.361     4339.585     3648.835     2057.663        1.894        0.502      166.537       35.796        0.046      326.982       -7.828      861.276
12/07/2013  22:08:00       91.099      123.683        6.434       82.630       73.835       55.037     6827.742     5451.635     3029.096        1.947        0.765      153.612       43.674        0.081      326.972       -7.845      861.300
12/07/2013  22:09:00       91.356       99.524        4.461       66.799       54.458       51.689     4462.063     2965.698     2671.792        1.418        0.505      135.096       40.318        0.089      326.950       -7.880      861.323
12/07/2013  22:10:00       73.066      131.534      -14.016       51.181       80.559       49.841     2619.449     6489.695     2484.160        1.721        0.580      150.465       53.842        0.128      326.919       -7.930      861.329
12/07/2013  22:11:00       75.255      114.263        3.944       78.467       70.564       49.902     6157.008     4979.233     2490.215        1.618        0.681      136.819       39.209        0.082      326.893       -7.973      861.325
12/07/2013  22:12:00       70.626      107.207       12.429       71.203       56.519       52.536     5069.847     3194.441     2760.022        1.383        0.551      128.380       33.659        0.069      326.877       -7.999      861.328
12/07/2013  22:13:00       54.066       73.253       19.160       64.447       55.075       37.502     4153.412     3033.274     1406.392        0.862        0.430       91.045       24.832        0.074      326.827       -8.080      861.348
12/07/2013  22:14:00       32.581      103.075        1.890       53.820       66.057       50.985     2896.540     4363.562     2599.434        1.077        0.493      108.102       45.425        0.177      326.802       -8.118      861.371
12/07/2013  22:15:00       25.095       91.886       -1.753       40.140       65.612       41.277     1611.244     4304.947     1703.780        0.835        0.381       95.252       37.529        0.155      326.776       -8.161      861.392
12/07/2013  22:16:00       -5.068      171.574      -17.787       43.350       67.330       24.171     1879.241     4533.393      584.233        1.839        0.350      171.649       27.283        0.025      326.779       -8.157      861.392
12/07/2013  22:17:00        5.377      171.756      -16.898       28.088       52.280       19.943      788.932     2733.228      397.725        1.687        0.196      171.840       24.192        0.020      326.799       -8.124      861.386
12/07/2013  22:18:00       -3.422      154.864      -16.593       32.824       28.836       19.006     1077.383      831.501      361.221        1.327        0.114      154.902       13.703        0.008      326.866       -8.014      861.382
12/07/2013  22:19:00      -28.835      144.109      -12.719       45.354       50.938       27.606     2056.987     2594.688      762.093        1.359        0.271      146.966       26.802        0.033      326.952       -7.876      861.384
12/07/2013  22:20:00      -37.626       99.888       -8.561       27.990       42.345       19.882      783.443     1793.110      395.290        0.722        0.149      106.740       20.576        0.037      326.938       -7.900      861.388
12/07/2013  22:21:00      -98.691       58.332      -21.108       38.063       41.478       20.216     1448.780     1720.387      408.686        0.858        0.179      114.641       20.143        0.031      327.020       -7.765      861.398
12/07/2013  22:22:00      -82.514       89.797      -24.388       33.314       33.733       18.934     1109.799     1137.886      358.491        0.904        0.130      121.951       18.406        0.023      327.021       -7.764      861.406
12/07/2013  22:23:00      -85.575      111.671      -22.730       35.237       40.742       22.943     1241.672     1659.938      526.388        1.187        0.171      140.690       21.933        0.024      327.079       -7.669      861.415
12/07/2013  22:24:00      -52.230       96.933      -11.956       24.605       54.021       20.419      605.396     2918.221      416.926        0.810        0.197      110.109       17.415        0.025      327.081       -7.667      861.416
12/07/2013  22:25:00      -70.438      123.562      -23.672       31.957       41.389       18.317     1021.220     1713.013      335.497        1.193        0.153      142.228       22.514        0.025      327.042       -7.730      861.406
12/07/2013  22:26:00      -92.173       46.716      -12.894       27.730       24.918       20.362      768.943      620.925      414.624        0.632        0.090      103.335       13.184        0.016      327.148       -7.558      861.387
12/07/2013  22:27:00      -86.086       23.398      -14.619       51.050       32.859       21.351     2606.099     1079.732      455.854        0.616        0.207       89.209       11.584        0.017      327.111       -7.619      861.355
12/07/2013  22:28:00      -90.982        8.711       -7.580       40.232       35.438       24.019     1618.603     1255.847      576.936        0.593        0.173       91.398       19.944        0.048      326.948       -7.883      861.329
12/07/2013  22:29:00     -129.009      -10.844       -6.616       37.149       41.941       27.707     1380.035     1759.026      767.683        1.035        0.195      129.464       18.006        0.019      326.889       -7.980      861.309
12/07/2013  22:30:00     -151.905       37.938      -25.353       43.958       34.845       25.875     1932.266     1214.191      669.501        1.449        0.191      156.571       22.406        0.020      326.793       -8.135      861.313
12/07/2013  22:31:00     -143.166       13.857      -31.632       50.340       84.625       29.274     2534.139     7161.340      856.987        1.612        0.528      143.835       23.664        0.027      326.763       -8.184      861.319
12/07/2013  22:32:00      -99.475       19.628       -6.879       49.983       61.547       28.557     2498.257     3788.077      815.478        0.871        0.355      101.393       29.469        0.084      326.766       -8.177      861.336
12/07/2013  22:33:00     -160.018      -14.602      -16.557       42.913       33.124       26.854     1841.534     1097.225      721.120        1.488        0.183      160.683       28.422        0.031      326.779       -8.157      861.361
12/07/2013  22:34:00     -157.524      -14.150      -30.486       43.253       60.334       28.524     1870.817     3640.174      813.601        1.613        0.316      158.158       26.663        0.028      326.597       -8.453      861.383
12/07/2013  22:35:00     -207.601       71.104      -35.736       47.548       53.077       39.863     2260.839     2817.128     1589.041        2.805        0.333      219.440       23.312        0.011      326.455       -8.685      861.408
12/07/2013  22:36:00     -167.285       26.863      -20.235       59.192       56.111       37.845     3503.676     3148.462     1432.271        1.860        0.404      169.428       31.036        0.034      326.419       -8.743      861.407
12/07/2013  22:37:00      -79.127      -20.294      -13.754       25.669       42.962       24.785      658.908     1845.749      614.320        0.499        0.156       81.688       18.779        0.053      326.458       -8.678      861.397
12/07/2013  22:38:00      -56.535       -2.474        6.975       53.608       35.480       23.483     2873.810     1258.853      551.437        0.397        0.234       56.589       21.938        0.150      326.370       -8.820      861.394
12/07/2013  22:39:00      -97.599       -9.020      -13.272       39.536       33.558       19.646     1563.075     1126.109      385.961        0.643        0.154       98.015       18.487        0.036      326.356       -8.843      861.404
12/07/2013  22:40:00      -37.745       31.217      -10.724       22.598       19.987       21.223      510.677      399.477      450.395        0.194        0.068       48.982       14.510        0.088      326.448       -8.693      861.403
12/07/2013  22:41:00       -0.697       73.758       -1.858       43.062       38.392       18.415     1854.335     1473.952      339.130        0.456        0.183       73.761       17.731        0.058      326.632       -8.394      861.411
12/07/2013  22:42:00       16.599       53.057       -2.831       23.533       18.296       14.763      553.813      334.739      217.937        0.210        0.055       55.593        6.516        0.014      326.539       -8.545      861.435
12/07/2013  22:43:00       62.072       48.156       13.618       19.089       18.207       18.129      364.403      331.513      328.679        0.369        0.051       78.562       10.221        0.017      326.512       -8.589      861.454
12/07/2013  22:44:00       51.356       79.520       61.200       37.949       35.123       27.677     1440.105     1233.605      766.032        0.807        0.172       94.662       20.882        0.049      326.482       -8.638      861.468
12/07/2013  22:45:00      122.373       76.471       14.650       26.299       22.392       22.011      691.642      501.390      484.466        1.136        0.084      144.301       17.908        0.015      326.362       -8.832      861.474
12/07/2013  22:46:00       47.030       57.736       -6.104       39.399       62.567       22.816     1552.282     3914.606      520.587        0.578        0.299       74.466       31.134        0.175      326.384       -8.798      861.452
12/07/2013  22:47:00      -22.857      185.722      -26.507       34.593       27.314       16.333     1196.651      746.042      266.757        1.896        0.110      187.124       15.961        0.007      326.516       -8.583      861.430
12/07/2013  22:48:00      -40.681      132.868      -14.612       37.754       44.675       27.676     1425.382     1995.821      765.950        1.185        0.209      138.956       24.619        0.031      326.804       -8.116      861.410
12/07/2013  22:49:00     -119.649       94.537      -22.663       45.612       49.503       31.419     2080.429     2450.578      987.143        1.464        0.276      152.490       27.745        0.033      326.557       -8.516      861.405
12/07/2013  22:50:00     -121.917       66.989      -19.081       51.513       37.078       32.458     2653.592     1374.745     1053.504        1.240        0.254      139.109       26.464        0.036      326.490       -8.625      861.419
12/07/2013  22:51:00     -109.247       48.758       -9.941       33.113       28.920       23.612     1096.481      836.341      557.526        0.845        0.125      119.634       20.119        0.028      326.551       -8.525      861.423
12/07/2013  22:52:00      -92.299       54.837      -11.907       32.254       27.458       20.858     1040.324      753.932      435.069        0.695        0.111      107.360       17.622        0.027      326.608       -8.433      861.428
12/07/2013  22:53:00     -120.487       89.103      -23.588       29.487       41.155       21.328      869.478     1693.714      454.886        1.301        0.151      149.855       19.125        0.016      326.621       -8.413      861.437
12/07/2013  22:54:00      -81.678       73.934      -18.636       24.849       39.222       19.462      617.465     1538.358      378.777        0.751        0.127      110.170       18.220        0.027      326.583       -8.474      861.451
12/07/2013  22:55:00     -140.418       30.124      -14.027       29.754       28.309       22.042      885.284      801.381      485.863        1.150        0.109      143.613       11.142        0.006      326.606       -8.437      861.452
12/07/2013  22:56:00      -96.426       10.256       -3.157       38.788       32.007       22.364     1504.494     1024.418      500.147        0.622        0.151       96.970       21.887        0.051      326.556       -8.518      861.450
12/07/2013  22:57:00     -123.238       25.048      -22.241       29.065       36.060       21.368      844.792     1300.322      456.609        0.946        0.130      125.758       17.229        0.019      326.553       -8.523      861.447
12/07/2013  22:58:00     -160.233       -8.196      -16.063       27.396       25.835       17.022      750.558      667.430      289.757        1.385        0.085      160.443       15.006        0.009      326.486       -8.631      861.451
12/07/2013  22:59:00      -88.094      -12.256      -14.651       28.843       20.063       16.863      831.942      402.543      284.377        0.482        0.076       88.942       12.093        0.018      326.527       -8.566      861.458
12/07/2013  23:00:00      -86.089      -17.083      -14.290       23.580       18.669       12.058      556.017      348.550      145.391        0.448        0.052       87.767       11.243        0.016      326.487       -8.630      861.479
12/07/2013  23:01:00      -86.864      -41.655       -2.724       20.246       24.471       17.115      409.915      598.814      292.922        0.529        0.065       96.335       11.123        0.013      326.478       -8.644      861.503
12/07/2013  23:02:00     -107.599      -54.057       -3.741       33.920       29.570       19.641     1150.542      874.383      385.787        0.846        0.121      120.415       18.258        0.023      326.437       -8.712      861.531
12/07/2013  23:03:00     -134.333      -43.995      -11.418       27.943       17.505       14.369      780.833      306.415      206.472        1.070        0.065      141.354       11.121        0.006      326.313       -8.913      861.557
12/07/2013  23:04:00      -91.327       -3.440      -13.205       27.705       16.544       14.974      767.576      273.689      224.213        0.490        0.063       91.392        7.132        0.006      326.301       -8.930      861.575
12/07/2013  23:05:00      -78.139      -24.226       -5.405       37.799       19.492       15.618     1428.756      379.924      243.937        0.439        0.103       81.808       20.023        0.060      326.308       -8.922      861.591
12/07/2013  23:06:00     -117.678      -28.585       -3.091       38.491       49.207       23.153     1481.551     2421.302      536.068        0.956        0.222      121.100       16.846        0.019      326.346       -8.858      861.608
12/07/2013  23:07:00      -66.966      -34.499        2.599       41.787       49.879       25.192     1746.134     2487.906      634.617        0.527        0.243       75.330       27.324        0.132      326.327       -8.889      861.624
12/07/2013  23:08:00     -144.298      -50.183       -7.942       38.425       42.867       28.194     1476.463     1837.596      794.900        1.376        0.205      152.775       21.901        0.021      326.205       -9.086      861.641
12/07/2013  23:09:00     -155.583      -38.547       -9.957       31.608       36.882       21.036      999.045     1360.312      442.517        1.430        0.140      160.287       16.040        0.010      326.172       -9.139      861.651
12/07/2013  23:10:00     -154.724        3.727      -15.508       52.709       30.473       24.943     2778.244      928.613      622.168        1.426        0.216      154.769       28.289        0.033      326.103       -9.252      861.659
12/07/2013  23:11:00     -131.413       18.542      -13.214       46.663       24.638       21.962     2177.419      607.040      482.343        1.053        0.163      132.715       22.119        0.028      326.036       -9.360      861.672
12/07/2013  23:12:00     -141.340       14.034      -17.908       38.318       32.925       20.821     1468.241     1084.060      433.530        1.174        0.149      142.035       15.972        0.013      326.009       -9.403      861.686
12/07/2013  23:13:00     -124.032       30.553      -12.094       34.566       41.892       16.760     1194.830     1754.956      280.908        0.985        0.162      127.740       11.989        0.009      325.972       -9.464      861.707
12/07/2013  23:14:00     -103.666      -29.242       -6.771       30.822       39.035       26.635      950.020     1523.698      709.419        0.741        0.159      107.712       23.195        0.046      325.986       -9.440      861.729
12/07/2013  23:15:00      -89.445        3.135      -34.392       42.773       38.755       24.712     1829.519     1501.915      610.659        0.657        0.197       89.500       22.996        0.066      325.977       -9.456      861.759
12/07/2013  23:16:00      -12.358       12.350       20.494       20.410       23.575       24.156      416.578      555.794      583.503        0.114        0.078       17.471       13.087        0.561      326.012       -9.400      861.779
12/07/2013  23:17:00       -2.678      -14.610        0.345       10.956       20.169       14.474      120.042      406.805      209.483        0.048        0.037       14.853        7.571        0.260      326.051       -9.337      861.792
12/07/2013  23:18:00       -9.431        9.323       18.533        8.931       16.584       12.793       79.764      275.024      163.667        0.052        0.026       13.261        9.004        0.461      326.109       -9.241      861.793
12/07/2013  23:19:00       10.955      -29.952        5.005       20.674       27.147       15.489      427.433      736.946      239.903        0.122        0.070       31.892       12.517        0.154      326.116       -9.232      861.792
12/07/2013  23:20:00       34.692        3.383       -0.099       16.540       24.760       14.069      273.584      613.047      197.931        0.115        0.054       34.856       11.970        0.118      326.019       -9.389      861.790
12/07/2013  23:21:00       21.053       23.121       -5.428       13.891        6.532        4.644      192.972       42.671       21.564        0.063        0.013       31.270        4.124        0.017      325.966       -9.477      861.797
12/07/2013  23:22:00       16.301       25.235       -4.176        8.369        9.867        8.679       70.033       97.366       75.323        0.058        0.012       30.042        6.125        0.042      326.015       -9.397      861.801
12/07/2013  23:23:00      -58.258       17.557       -4.197       30.596        9.723       11.504      936.109       94.538      132.348        0.244        0.058       60.846       13.281        0.048      326.010       -9.403      861.805
12/07/2013  23:24:00      -87.389       13.826       -5.980       30.762       14.564       11.239      946.278      212.113      126.317        0.457        0.064       88.476       10.320        0.014      326.078       -9.292      861.806
12/07/2013  23:25:00     -134.781        5.855      -15.830       20.670       17.710       11.297      427.236      313.654      127.615        0.966        0.043      134.908        6.500        0.002      326.134       -9.200      861.814
12/07/2013  23:26:00     -135.038        2.569      -12.206       43.302       30.611       24.972     1875.040      937.015      623.609        1.091        0.172      135.063       26.411        0.038      326.181       -9.127      861.801
12/07/2013  23:27:00     -176.788        4.939      -14.247       46.016       25.846       22.414     2117.486      668.009      502.394        1.738        0.164      176.857       18.799        0.011      325.933       -9.527      861.785
12/07/2013  23:28:00     -139.431       18.972      -14.836       28.431       17.290       14.382      808.329      298.935      206.833        1.067        0.066      140.716       10.066        0.005      326.193       -9.107      861.767
12/07/2013  23:29:00     -147.979      -36.887      -10.410       28.520       32.205       17.059      813.390     1037.146      291.008        1.275        0.107      152.508        8.267        0.003      326.126       -9.215      861.748
12/07/2013  23:30:00     -143.218      -45.729      -13.981       24.933       29.806       15.484      621.638      888.391      239.751        1.227        0.087      150.342       14.545        0.009      326.024       -9.379      861.745
12/07/2013  23:31:00     -158.678      -56.526      -10.937       32.532       29.495       18.554     1058.328      869.932      344.259        1.538        0.114      168.445       13.559        0.006      326.125       -9.218      861.747
12/07/2013  23:32:00     -192.510      -75.149       -9.504       37.804       29.112       23.550     1429.163      847.482      554.611        2.281        0.142      206.658       21.820        0.011      326.158       -9.164      861.767
12/07/2013  23:33:00     -120.288      -92.473        3.273       46.423       50.580       26.036     2155.098     2558.311      677.887        1.421        0.270      151.725       23.562        0.024      326.135       -9.200      861.786
12/07/2013  23:34:00     -153.536      -41.676      -12.981       41.638       39.262       23.910     1733.756     1541.475      571.708        1.466        0.192      159.091       18.786        0.014      326.058       -9.324      861.796
12/07/2013  23:35:00     -143.378      -56.286       -3.233       37.772       42.202       26.938     1426.696     1781.042      725.631        1.383        0.197      154.030       25.399        0.027      326.051       -9.337      861.799
12/07/2013  23:36:00     -128.639      -27.285       -5.130       37.581       36.874       26.129     1412.351     1359.678      682.723        1.039        0.173      131.500       23.766        0.033      325.963       -9.479      861.799
12/07/2013  23:37:00     -138.914      -41.933       -9.032       37.232       33.413       24.528     1386.210     1116.416      601.620        1.212        0.155      145.105       21.510        0.022      325.962       -9.480      861.796
12/07/2013  23:38:00      -82.728      -10.483       -3.398       35.776       33.156       24.230     1279.929     1099.330      587.110        0.497        0.148       83.390       19.788        0.056      325.995       -9.426      861.813
12/07/2013  23:39:00      -72.819      -53.453       -6.084       32.981       32.898       17.386     1087.748     1082.280      302.267        0.533        0.124       90.332       17.580        0.038      326.015       -9.395      861.824
12/07/2013  23:40:00      -27.891      -19.766        7.281       52.609       32.341       30.591     2767.665     1045.933      935.783        0.298        0.237       34.185       30.556        0.799      326.012       -9.400      861.849
12/07/2013  23:41:00      -58.425      -37.058       -0.478       47.080       29.703       25.825     2216.502      882.275      666.907        0.428        0.188       69.187       23.775        0.118      325.911       -9.563      861.853
12/07/2013  23:42:00     -123.605      -27.204       -8.151       24.296       30.135       16.940      590.274      908.117      286.953        0.893        0.089      126.563       13.656        0.012      325.874       -9.622      861.845
12/07/2013  23:43:00     -116.538      -21.241      -11.160       33.266       21.199       15.732     1106.624      449.396      247.491        0.798        0.090      118.458       16.469        0.019      325.890       -9.597      861.823
12/07/2013  23:44:00      -56.012        6.782       -7.852       39.907       29.958       19.412     1592.608      897.468      376.845        0.306        0.143       56.421       13.469        0.057      325.835       -9.686      861.794
12/07/2013  23:45:00     -105.188       44.361       -4.820       47.400       30.140       19.593     2246.722      908.391      383.869        0.830        0.177      114.159       13.639        0.014      325.688       -9.923      861.773
12/07/2013  23:46:00      -90.176       22.798       -7.840       38.948       28.909       16.383     1516.939      835.750      268.391        0.567        0.131       93.013       16.472        0.031      325.758       -9.812      861.774
12/07/2013  23:47:00     -102.100      -37.514       -9.181       23.294       26.153       14.281      542.591      683.996      203.952        0.667        0.072      108.773        8.014        0.005      325.751       -9.822      861.778
12/07/2013  23:48:00     -105.131      -46.711       -8.554       23.085       27.105       16.888      532.899      734.689      285.210        0.743        0.078      115.041       15.750        0.019      325.647       -9.989      861.778
12/07/2013  23:49:00     -129.365      -32.141       -9.510       38.036       28.854       22.589     1446.771      832.572      510.273        1.032        0.139      133.298       19.009        0.020      325.560      -10.131      861.780
12/07/2013  23:50:00     -128.730       -4.728       -8.855       30.025       28.324       19.872      901.508      802.254      394.895        0.939        0.105      128.817       18.252        0.020      325.461      -10.290      861.792
12/07/2013  23:51:00     -152.210       -7.739      -22.042       35.080       31.064       21.169     1230.582      964.976      448.132        1.318        0.132      152.407       13.773        0.008      325.428      -10.342      861.807
12/07/2013  23:52:00     -124.607        8.660      -17.504       34.566       24.836       22.396     1194.778      616.819      501.603        0.911        0.116      124.908       14.266        0.013      325.414      -10.365      861.830
12/07/2013  23:53:00      -56.254       19.788      -11.411       32.022       26.675       17.789     1025.415      711.562      316.454        0.287        0.103       59.633       14.263        0.057      325.475      -10.268      861.832
12/07/2013  23:54:00      -43.460       28.863        2.576       21.168       34.410       16.566      448.087     1184.047      274.444        0.232        0.095       52.171        4.627        0.008      325.507      -10.217      861.821
12/07/2013  23:55:00      -29.651      -10.503       -1.570       30.114       24.369       22.176      906.860      593.853      491.764        0.149        0.100       31.457       13.187        0.176      325.492      -10.239      861.800
12/07/2013  23:56:00      -45.648      -30.200       -5.983       47.023       28.991       24.261     2211.124      840.483      588.618        0.334        0.182       54.733       17.327        0.100      325.531      -10.176      861.780
12/07/2013  23:57:00     -103.381        1.478       -4.962       37.358       33.050       20.017     1395.591     1092.288      400.699        0.680        0.144      103.391       13.056        0.016      325.363      -10.447      861.773
12/07/2013  23:58:00      -83.746       -1.853       -6.984       36.713       16.628       12.620     1347.845      276.494      159.273        0.442        0.089       83.766       12.685        0.023      325.309      -10.535      861.796
12/07/2013  23:59:00      -64.734      -26.903        2.088       31.796       26.019       16.351     1010.993      676.982      267.341        0.344        0.098       70.102       15.963        0.052      325.446      -10.315      861.838
